Wetterdaten: Samstag, 03.12.2016
Datum Zeit Temp. A. Feuchte A. Luftdruck Regen Wind Richtung Richtung Sonnenschein ET UV Solar Taupunkt Windchill Windben Empfang
03.12.2016 00:00 -0,8 C 96 % 1022,1 hPa 0,0 l/m 1,7 km/h (1 Bft) W-SW 242 0 min 0,000 mm 0,0 UV-I 0 W/m -1,4 C -0,8 C 3,2 km/h (1 Bft) 100,00 %
03.12.2016 00:02 -0,8 C 96 % 1022,2 hPa 0,0 l/m 1,2 km/h (1 Bft) W-SW 242 0 min 0,000 mm 0,0 UV-I 0 W/m -1,4 C -0,8 C 1,6 km/h (1 Bft) 13,33 %
03.12.2016 00:04 -0,9 C 96 % 1022,2 hPa 0,0 l/m 1,1 km/h (1 Bft) W-SW 242 0 min 0,000 mm 0,0 UV-I 0 W/m -1,5 C -0,9 C 1,6 km/h (1 Bft) 84,44 %
03.12.2016 00:06 -0,9 C 96 % 1022,2 hPa 0,0 l/m 0,5 km/h (0 Bft) W-SW 242 0 min 0,000 mm 0,0 UV-I 0 W/m -1,5 C -0,9 C 1,6 km/h (1 Bft) 100,00 %
03.12.2016 00:08 -1,0 C 96 % 1022,2 hPa 0,0 l/m 0,1 km/h (0 Bft) W-SW 242 0 min 0,000 mm 0,0 UV-I 0 W/m -1,6 C -1,0 C 1,6 km/h (1 Bft) 97,87 %
03.12.2016 00:10 -1,0 C 96 % 1022,2 hPa 0,0 l/m 0,0 km/h (0 Bft) W-SW 242 0 min 0,000 mm 0,0 UV-I 0 W/m -1,6 C -1,0 C 0,0 km/h (0 Bft) 100,00 %
03.12.2016 00:12 -0,9 C 96 % 1022,2 hPa 0,0 l/m 0,2 km/h (0 Bft) W-SW 242 0 min 0,000 mm 0,0 UV-I 0 W/m -1,5 C -0,9 C 1,6 km/h (1 Bft) 97,92 %
03.12.2016 00:14 -0,8 C 96 % 1022,1 hPa 0,0 l/m 0,3 km/h (0 Bft) W-SW 242 0 min 0,000 mm 0,0 UV-I 0 W/m -1,4 C -0,8 C 1,6 km/h (1 Bft) 100,00 %
03.12.2016 00:16 -0,7 C 96 % 1022,1 hPa 0,0 l/m 0,0 km/h (0 Bft) W-SW 242 0 min 0,000 mm 0,0 UV-I 0 W/m -1,3 C -0,7 C 1,6 km/h (1 Bft) 96,00 %
03.12.2016 00:18 -0,8 C 96 % 1022,1 hPa 0,0 l/m 0,1 km/h (0 Bft) W-SW 242 0 min 0,000 mm 0,0 UV-I 0 W/m -1,4 C -0,8 C 1,6 km/h (1 Bft) 98,00 %
03.12.2016 00:20 -0,9 C 96 % 1022,2 hPa 0,0 l/m 0,0 km/h (0 Bft) W-SW 242 0 min 0,000 mm 0,0 UV-I 0 W/m -1,5 C -0,9 C 0,0 km/h (0 Bft) 95,74 %
03.12.2016 00:22 -1,0 C 96 % 1022,2 hPa 0,0 l/m 0,0 km/h (0 Bft) W-SW 242 0 min 0,000 mm 0,0 UV-I 0 W/m -1,6 C -1,0 C 0,0 km/h (0 Bft) 97,37 %
03.12.2016 00:24 -1,1 C 96 % 1022,2 hPa 0,0 l/m 0,0 km/h (0 Bft) W-SW 242 0 min 0,000 mm 0,0 UV-I 0 W/m -1,7 C -1,1 C 0,0 km/h (0 Bft) 98,00 %
03.12.2016 00:26 -1,1 C 96 % 1022,2 hPa 0,0 l/m 0,5 km/h (0 Bft) W-SW 242 0 min 0,000 mm 0,0 UV-I 0 W/m -1,7 C -1,1 C 1,6 km/h (1 Bft) 92,00 %
03.12.2016 00:28 -1,1 C 96 % 1022,2 hPa 0,0 l/m 0,7 km/h (0 Bft) W-SW 242 0 min 0,000 mm 0,0 UV-I 0 W/m -1,7 C -1,1 C 1,6 km/h (1 Bft) 97,87 %
03.12.2016 00:30 -1,1 C 96 % 1022,2 hPa 0,0 l/m 1,3 km/h (1 Bft) W-SW 242 0 min 0,000 mm 0,0 UV-I 0 W/m -1,7 C -1,1 C 1,6 km/h (1 Bft) 97,87 %
03.12.2016 00:32 -1,2 C 96 % 1022,2 hPa 0,0 l/m 0,0 km/h (0 Bft) W-SW 242 0 min 0,000 mm 0,0 UV-I 0 W/m -1,8 C -1,2 C 0,0 km/h (0 Bft) 97,37 %
03.12.2016 00:34 -1,3 C 96 % 1022,2 hPa 0,0 l/m 0,0 km/h (0 Bft) W-SW 242 0 min 0,000 mm 0,0 UV-I 0 W/m -1,9 C -1,3 C 0,0 km/h (0 Bft) 98,00 %
03.12.2016 00:36 -1,2 C 96 % 1022,2 hPa 0,0 l/m 0,0 km/h (0 Bft) W-SW 242 0 min 0,000 mm 0,0 UV-I 0 W/m -1,8 C -1,2 C 0,0 km/h (0 Bft) 98,00 %
03.12.2016 00:38 -1,2 C 96 % 1022,2 hPa 0,0 l/m 0,0 km/h (0 Bft) W-SW 242 0 min 0,000 mm 0,0 UV-I 0 W/m -1,8 C -1,2 C 0,0 km/h (0 Bft) 97,87 %
03.12.2016 00:40 -1,1 C 96 % 1022,2 hPa 0,0 l/m 0,0 km/h (0 Bft) W-SW 242 0 min 0,000 mm 0,0 UV-I 0 W/m -1,7 C -1,1 C 0,0 km/h (0 Bft) 98,00 %
03.12.2016 00:42 -1,1 C 96 % 1022,2 hPa 0,0 l/m 0,0 km/h (0 Bft) W-SW 242 0 min 0,000 mm 0,0 UV-I 0 W/m -1,7 C -1,1 C 0,0 km/h (0 Bft) 96,00 %
03.12.2016 00:44 -1,1 C 96 % 1022,2 hPa 0,0 l/m 0,0 km/h (0 Bft) W-SW 242 0 min 0,000 mm 0,0 UV-I 0 W/m -1,7 C -1,1 C 0,0 km/h (0 Bft) 97,87 %
03.12.2016 00:46 -0,9 C 97 % 1022,2 hPa 0,0 l/m 1,2 km/h (1 Bft) W-SW 242 0 min 0,000 mm 0,0 UV-I 0 W/m -1,3 C -0,9 C 1,6 km/h (1 Bft) 97,56 %
03.12.2016 00:48 -0,9 C 97 % 1022,2 hPa 0,0 l/m 0,4 km/h (0 Bft) W-SW 242 0 min 0,000 mm 0,0 UV-I 0 W/m -1,3 C -0,9 C 1,6 km/h (1 Bft) 97,62 %
03.12.2016 00:50 -1,0 C 96 % 1022,2 hPa 0,0 l/m 0,0 km/h (0 Bft) W-SW 242 0 min 0,000 mm 0,0 UV-I 0 W/m -1,6 C -1,0 C 0,0 km/h (0 Bft) 97,87 %
03.12.2016 00:52 -1,1 C 96 % 1022,2 hPa 0,0 l/m 0,0 km/h (0 Bft) W-SW 242 0 min 0,000 mm 0,0 UV-I 0 W/m -1,7 C -1,1 C 0,0 km/h (0 Bft) 100,00 %
03.12.2016 00:54 -1,1 C 96 % 1022,2 hPa 0,0 l/m 0,0 km/h (0 Bft) W-SW 242 0 min 0,000 mm 0,0 UV-I 0 W/m -1,7 C -1,1 C 0,0 km/h (0 Bft) 97,87 %
03.12.2016 00:56 -1,2 C 96 % 1022,2 hPa 0,0 l/m 0,0 km/h (0 Bft) W-SW 242 0 min 0,000 mm 0,0 UV-I 0 W/m -1,8 C -1,2 C 0,0 km/h (0 Bft) 100,00 %
03.12.2016 00:58 -1,2 C 96 % 1022,2 hPa 0,0 l/m 0,3 km/h (0 Bft) W-SW 242 0 min 0,000 mm 0,0 UV-I 0 W/m -1,8 C -1,2 C 1,6 km/h (1 Bft) 100,00 %
03.12.2016 01:00 -1,2 C 96 % 1022,2 hPa 0,0 l/m 2,3 km/h (1 Bft) W-SW 242 0 min 0,000 mm 0,0 UV-I 0 W/m -1,8 C -1,2 C 3,2 km/h (1 Bft) 98,00 %
03.12.2016 01:02 -1,3 C 96 % 1022,2 hPa 0,0 l/m 2,2 km/h (1 Bft) W-SW 242 0 min 0,000 mm 0,0 UV-I 0 W/m -1,9 C -1,3 C 3,2 km/h (1 Bft) 95,12 %
03.12.2016 01:04 -1,4 C 96 % 1022,2 hPa 0,0 l/m 1,8 km/h (1 Bft) W-SW 242 0 min 0,000 mm 0,0 UV-I 0 W/m -2,0 C -1,4 C 3,2 km/h (1 Bft) 97,87 %
03.12.2016 01:06 -1,5 C 96 % 1022,3 hPa 0,0 l/m 1,5 km/h (1 Bft) W-SW 242 0 min 0,000 mm 0,0 UV-I 0 W/m -2,1 C -1,5 C 3,2 km/h (1 Bft) 98,00 %
03.12.2016 01:08 -1,4 C 96 % 1022,3 hPa 0,0 l/m 1,0 km/h (0 Bft) W-SW 242 0 min 0,000 mm 0,0 UV-I 0 W/m -2,0 C -1,4 C 1,6 km/h (1 Bft) 95,74 %
03.12.2016 01:10 -1,4 C 96 % 1022,2 hPa 0,0 l/m 0,0 km/h (0 Bft) W-SW 242 0 min 0,000 mm 0,0 UV-I 0 W/m -2,0 C -1,4 C 0,0 km/h (0 Bft) 97,87 %
03.12.2016 01:12 -1,4 C 96 % 1022,3 hPa 0,0 l/m 0,0 km/h (0 Bft) W-SW 242 0 min 0,000 mm 0,0 UV-I 0 W/m -2,0 C -1,4 C 0,0 km/h (0 Bft) 100,00 %
03.12.2016 01:14 -1,3 C 97 % 1022,3 hPa 0,0 l/m 0,0 km/h (0 Bft) W-SW 242 0 min 0,000 mm 0,0 UV-I 0 W/m -1,7 C -1,3 C 0,0 km/h (0 Bft) 100,00 %
03.12.2016 01:16 -1,2 C 97 % 1022,2 hPa 0,0 l/m 0,0 km/h (0 Bft) W-SW 242 0 min 0,000 mm 0,0 UV-I 0 W/m -1,6 C -1,2 C 0,0 km/h (0 Bft) 100,00 %
03.12.2016 01:18 -1,2 C 97 % 1022,3 hPa 0,0 l/m 0,0 km/h (0 Bft) W-SW 242 0 min 0,000 mm 0,0 UV-I 0 W/m -1,6 C -1,2 C 0,0 km/h (0 Bft) 97,37 %
03.12.2016 01:20 -1,2 C 97 % 1022,3 hPa 0,0 l/m 1,0 km/h (0 Bft) W-SW 242 0 min 0,000 mm 0,0 UV-I 0 W/m -1,6 C -1,2 C 1,6 km/h (1 Bft) 100,00 %
03.12.2016 01:22 -1,2 C 97 % 1022,3 hPa 0,0 l/m 1,0 km/h (0 Bft) W-SW 242 0 min 0,000 mm 0,0 UV-I 0 W/m -1,6 C -1,2 C 3,2 km/h (1 Bft) 100,00 %
03.12.2016 01:24 -1,3 C 97 % 1022,3 hPa 0,0 l/m 0,3 km/h (0 Bft) W-SW 242 0 min 0,000 mm 0,0 UV-I 0 W/m -1,7 C -1,3 C 1,6 km/h (1 Bft) 100,00 %
03.12.2016 01:26 -1,5 C 96 % 1022,3 hPa 0,0 l/m 0,7 km/h (0 Bft) W-SW 242 0 min 0,000 mm 0,0 UV-I 0 W/m -2,1 C -1,5 C 3,2 km/h (1 Bft) 98,00 %
03.12.2016 01:28 -1,7 C 96 % 1022,4 hPa 0,0 l/m 0,2 km/h (0 Bft) W-SW 242 0 min 0,000 mm 0,0 UV-I 0 W/m -2,3 C -1,7 C 1,6 km/h (1 Bft) 100,00 %
03.12.2016 01:30 -1,7 C 96 % 1022,3 hPa 0,0 l/m 2,1 km/h (1 Bft) W-SW 242 0 min 0,000 mm 0,0 UV-I 0 W/m -2,3 C -1,7 C 3,2 km/h (1 Bft) 100,00 %
03.12.2016 01:32 -1,7 C 96 % 1022,2 hPa 0,0 l/m 1,6 km/h (1 Bft) W-SW 242 0 min 0,000 mm 0,0 UV-I 0 W/m -2,3 C -1,7 C 3,2 km/h (1 Bft) 100,00 %
03.12.2016 01:34 -1,7 C 96 % 1022,3 hPa 0,0 l/m 0,8 km/h (0 Bft) W-SW 242 0 min 0,000 mm 0,0 UV-I 0 W/m -2,3 C -1,7 C 1,6 km/h (1 Bft) 98,11 %
03.12.2016 01:36 -1,7 C 97 % 1022,2 hPa 0,0 l/m 0,0 km/h (0 Bft) W-SW 242 0 min 0,000 mm 0,0 UV-I 0 W/m -2,1 C -1,7 C 0,0 km/h (0 Bft) 97,87 %
03.12.2016 01:38 -1,7 C 97 % 1022,3 hPa 0,0 l/m 0,0 km/h (0 Bft) W-SW 242 0 min 0,000 mm 0,0 UV-I 0 W/m -2,1 C -1,7 C 0,0 km/h (0 Bft) 100,00 %
03.12.2016 01:40 -1,7 C 97 % 1022,3 hPa 0,0 l/m 0,0 km/h (0 Bft) W-SW 242 0 min 0,000 mm 0,0 UV-I 0 W/m -2,1 C -1,7 C 0,0 km/h (0 Bft) 97,37 %
03.12.2016 01:42 -1,7 C 97 % 1022,3 hPa 0,0 l/m 0,0 km/h (0 Bft) W-SW 242 0 min 0,000 mm 0,0 UV-I 0 W/m -2,1 C -1,7 C 0,0 km/h (0 Bft) 100,00 %
03.12.2016 01:44 -1,7 C 97 % 1022,3 hPa 0,0 l/m 0,0 km/h (0 Bft) W-SW 242 0 min 0,000 mm 0,0 UV-I 0 W/m -2,1 C -1,7 C 0,0 km/h (0 Bft) 98,00 %
03.12.2016 01:46 -1,7 C 97 % 1022,3 hPa 0,0 l/m 0,0 km/h (0 Bft) W-SW 242 0 min 0,000 mm 0,0 UV-I 0 W/m -2,1 C -1,7 C 0,0 km/h (0 Bft) 100,00 %
03.12.2016 01:48 -1,7 C 97 % 1022,3 hPa 0,0 l/m 0,0 km/h (0 Bft) W-SW 242 0 min 0,000 mm 0,0 UV-I 0 W/m -2,1 C -1,7 C 0,0 km/h (0 Bft) 100,00 %
03.12.2016 01:50 -1,8 C 97 % 1022,3 hPa 0,0 l/m 1,1 km/h (1 Bft) W-SW 242 0 min 0,000 mm 0,0 UV-I 0 W/m -2,2 C -1,8 C 1,6 km/h (1 Bft) 100,00 %
03.12.2016 01:52 -1,9 C 97 % 1022,3 hPa 0,0 l/m 0,9 km/h (0 Bft) W-SW 242 0 min 0,000 mm 0,0 UV-I 0 W/m -2,3 C -1,9 C 1,6 km/h (1 Bft) 100,00 %
03.12.2016 01:54 -1,9 C 97 % 1022,3 hPa 0,0 l/m 0,0 km/h (0 Bft) W-SW 242 0 min 0,000 mm 0,0 UV-I 0 W/m -2,3 C -1,9 C 0,0 km/h (0 Bft) 100,00 %
03.12.2016 01:56 -1,9 C 97 % 1022,3 hPa 0,0 l/m 0,0 km/h (0 Bft) W-SW 242 0 min 0,000 mm 0,0 UV-I 0 W/m -2,3 C -1,9 C 0,0 km/h (0 Bft) 100,00 %
03.12.2016 01:58 -1,8 C 97 % 1022,3 hPa 0,0 l/m 0,0 km/h (0 Bft) W-SW 242 0 min 0,000 mm 0,0 UV-I 0 W/m -2,2 C -1,8 C 0,0 km/h (0 Bft) 100,00 %
03.12.2016 02:00 -1,9 C 97 % 1022,4 hPa 0,0 l/m 0,3 km/h (0 Bft) W-SW 242 0 min 0,000 mm 0,0 UV-I 0 W/m -2,3 C -1,9 C 1,6 km/h (1 Bft) 100,00 %
03.12.2016 02:02 -1,9 C 97 % 1022,3 hPa 0,0 l/m 0,6 km/h (0 Bft) W-SW 242 0 min 0,000 mm 0,0 UV-I 0 W/m -2,3 C -1,9 C 1,6 km/h (1 Bft) 100,00 %
03.12.2016 02:04 -1,9 C 97 % 1022,3 hPa 0,0 l/m 0,6 km/h (0 Bft) W-SW 242 0 min 0,000 mm 0,0 UV-I 0 W/m -2,3 C -1,9 C 1,6 km/h (1 Bft) 100,00 %
03.12.2016 02:06 -2,1 C 97 % 1022,4 hPa 0,0 l/m 0,0 km/h (0 Bft) W-SW 242 0 min 0,000 mm 0,0 UV-I 0 W/m -2,5 C -2,1 C 0,0 km/h (0 Bft) 100,00 %
03.12.2016 02:08 -2,1 C 97 % 1022,4 hPa 0,0 l/m 0,0 km/h (0 Bft) W-SW 242 0 min 0,000 mm 0,0 UV-I 0 W/m -2,5 C -2,1 C 0,0 km/h (0 Bft) 100,00 %
03.12.2016 02:10 -2,1 C 97 % 1022,4 hPa 0,0 l/m 0,0 km/h (0 Bft) W-SW 242 0 min 0,000 mm 0,0 UV-I 0 W/m -2,5 C -2,1 C 0,0 km/h (0 Bft) 100,00 %
03.12.2016 02:12 -2,1 C 97 % 1022,4 hPa 0,0 l/m 0,3 km/h (0 Bft) W-SW 242 0 min 0,000 mm 0,0 UV-I 0 W/m -2,5 C -2,1 C 1,6 km/h (1 Bft) 100,00 %
03.12.2016 02:14 -2,1 C 97 % 1022,4 hPa 0,0 l/m 1,4 km/h (1 Bft) W-SW 242 0 min 0,000 mm 0,0 UV-I 0 W/m -2,5 C -2,1 C 3,2 km/h (1 Bft) 96,23 %
03.12.2016 02:16 -2,1 C 97 % 1022,4 hPa 0,0 l/m 0,8 km/h (0 Bft) W-SW 242 0 min 0,000 mm 0,0 UV-I 0 W/m -2,5 C -2,1 C 3,2 km/h (1 Bft) 97,87 %
03.12.2016 02:18 -2,1 C 97 % 1022,5 hPa 0,0 l/m 2,3 km/h (1 Bft) W-SW 242 0 min 0,000 mm 0,0 UV-I 0 W/m -2,5 C -2,1 C 3,2 km/h (1 Bft) 97,14 %
03.12.2016 02:20 -2,1 C 97 % 1022,5 hPa 0,0 l/m 1,8 km/h (1 Bft) W-SW 242 0 min 0,000 mm 0,0 UV-I 0 W/m -2,5 C -2,1 C 3,2 km/h (1 Bft) 98,21 %
03.12.2016 02:22 -2,1 C 97 % 1022,4 hPa 0,0 l/m 1,9 km/h (1 Bft) W-SW 242 0 min 0,000 mm 0,0 UV-I 0 W/m -2,5 C -2,1 C 3,2 km/h (1 Bft) 98,00 %
03.12.2016 02:24 -1,9 C 97 % 1022,4 hPa 0,0 l/m 2,2 km/h (1 Bft) W-SW 242 0 min 0,000 mm 0,0 UV-I 0 W/m -2,3 C -1,9 C 3,2 km/h (1 Bft) 97,37 %
03.12.2016 02:26 -1,9 C 97 % 1022,5 hPa 0,0 l/m 1,4 km/h (1 Bft) W-SW 242 0 min 0,000 mm 0,0 UV-I 0 W/m -2,3 C -1,9 C 3,2 km/h (1 Bft) 95,74 %
03.12.2016 02:28 -1,9 C 97 % 1022,5 hPa 0,0 l/m 2,0 km/h (1 Bft) W 269 0 min 0,000 mm 0,0 UV-I 0 W/m -2,3 C -1,9 C 3,2 km/h (1 Bft) 96,00 %
03.12.2016 02:30 -1,9 C 97 % 1022,5 hPa 0,0 l/m 2,8 km/h (1 Bft) W 279 0 min 0,000 mm 0,0 UV-I 0 W/m -2,3 C -1,9 C 4,8 km/h (1 Bft) 96,23 %
03.12.2016 02:32 -1,9 C 97 % 1022,5 hPa 0,0 l/m 2,4 km/h (1 Bft) NW 308 0 min 0,000 mm 0,0 UV-I 0 W/m -2,3 C -1,9 C 3,2 km/h (1 Bft) 97,56 %
03.12.2016 02:34 -1,9 C 97 % 1022,5 hPa 0,0 l/m 2,7 km/h (1 Bft) N 360 0 min 0,000 mm 0,0 UV-I 0 W/m -2,3 C -1,9 C 4,8 km/h (1 Bft) 97,56 %
03.12.2016 02:36 -1,8 C 97 % 1022,5 hPa 0,0 l/m 4,0 km/h (1 Bft) O-NO 62 0 min 0,000 mm 0,0 UV-I 0 W/m -2,2 C -1,8 C 4,8 km/h (1 Bft) 98,00 %
03.12.2016 02:38 -1,7 C 97 % 1022,5 hPa 0,0 l/m 4,0 km/h (1 Bft) O-NO 63 0 min 0,000 mm 0,0 UV-I 0 W/m -2,1 C -1,7 C 6,4 km/h (2 Bft) 98,00 %
03.12.2016 02:40 -1,7 C 97 % 1022,5 hPa 0,0 l/m 2,3 km/h (1 Bft) O-NO 63 0 min 0,000 mm 0,0 UV-I 0 W/m -2,1 C -1,7 C 4,8 km/h (1 Bft) 96,00 %
03.12.2016 02:42 -1,7 C 97 % 1022,6 hPa 0,0 l/m 3,4 km/h (1 Bft) O-NO 63 0 min 0,000 mm 0,0 UV-I 0 W/m -2,1 C -1,7 C 4,8 km/h (1 Bft) 97,37 %
03.12.2016 02:44 -1,7 C 97 % 1022,5 hPa 0,0 l/m 3,4 km/h (1 Bft) O-NO 63 0 min 0,000 mm 0,0 UV-I 0 W/m -2,1 C -1,7 C 4,8 km/h (1 Bft) 96,43 %
03.12.2016 02:46 -1,7 C 97 % 1022,6 hPa 0,0 l/m 2,9 km/h (1 Bft) O-NO 71 0 min 0,000 mm 0,0 UV-I 0 W/m -2,1 C -1,7 C 4,8 km/h (1 Bft) 97,92 %
03.12.2016 02:48 -1,7 C 97 % 1022,6 hPa 0,0 l/m 2,6 km/h (1 Bft) SO 137 0 min 0,000 mm 0,0 UV-I 0 W/m -2,1 C -1,7 C 4,8 km/h (1 Bft) 97,73 %
03.12.2016 02:50 -1,6 C 97 % 1022,6 hPa 0,0 l/m 2,5 km/h (1 Bft) SO 136 0 min 0,000 mm 0,0 UV-I 0 W/m -2,0 C -1,6 C 4,8 km/h (1 Bft) 97,92 %
03.12.2016 02:52 -1,6 C 97 % 1022,6 hPa 0,0 l/m 4,1 km/h (1 Bft) O-SO 119 0 min 0,000 mm 0,0 UV-I 0 W/m -2,0 C -1,6 C 4,8 km/h (1 Bft) 93,62 %
03.12.2016 02:54 -1,6 C 97 % 1022,6 hPa 0,0 l/m 3,7 km/h (1 Bft) O-SO 119 0 min 0,000 mm 0,0 UV-I 0 W/m -2,0 C -1,6 C 6,4 km/h (2 Bft) 97,37 %
03.12.2016 02:56 -1,6 C 97 % 1022,6 hPa 0,0 l/m 0,4 km/h (0 Bft) O-SO 119 0 min 0,000 mm 0,0 UV-I 0 W/m -2,0 C -1,6 C 1,6 km/h (1 Bft) 96,30 %
03.12.2016 02:58 -1,5 C 97 % 1022,6 hPa 0,0 l/m 0,7 km/h (0 Bft) O-SO 119 0 min 0,000 mm 0,0 UV-I 0 W/m -1,9 C -1,5 C 1,6 km/h (1 Bft) 100,00 %
03.12.2016 03:00 -1,5 C 97 % 1022,6 hPa 0,0 l/m 0,4 km/h (0 Bft) O-SO 119 0 min 0,000 mm 0,0 UV-I 0 W/m -1,9 C -1,5 C 1,6 km/h (1 Bft) 100,00 %
03.12.2016 03:02 -1,5 C 97 % 1022,6 hPa 0,0 l/m 1,2 km/h (1 Bft) O-SO 119 0 min 0,000 mm 0,0 UV-I 0 W/m -1,9 C -1,5 C 3,2 km/h (1 Bft) 98,11 %
03.12.2016 03:04 -1,5 C 97 % 1022,6 hPa 0,0 l/m 0,9 km/h (0 Bft) O-SO 119 0 min 0,000 mm 0,0 UV-I 0 W/m -1,9 C -1,5 C 3,2 km/h (1 Bft) 100,00 %
03.12.2016 03:06 -1,5 C 97 % 1022,7 hPa 0,0 l/m 0,7 km/h (0 Bft) O-SO 119 0 min 0,000 mm 0,0 UV-I 0 W/m -1,9 C -1,5 C 1,6 km/h (1 Bft) 100,00 %
03.12.2016 03:08 -1,6 C 97 % 1022,7 hPa 0,0 l/m 0,5 km/h (0 Bft) O-SO 119 0 min 0,000 mm 0,0 UV-I 0 W/m -2,0 C -1,6 C 1,6 km/h (1 Bft) 97,87 %
03.12.2016 03:10 -1,6 C 97 % 1022,7 hPa 0,0 l/m 1,2 km/h (1 Bft) O-SO 119 0 min 0,000 mm 0,0 UV-I 0 W/m -2,0 C -1,6 C 1,6 km/h (1 Bft) 100,00 %
03.12.2016 03:12 -1,6 C 97 % 1022,7 hPa 0,0 l/m 0,6 km/h (0 Bft) O-SO 119 0 min 0,000 mm 0,0 UV-I 0 W/m -2,0 C -1,6 C 1,6 km/h (1 Bft) 100,00 %
03.12.2016 03:14 -1,6 C 97 % 1022,7 hPa 0,0 l/m 1,9 km/h (1 Bft) O 94 0 min 0,000 mm 0,0 UV-I 0 W/m -2,0 C -1,6 C 3,2 km/h (1 Bft) 100,00 %
03.12.2016 03:16 -1,6 C 97 % 1022,7 hPa 0,0 l/m 1,1 km/h (1 Bft) O 80 0 min 0,000 mm 0,0 UV-I 0 W/m -2,0 C -1,6 C 3,2 km/h (1 Bft) 100,00 %
03.12.2016 03:18 -1,6 C 97 % 1022,7 hPa 0,0 l/m 2,2 km/h (1 Bft) O-NO 63 0 min 0,000 mm 0,0 UV-I 0 W/m -2,0 C -1,6 C 4,8 km/h (1 Bft) 95,74 %
03.12.2016 03:20 -1,6 C 97 % 1022,7 hPa 0,0 l/m 1,8 km/h (1 Bft) O-NO 63 0 min 0,000 mm 0,0 UV-I 0 W/m -2,0 C -1,6 C 3,2 km/h (1 Bft) 100,00 %
03.12.2016 03:22 -1,6 C 97 % 1022,7 hPa 0,0 l/m 3,0 km/h (1 Bft) O-NO 61 0 min 0,000 mm 0,0 UV-I 0 W/m -2,0 C -1,6 C 4,8 km/h (1 Bft) 100,00 %
03.12.2016 03:24 -1,7 C 97 % 1022,7 hPa 0,0 l/m 3,1 km/h (1 Bft) O-NO 61 0 min 0,000 mm 0,0 UV-I 0 W/m -2,1 C -1,7 C 4,8 km/h (1 Bft) 96,23 %
03.12.2016 03:26 -1,7 C 97 % 1022,7 hPa 0,0 l/m 3,3 km/h (1 Bft) O-NO 57 0 min 0,000 mm 0,0 UV-I 0 W/m -2,1 C -1,7 C 4,8 km/h (1 Bft) 97,73 %
03.12.2016 03:28 -1,7 C 97 % 1022,7 hPa 0,0 l/m 3,7 km/h (1 Bft) NO 55 0 min 0,000 mm 0,0 UV-I 0 W/m -2,1 C -1,7 C 4,8 km/h (1 Bft) 100,00 %
03.12.2016 03:30 -1,7 C 97 % 1022,7 hPa 0,0 l/m 2,8 km/h (1 Bft) NO 55 0 min 0,000 mm 0,0 UV-I 0 W/m -2,1 C -1,7 C 4,8 km/h (1 Bft) 97,37 %
03.12.2016 03:32 -1,8 C 97 % 1022,8 hPa 0,0 l/m 2,8 km/h (1 Bft) NO 55 0 min 0,000 mm 0,0 UV-I 0 W/m -2,2 C -1,8 C 4,8 km/h (1 Bft) 100,00 %
03.12.2016 03:34 -1,8 C 97 % 1022,8 hPa 0,0 l/m 2,2 km/h (1 Bft) NO 55 0 min 0,000 mm 0,0 UV-I 0 W/m -2,2 C -1,8 C 3,2 km/h (1 Bft) 100,00 %
03.12.2016 03:36 -1,9 C 97 % 1022,8 hPa 0,0 l/m 2,0 km/h (1 Bft) NO 55 0 min 0,000 mm 0,0 UV-I 0 W/m -2,3 C -1,9 C 4,8 km/h (1 Bft) 97,37 %
03.12.2016 03:38 -1,9 C 97 % 1022,9 hPa 0,0 l/m 2,2 km/h (1 Bft) NO 55 0 min 0,000 mm 0,0 UV-I 0 W/m -2,3 C -1,9 C 3,2 km/h (1 Bft) 100,00 %
03.12.2016 03:40 -2,0 C 97 % 1022,9 hPa 0,0 l/m 0,9 km/h (0 Bft) NO 55 0 min 0,000 mm 0,0 UV-I 0 W/m -2,4 C -2,0 C 3,2 km/h (1 Bft) 100,00 %
03.12.2016 03:42 -2,0 C 97 % 1022,9 hPa 0,0 l/m 1,8 km/h (1 Bft) NO 55 0 min 0,000 mm 0,0 UV-I 0 W/m -2,4 C -2,0 C 3,2 km/h (1 Bft) 100,00 %
03.12.2016 03:44 -2,1 C 97 % 1022,9 hPa 0,0 l/m 2,5 km/h (1 Bft) NO 55 0 min 0,000 mm 0,0 UV-I 0 W/m -2,5 C -2,1 C 4,8 km/h (1 Bft) 97,73 %
03.12.2016 03:46 -2,2 C 97 % 1022,9 hPa 0,0 l/m 2,3 km/h (1 Bft) NO 55 0 min 0,000 mm 0,0 UV-I 0 W/m -2,6 C -2,2 C 3,2 km/h (1 Bft) 100,00 %
03.12.2016 03:48 -2,2 C 97 % 1022,9 hPa 0,0 l/m 2,2 km/h (1 Bft) NO 55 0 min 0,000 mm 0,0 UV-I 0 W/m -2,6 C -2,2 C 3,2 km/h (1 Bft) 100,00 %
03.12.2016 03:50 -2,3 C 97 % 1022,9 hPa 0,0 l/m 0,8 km/h (0 Bft) NO 55 0 min 0,000 mm 0,0 UV-I 0 W/m -2,7 C -2,3 C 1,6 km/h (1 Bft) 100,00 %
03.12.2016 03:52 -2,3 C 97 % 1022,9 hPa 0,0 l/m 1,7 km/h (1 Bft) NO 55 0 min 0,000 mm 0,0 UV-I 0 W/m -2,7 C -2,3 C 3,2 km/h (1 Bft) 100,00 %
03.12.2016 03:54 -2,4 C 97 % 1022,9 hPa 0,0 l/m 2,6 km/h (1 Bft) NO 55 0 min 0,000 mm 0,0 UV-I 0 W/m -2,8 C -2,4 C 4,8 km/h (1 Bft) 100,00 %
03.12.2016 03:56 -2,4 C 97 % 1022,9 hPa 0,0 l/m 3,8 km/h (1 Bft) NO 55 0 min 0,000 mm 0,0 UV-I 0 W/m -2,8 C -2,4 C 4,8 km/h (1 Bft) 98,11 %
03.12.2016 03:58 -2,6 C 97 % 1022,8 hPa 0,0 l/m 3,7 km/h (1 Bft) NO 55 0 min 0,000 mm 0,0 UV-I 0 W/m -3,0 C -2,6 C 4,8 km/h (1 Bft) 100,00 %
03.12.2016 04:00 -2,6 C 97 % 1022,9 hPa 0,0 l/m 5,0 km/h (1 Bft) NO 55 0 min 0,000 mm 0,0 UV-I 0 W/m -3,0 C -2,6 C 6,4 km/h (2 Bft) 100,00 %
03.12.2016 04:02 -2,7 C 97 % 1022,9 hPa 0,0 l/m 4,2 km/h (1 Bft) NO 55 0 min 0,000 mm 0,0 UV-I 0 W/m -3,1 C -2,7 C 6,4 km/h (2 Bft) 100,00 %
03.12.2016 04:04 -2,8 C 97 % 1022,9 hPa 0,0 l/m 1,6 km/h (1 Bft) NO 55 0 min 0,000 mm 0,0 UV-I 0 W/m -3,2 C -2,8 C 3,2 km/h (1 Bft) 100,00 %
03.12.2016 04:06 -2,8 C 97 % 1022,9 hPa 0,0 l/m 1,1 km/h (1 Bft) NO 55 0 min 0,000 mm 0,0 UV-I 0 W/m -3,2 C -2,8 C 3,2 km/h (1 Bft) 100,00 %
03.12.2016 04:08 -2,9 C 97 % 1022,9 hPa 0,0 l/m 0,0 km/h (0 Bft) NO 55 0 min 0,000 mm 0,0 UV-I 0 W/m -3,3 C -2,9 C 0,0 km/h (0 Bft) 97,87 %
03.12.2016 04:10 -2,9 C 97 % 1022,9 hPa 0,0 l/m 1,0 km/h (0 Bft) NO 55 0 min 0,000 mm 0,0 UV-I 0 W/m -3,3 C -2,9 C 1,6 km/h (1 Bft) 100,00 %
03.12.2016 04:12 -3,0 C 97 % 1022,9 hPa 0,0 l/m 1,8 km/h (1 Bft) NO 55 0 min 0,000 mm 0,0 UV-I 0 W/m -3,4 C -3,0 C 3,2 km/h (1 Bft) 100,00 %
03.12.2016 04:14 -3,1 C 97 % 1023,0 hPa 0,0 l/m 0,3 km/h (0 Bft) NO 55 0 min 0,000 mm 0,0 UV-I 0 W/m -3,5 C -3,1 C 1,6 km/h (1 Bft) 100,00 %
03.12.2016 04:16 -3,1 C 97 % 1023,0 hPa 0,0 l/m 0,0 km/h (0 Bft) NO 55 0 min 0,000 mm 0,0 UV-I 0 W/m -3,5 C -3,1 C 0,0 km/h (0 Bft) 100,00 %
03.12.2016 04:18 -3,1 C 97 % 1022,9 hPa 0,0 l/m 0,0 km/h (0 Bft) NO 55 0 min 0,000 mm 0,0 UV-I 0 W/m -3,5 C -3,1 C 0,0 km/h (0 Bft) 100,00 %
03.12.2016 04:20 -3,1 C 97 % 1022,9 hPa 0,0 l/m 0,9 km/h (0 Bft) NO 55 0 min 0,000 mm 0,0 UV-I 0 W/m -3,5 C -3,1 C 1,6 km/h (1 Bft) 100,00 %
03.12.2016 04:22 -3,1 C 97 % 1022,9 hPa 0,0 l/m 2,4 km/h (1 Bft) NO 55 0 min 0,000 mm 0,0 UV-I 0 W/m -3,5 C -3,1 C 3,2 km/h (1 Bft) 98,00 %
03.12.2016 04:24 -3,0 C 97 % 1022,9 hPa 0,0 l/m 1,8 km/h (1 Bft) NO 55 0 min 0,000 mm 0,0 UV-I 0 W/m -3,4 C -3,0 C 3,2 km/h (1 Bft) 98,00 %
03.12.2016 04:26 -3,0 C 97 % 1022,9 hPa 0,0 l/m 1,8 km/h (1 Bft) NO 55 0 min 0,000 mm 0,0 UV-I 0 W/m -3,4 C -3,0 C 3,2 km/h (1 Bft) 97,56 %
03.12.2016 04:28 -3,0 C 97 % 1022,9 hPa 0,0 l/m 1,3 km/h (1 Bft) NO 55 0 min 0,000 mm 0,0 UV-I 0 W/m -3,4 C -3,0 C 3,2 km/h (1 Bft) 96,23 %
03.12.2016 04:30 -3,0 C 97 % 1022,9 hPa 0,0 l/m 1,8 km/h (1 Bft) NO 55 0 min 0,000 mm 0,0 UV-I 0 W/m -3,4 C -3,0 C 3,2 km/h (1 Bft) 95,74 %
03.12.2016 04:32 -3,0 C 97 % 1022,9 hPa 0,0 l/m 0,3 km/h (0 Bft) NO 55 0 min 0,000 mm 0,0 UV-I 0 W/m -3,4 C -3,0 C 1,6 km/h (1 Bft) 98,00 %
03.12.2016 04:34 -3,1 C 97 % 1022,9 hPa 0,0 l/m 0,8 km/h (0 Bft) NO 55 0 min 0,000 mm 0,0 UV-I 0 W/m -3,5 C -3,1 C 3,2 km/h (1 Bft) 97,14 %
03.12.2016 04:36 -3,1 C 97 % 1023,0 hPa 0,0 l/m 1,3 km/h (1 Bft) NO 55 0 min 0,000 mm 0,0 UV-I 0 W/m -3,5 C -3,1 C 3,2 km/h (1 Bft) 95,74 %
03.12.2016 04:38 -3,1 C 97 % 1023,0 hPa 0,0 l/m 0,7 km/h (0 Bft) NO 55 0 min 0,000 mm 0,0 UV-I 0 W/m -3,5 C -3,1 C 1,6 km/h (1 Bft) 94,00 %
03.12.2016 04:40 -3,1 C 97 % 1023,0 hPa 0,0 l/m 0,4 km/h (0 Bft) NO 55 0 min 0,000 mm 0,0 UV-I 0 W/m -3,5 C -3,1 C 1,6 km/h (1 Bft) 95,45 %
03.12.2016 04:42 -3,1 C 97 % 1023,0 hPa 0,0 l/m 0,0 km/h (0 Bft) NO 55 0 min 0,000 mm 0,0 UV-I 0 W/m -3,5 C -3,1 C 0,0 km/h (0 Bft) 95,74 %
03.12.2016 04:44 -3,1 C 97 % 1022,9 hPa 0,0 l/m 0,0 km/h (0 Bft) NO 55 0 min 0,000 mm 0,0 UV-I 0 W/m -3,5 C -3,1 C 0,0 km/h (0 Bft) 97,22 %
03.12.2016 04:46 -3,1 C 97 % 1023,0 hPa 0,0 l/m 0,6 km/h (0 Bft) NO 55 0 min 0,000 mm 0,0 UV-I 0 W/m -3,5 C -3,1 C 3,2 km/h (1 Bft) 97,01 %
03.12.2016 04:48 -3,0 C 97 % 1023,0 hPa 0,0 l/m 2,9 km/h (1 Bft) NO 55 0 min 0,000 mm 0,0 UV-I 0 W/m -3,4 C -3,0 C 4,8 km/h (1 Bft) 97,44 %
03.12.2016 04:50 -3,0 C 97 % 1023,0 hPa 0,0 l/m 1,8 km/h (1 Bft) NO 55 0 min 0,000 mm 0,0 UV-I 0 W/m -3,4 C -3,0 C 3,2 km/h (1 Bft) 97,87 %
03.12.2016 04:52 -2,9 C 97 % 1023,0 hPa 0,0 l/m 1,7 km/h (1 Bft) NO 55 0 min 0,000 mm 0,0 UV-I 0 W/m -3,3 C -2,9 C 3,2 km/h (1 Bft) 97,87 %
03.12.2016 04:54 -2,9 C 97 % 1023,0 hPa 0,0 l/m 1,8 km/h (1 Bft) NO 55 0 min 0,000 mm 0,0 UV-I 0 W/m -3,3 C -2,9 C 3,2 km/h (1 Bft) 95,74 %
03.12.2016 04:56 -2,9 C 97 % 1023,0 hPa 0,0 l/m 2,5 km/h (1 Bft) NO 55 0 min 0,000 mm 0,0 UV-I 0 W/m -3,3 C -2,9 C 4,8 km/h (1 Bft) 98,00 %
03.12.2016 04:58 -2,8 C 97 % 1023,0 hPa 0,0 l/m 3,6 km/h (1 Bft) NO 55 0 min 0,000 mm 0,0 UV-I 0 W/m -3,2 C -2,8 C 4,8 km/h (1 Bft) 98,00 %
03.12.2016 05:00 -2,8 C 97 % 1023,0 hPa 0,0 l/m 3,0 km/h (1 Bft) NO 55 0 min 0,000 mm 0,0 UV-I 0 W/m -3,2 C -2,8 C 4,8 km/h (1 Bft) 100,00 %
03.12.2016 05:02 -2,8 C 97 % 1023,0 hPa 0,0 l/m 3,5 km/h (1 Bft) O-NO 65 0 min 0,000 mm 0,0 UV-I 0 W/m -3,2 C -2,8 C 6,4 km/h (2 Bft) 100,00 %
03.12.2016 05:04 -2,8 C 97 % 1023,1 hPa 0,0 l/m 4,7 km/h (1 Bft) O-NO 65 0 min 0,000 mm 0,0 UV-I 0 W/m -3,2 C -2,8 C 6,4 km/h (2 Bft) 100,00 %
03.12.2016 05:06 -2,7 C 97 % 1023,1 hPa 0,0 l/m 3,0 km/h (1 Bft) O-NO 65 0 min 0,000 mm 0,0 UV-I 0 W/m -3,1 C -2,7 C 4,8 km/h (1 Bft) 100,00 %
03.12.2016 05:08 -2,7 C 97 % 1023,1 hPa 0,0 l/m 4,0 km/h (1 Bft) O-NO 65 0 min 0,000 mm 0,0 UV-I 0 W/m -3,1 C -2,7 C 6,4 km/h (2 Bft) 100,00 %
03.12.2016 05:10 -2,7 C 97 % 1023,1 hPa 0,0 l/m 2,2 km/h (1 Bft) O-NO 65 0 min 0,000 mm 0,0 UV-I 0 W/m -3,1 C -2,7 C 4,8 km/h (1 Bft) 100,00 %
03.12.2016 05:12 -2,6 C 97 % 1023,1 hPa 0,0 l/m 1,4 km/h (1 Bft) O-NO 65 0 min 0,000 mm 0,0 UV-I 0 W/m -3,0 C -2,6 C 3,2 km/h (1 Bft) 97,87 %
03.12.2016 05:14 -2,6 C 97 % 1023,1 hPa 0,0 l/m 2,7 km/h (1 Bft) O-SO 104 0 min 0,000 mm 0,0 UV-I 0 W/m -3,0 C -2,6 C 4,8 km/h (1 Bft) 100,00 %
03.12.2016 05:16 -2,5 C 97 % 1023,1 hPa 0,0 l/m 0,6 km/h (0 Bft) O-SO 104 0 min 0,000 mm 0,0 UV-I 0 W/m -2,9 C -2,5 C 3,2 km/h (1 Bft) 100,00 %
03.12.2016 05:18 -2,5 C 97 % 1023,1 hPa 0,0 l/m 2,4 km/h (1 Bft) O-SO 104 0 min 0,000 mm 0,0 UV-I 0 W/m -2,9 C -2,5 C 4,8 km/h (1 Bft) 98,00 %
03.12.2016 05:20 -2,5 C 97 % 1023,1 hPa 0,0 l/m 3,0 km/h (1 Bft) O-SO 111 0 min 0,000 mm 0,0 UV-I 0 W/m -2,9 C -2,5 C 6,4 km/h (2 Bft) 100,00 %
03.12.2016 05:22 -2,4 C 97 % 1023,1 hPa 0,0 l/m 1,6 km/h (1 Bft) O-SO 111 0 min 0,000 mm 0,0 UV-I 0 W/m -2,8 C -2,4 C 3,2 km/h (1 Bft) 100,00 %
03.12.2016 05:24 -2,4 C 97 % 1023,1 hPa 0,0 l/m 2,4 km/h (1 Bft) O-SO 111 0 min 0,000 mm 0,0 UV-I 0 W/m -2,8 C -2,4 C 4,8 km/h (1 Bft) 100,00 %
03.12.2016 05:26 -2,5 C 97 % 1023,1 hPa 0,0 l/m 3,3 km/h (1 Bft) O-SO 111 0 min 0,000 mm 0,0 UV-I 0 W/m -2,9 C -2,5 C 4,8 km/h (1 Bft) 100,00 %
03.12.2016 05:28 -2,5 C 97 % 1023,1 hPa 0,0 l/m 1,7 km/h (1 Bft) O-SO 111 0 min 0,000 mm 0,0 UV-I 0 W/m -2,9 C -2,5 C 3,2 km/h (1 Bft) 100,00 %
03.12.2016 05:30 -2,5 C 97 % 1023,1 hPa 0,0 l/m 1,0 km/h (0 Bft) O-SO 111 0 min 0,000 mm 0,0 UV-I 0 W/m -2,9 C -2,5 C 1,6 km/h (1 Bft) 95,24 %
03.12.2016 05:32 -2,5 C 97 % 1023,1 hPa 0,0 l/m 0,2 km/h (0 Bft) O-SO 111 0 min 0,000 mm 0,0 UV-I 0 W/m -2,9 C -2,5 C 1,6 km/h (1 Bft) 100,00 %
03.12.2016 05:34 -2,5 C 97 % 1023,1 hPa 0,0 l/m 0,3 km/h (0 Bft) O-SO 111 0 min 0,000 mm 0,0 UV-I 0 W/m -2,9 C -2,5 C 1,6 km/h (1 Bft) 100,00 %
03.12.2016 05:36 -2,5 C 97 % 1023,1 hPa 0,0 l/m 1,0 km/h (0 Bft) O-SO 104 0 min 0,000 mm 0,0 UV-I 0 W/m -2,9 C -2,5 C 3,2 km/h (1 Bft) 98,00 %
03.12.2016 05:38 -2,5 C 97 % 1023,1 hPa 0,0 l/m 0,3 km/h (0 Bft) O-SO 104 0 min 0,000 mm 0,0 UV-I 0 W/m -2,9 C -2,5 C 3,2 km/h (1 Bft) 100,00 %
03.12.2016 05:40 -2,5 C 97 % 1023,1 hPa 0,0 l/m 0,8 km/h (0 Bft) O-SO 104 0 min 0,000 mm 0,0 UV-I 0 W/m -2,9 C -2,5 C 3,2 km/h (1 Bft) 100,00 %
03.12.2016 05:42 -2,5 C 97 % 1023,1 hPa 0,0 l/m 2,6 km/h (1 Bft) O-SO 103 0 min 0,000 mm 0,0 UV-I 0 W/m -2,9 C -2,5 C 4,8 km/h (1 Bft) 100,00 %
03.12.2016 05:44 -2,5 C 97 % 1023,2 hPa 0,0 l/m 2,6 km/h (1 Bft) O-SO 103 0 min 0,000 mm 0,0 UV-I 0 W/m -2,9 C -2,5 C 3,2 km/h (1 Bft) 100,00 %
03.12.2016 05:46 -2,6 C 97 % 1023,2 hPa 0,0 l/m 1,0 km/h (0 Bft) O-SO 103 0 min 0,000 mm 0,0 UV-I 0 W/m -3,0 C -2,6 C 3,2 km/h (1 Bft) 100,00 %
03.12.2016 05:48 -2,6 C 97 % 1023,2 hPa 0,0 l/m 0,4 km/h (0 Bft) O-SO 103 0 min 0,000 mm 0,0 UV-I 0 W/m -3,0 C -2,6 C 1,6 km/h (1 Bft) 97,87 %
03.12.2016 05:50 -2,6 C 97 % 1023,2 hPa 0,0 l/m 0,0 km/h (0 Bft) O-SO 103 0 min 0,000 mm 0,0 UV-I 0 W/m -3,0 C -2,6 C 0,0 km/h (0 Bft) 100,00 %
03.12.2016 05:52 -2,6 C 97 % 1023,2 hPa 0,0 l/m 0,4 km/h (0 Bft) O-SO 103 0 min 0,000 mm 0,0 UV-I 0 W/m -3,0 C -2,6 C 1,6 km/h (1 Bft) 98,21 %
03.12.2016 05:54 -2,6 C 97 % 1023,2 hPa 0,0 l/m 0,0 km/h (0 Bft) O-SO 103 0 min 0,000 mm 0,0 UV-I 0 W/m -3,0 C -2,6 C 1,6 km/h (1 Bft) 100,00 %
03.12.2016 05:56 -2,6 C 97 % 1023,2 hPa 0,0 l/m 0,1 km/h (0 Bft) O-SO 103 0 min 0,000 mm 0,0 UV-I 0 W/m -3,0 C -2,6 C 1,6 km/h (1 Bft) 100,00 %
03.12.2016 05:58 -2,6 C 97 % 1023,2 hPa 0,0 l/m 0,6 km/h (0 Bft) O-SO 103 0 min 0,000 mm 0,0 UV-I 0 W/m -3,0 C -2,6 C 3,2 km/h (1 Bft) 95,74 %
03.12.2016 06:00 -2,6 C 97 % 1023,2 hPa 0,0 l/m 0,9 km/h (0 Bft) O-SO 103 0 min 0,000 mm 0,0 UV-I 0 W/m -3,0 C -2,6 C 1,6 km/h (1 Bft) 100,00 %
03.12.2016 06:02 -2,7 C 97 % 1023,1 hPa 0,0 l/m 0,0 km/h (0 Bft) O-SO 103 0 min 0,000 mm 0,0 UV-I 0 W/m -3,1 C -2,7 C 0,0 km/h (0 Bft) 98,11 %
03.12.2016 06:04 -2,7 C 97 % 1023,1 hPa 0,0 l/m 0,0 km/h (0 Bft) O-SO 103 0 min 0,000 mm 0,0 UV-I 0 W/m -3,1 C -2,7 C 0,0 km/h (0 Bft) 97,44 %
03.12.2016 06:06 -2,7 C 97 % 1023,1 hPa 0,0 l/m 0,0 km/h (0 Bft) O-SO 103 0 min 0,000 mm 0,0 UV-I 0 W/m -3,1 C -2,7 C 0,0 km/h (0 Bft) 97,87 %
03.12.2016 06:08 -2,7 C 97 % 1023,1 hPa 0,0 l/m 0,6 km/h (0 Bft) O-SO 103 0 min 0,000 mm 0,0 UV-I 0 W/m -3,1 C -2,7 C 1,6 km/h (1 Bft) 100,00 %
03.12.2016 06:10 -2,7 C 97 % 1023,1 hPa 0,0 l/m 2,8 km/h (1 Bft) O-SO 103 0 min 0,000 mm 0,0 UV-I 0 W/m -3,1 C -2,7 C 4,8 km/h (1 Bft) 100,00 %
03.12.2016 06:12 -2,7 C 97 % 1023,2 hPa 0,0 l/m 2,7 km/h (1 Bft) O-SO 103 0 min 0,000 mm 0,0 UV-I 0 W/m -3,1 C -2,7 C 4,8 km/h (1 Bft) 100,00 %
03.12.2016 06:14 -2,7 C 97 % 1023,2 hPa 0,0 l/m 3,2 km/h (1 Bft) O-NO 67 0 min 0,000 mm 0,0 UV-I 0 W/m -3,1 C -2,7 C 6,4 km/h (2 Bft) 95,45 %
03.12.2016 06:16 -2,7 C 97 % 1023,2 hPa 0,0 l/m 4,1 km/h (1 Bft) O-NO 60 0 min 0,000 mm 0,0 UV-I 0 W/m -3,1 C -2,7 C 6,4 km/h (2 Bft) 100,00 %
03.12.2016 06:18 -2,8 C 97 % 1023,2 hPa 0,0 l/m 3,5 km/h (1 Bft) NO 42 0 min 0,000 mm 0,0 UV-I 0 W/m -3,2 C -2,8 C 6,4 km/h (2 Bft) 97,87 %
03.12.2016 06:20 -2,8 C 97 % 1023,2 hPa 0,0 l/m 5,2 km/h (1 Bft) NO 42 0 min 0,000 mm 0,0 UV-I 0 W/m -3,2 C -2,8 C 6,4 km/h (2 Bft) 97,14 %
03.12.2016 06:22 -2,8 C 97 % 1023,3 hPa 0,0 l/m 3,1 km/h (1 Bft) NO 42 0 min 0,000 mm 0,0 UV-I 0 W/m -3,2 C -2,8 C 4,8 km/h (1 Bft) 100,00 %
03.12.2016 06:24 -2,9 C 97 % 1023,3 hPa 0,0 l/m 3,5 km/h (1 Bft) NO 41 0 min 0,000 mm 0,0 UV-I 0 W/m -3,3 C -2,9 C 6,4 km/h (2 Bft) 100,00 %
03.12.2016 06:26 -2,9 C 97 % 1023,3 hPa 0,0 l/m 4,6 km/h (1 Bft) N-NO 29 0 min 0,000 mm 0,0 UV-I 0 W/m -3,3 C -2,9 C 8,0 km/h (2 Bft) 100,00 %
03.12.2016 06:28 -2,9 C 97 % 1023,3 hPa 0,0 l/m 3,4 km/h (1 Bft) N-NO 30 0 min 0,000 mm 0,0 UV-I 0 W/m -3,3 C -2,9 C 6,4 km/h (2 Bft) 97,73 %
03.12.2016 06:30 -2,9 C 97 % 1023,3 hPa 0,0 l/m 2,6 km/h (1 Bft) N-NO 29 0 min 0,000 mm 0,0 UV-I 0 W/m -3,3 C -2,9 C 4,8 km/h (1 Bft) 95,74 %
03.12.2016 06:32 -3,0 C 97 % 1023,3 hPa 0,0 l/m 2,5 km/h (1 Bft) NO 41 0 min 0,000 mm 0,0 UV-I 0 W/m -3,4 C -3,0 C 4,8 km/h (1 Bft) 97,87 %
03.12.2016 06:34 -3,0 C 97 % 1023,3 hPa 0,0 l/m 2,0 km/h (1 Bft) NO 40 0 min 0,000 mm 0,0 UV-I 0 W/m -3,4 C -3,0 C 4,8 km/h (1 Bft) 97,87 %
03.12.2016 06:36 -3,0 C 97 % 1023,3 hPa 0,0 l/m 2,2 km/h (1 Bft) NO 40 0 min 0,000 mm 0,0 UV-I 0 W/m -3,4 C -3,0 C 6,4 km/h (2 Bft) 95,12 %
03.12.2016 06:38 -3,0 C 97 % 1023,4 hPa 0,0 l/m 3,6 km/h (1 Bft) NO 40 0 min 0,000 mm 0,0 UV-I 0 W/m -3,4 C -3,0 C 6,4 km/h (2 Bft) 98,00 %
03.12.2016 06:40 -3,0 C 97 % 1023,4 hPa 0,0 l/m 1,4 km/h (1 Bft) NO 40 0 min 0,000 mm 0,0 UV-I 0 W/m -3,4 C -3,0 C 3,2 km/h (1 Bft) 97,87 %
03.12.2016 06:42 -3,0 C 97 % 1023,4 hPa 0,0 l/m 2,7 km/h (1 Bft) O-NO 74 0 min 0,000 mm 0,0 UV-I 0 W/m -3,4 C -3,0 C 6,4 km/h (2 Bft) 96,00 %
03.12.2016 06:44 -3,1 C 97 % 1023,4 hPa 0,0 l/m 4,3 km/h (1 Bft) O-NO 58 0 min 0,000 mm 0,0 UV-I 0 W/m -3,5 C -3,1 C 4,8 km/h (1 Bft) 95,45 %
03.12.2016 06:46 -3,1 C 97 % 1023,4 hPa 0,0 l/m 3,9 km/h (1 Bft) NO 55 0 min 0,000 mm 0,0 UV-I 0 W/m -3,5 C -3,1 C 4,8 km/h (1 Bft) 97,87 %
03.12.2016 06:48 -3,2 C 97 % 1023,4 hPa 0,0 l/m 3,1 km/h (1 Bft) NO 55 0 min 0,000 mm 0,0 UV-I 0 W/m -3,6 C -3,2 C 4,8 km/h (1 Bft) 95,83 %
03.12.2016 06:50 -3,2 C 96 % 1023,4 hPa 0,0 l/m 1,8 km/h (1 Bft) NO 55 0 min 0,000 mm 0,0 UV-I 0 W/m -3,7 C -3,2 C 3,2 km/h (1 Bft) 95,74 %
03.12.2016 06:52 -3,3 C 96 % 1023,5 hPa 0,0 l/m 0,8 km/h (0 Bft) NO 55 0 min 0,000 mm 0,0 UV-I 0 W/m -3,8 C -3,3 C 3,2 km/h (1 Bft) 97,56 %
03.12.2016 06:54 -3,3 C 97 % 1023,5 hPa 0,0 l/m 2,4 km/h (1 Bft) NO 55 0 min 0,000 mm 0,0 UV-I 0 W/m -3,7 C -3,3 C 3,2 km/h (1 Bft) 98,11 %
03.12.2016 06:56 -3,2 C 97 % 1023,5 hPa 0,0 l/m 4,0 km/h (1 Bft) NO 39 0 min 0,000 mm 0,0 UV-I 0 W/m -3,6 C -3,2 C 6,4 km/h (2 Bft) 98,00 %
03.12.2016 06:58 -3,2 C 97 % 1023,6 hPa 0,0 l/m 5,8 km/h (2 Bft) N-NO 24 0 min 0,000 mm 0,0 UV-I 0 W/m -3,6 C -3,2 C 8,0 km/h (2 Bft) 97,73 %
03.12.2016 07:00 -3,2 C 97 % 1023,6 hPa 0,0 l/m 3,0 km/h (1 Bft) N-NO 22 0 min 0,000 mm 0,0 UV-I 0 W/m -3,6 C -3,2 C 4,8 km/h (1 Bft) 98,00 %
03.12.2016 07:02 -3,2 C 97 % 1023,7 hPa 0,0 l/m 5,7 km/h (1 Bft) NO 37 0 min 0,000 mm 0,0 UV-I 0 W/m -3,6 C -3,2 C 8,0 km/h (2 Bft) 100,00 %
03.12.2016 07:04 -3,3 C 97 % 1023,7 hPa 0,0 l/m 1,1 km/h (1 Bft) N-NO 28 0 min 0,000 mm 0,0 UV-I 0 W/m -3,7 C -3,3 C 3,2 km/h (1 Bft) 94,74 %
03.12.2016 07:06 -3,3 C 96 % 1023,7 hPa 0,0 l/m 0,3 km/h (0 Bft) N-NO 28 0 min 0,000 mm 0,0 UV-I 0 W/m -3,8 C -3,3 C 1,6 km/h (1 Bft) 100,00 %
03.12.2016 07:08 -3,3 C 97 % 1023,6 hPa 0,0 l/m 2,0 km/h (1 Bft) N-NO 20 0 min 0,000 mm 0,0 UV-I 0 W/m -3,7 C -3,3 C 6,4 km/h (2 Bft) 100,00 %
03.12.2016 07:10 -3,3 C 97 % 1023,7 hPa 0,0 l/m 4,1 km/h (1 Bft) N-NO 22 0 min 0,000 mm 0,0 UV-I 0 W/m -3,7 C -3,3 C 6,4 km/h (2 Bft) 97,87 %
03.12.2016 07:12 -3,3 C 97 % 1023,6 hPa 0,0 l/m 2,0 km/h (1 Bft) N-NO 22 0 min 0,000 mm 0,0 UV-I 0 W/m -3,7 C -3,3 C 3,2 km/h (1 Bft) 98,00 %
03.12.2016 07:14 -3,3 C 97 % 1023,6 hPa 0,0 l/m 3,5 km/h (1 Bft) N-NO 22 0 min 0,000 mm 0,0 UV-I 0 W/m -3,7 C -3,3 C 6,4 km/h (2 Bft) 97,37 %
03.12.2016 07:16 -3,4 C 97 % 1023,6 hPa 0,0 l/m 2,3 km/h (1 Bft) N-NO 22 0 min 0,000 mm 0,0 UV-I 0 W/m -3,8 C -3,4 C 4,8 km/h (1 Bft) 96,43 %
03.12.2016 07:18 -3,4 C 97 % 1023,6 hPa 0,0 l/m 1,0 km/h (0 Bft) N-NO 22 0 min 0,000 mm 0,0 UV-I 0 W/m -3,8 C -3,4 C 6,4 km/h (2 Bft) 100,00 %
03.12.2016 07:20 -3,4 C 97 % 1023,7 hPa 0,0 l/m 1,3 km/h (1 Bft) N-NO 22 0 min 0,000 mm 0,0 UV-I 0 W/m -3,8 C -3,4 C 4,8 km/h (1 Bft) 100,00 %
03.12.2016 07:22 -3,4 C 96 % 1023,7 hPa 0,0 l/m 1,0 km/h (0 Bft) N-NO 22 0 min 0,000 mm 0,0 UV-I 0 W/m -3,9 C -3,4 C 3,2 km/h (1 Bft) 100,00 %
03.12.2016 07:24 -3,4 C 97 % 1023,7 hPa 0,0 l/m 1,3 km/h (1 Bft) N-NO 22 0 min 0,000 mm 0,0 UV-I 2 W/m -3,8 C -3,4 C 4,8 km/h (1 Bft) 100,00 %
03.12.2016 07:26 -3,4 C 96 % 1023,7 hPa 0,0 l/m 2,0 km/h (1 Bft) NO 43 0 min 0,000 mm 0,0 UV-I 5 W/m -3,9 C -3,4 C 4,8 km/h (1 Bft) 100,00 %
03.12.2016 07:28 -3,5 C 97 % 1023,8 hPa 0,0 l/m 1,5 km/h (1 Bft) NO 43 0 min 0,000 mm 0,0 UV-I 5 W/m -3,9 C -3,5 C 3,2 km/h (1 Bft) 100,00 %
03.12.2016 07:30 -3,5 C 96 % 1023,8 hPa 0,0 l/m 1,0 km/h (0 Bft) NO 51 0 min 0,000 mm 0,0 UV-I 5 W/m -4,0 C -3,5 C 3,2 km/h (1 Bft) 100,00 %
03.12.2016 07:32 -3,5 C 96 % 1023,8 hPa 0,0 l/m 2,9 km/h (1 Bft) O-NO 65 0 min 0,000 mm 0,0 UV-I 5 W/m -4,0 C -3,5 C 4,8 km/h (1 Bft) 100,00 %
03.12.2016 07:34 -3,5 C 96 % 1023,8 hPa 0,0 l/m 0,6 km/h (0 Bft) O-NO 65 0 min 0,000 mm 0,0 UV-I 5 W/m -4,0 C -3,5 C 3,2 km/h (1 Bft) 100,00 %
03.12.2016 07:36 -3,4 C 97 % 1023,9 hPa 0,0 l/m 3,1 km/h (1 Bft) NO 53 0 min 0,000 mm 0,0 UV-I 6 W/m -3,8 C -3,4 C 4,8 km/h (1 Bft) 100,00 %
03.12.2016 07:38 -3,4 C 97 % 1023,9 hPa 0,0 l/m 3,2 km/h (1 Bft) NO 53 0 min 0,000 mm 0,0 UV-I 7 W/m -3,8 C -3,4 C 4,8 km/h (1 Bft) 100,00 %
03.12.2016 07:40 -3,4 C 96 % 1023,9 hPa 0,0 l/m 4,1 km/h (1 Bft) O-NO 74 0 min 0,000 mm 0,0 UV-I 7 W/m -3,9 C -3,4 C 4,8 km/h (1 Bft) 100,00 %
03.12.2016 07:42 -3,5 C 96 % 1023,9 hPa 0,0 l/m 3,5 km/h (1 Bft) O-NO 59 0 min 0,000 mm 0,0 UV-I 7 W/m -4,0 C -3,5 C 4,8 km/h (1 Bft) 100,00 %
03.12.2016 07:44 -3,5 C 96 % 1023,9 hPa 0,0 l/m 2,7 km/h (1 Bft) NO 55 0 min 0,000 mm 0,0 UV-I 8 W/m -4,0 C -3,5 C 4,8 km/h (1 Bft) 98,00 %
03.12.2016 07:46 -3,5 C 96 % 1023,9 hPa 0,0 l/m 2,6 km/h (1 Bft) NO 55 0 min 0,000 mm 0,0 UV-I 9 W/m -4,0 C -3,5 C 4,8 km/h (1 Bft) 100,00 %
03.12.2016 07:48 -3,4 C 96 % 1023,9 hPa 0,0 l/m 4,2 km/h (1 Bft) O-NO 71 2 min 0,000 mm 0,0 UV-I 11 W/m -3,9 C -3,4 C 6,4 km/h (2 Bft) 100,00 %
03.12.2016 07:50 -3,5 C 96 % 1024,0 hPa 0,0 l/m 4,5 km/h (1 Bft) O-NO 72 0 min 0,000 mm 0,0 UV-I 11 W/m -4,0 C -3,5 C 6,4 km/h (2 Bft) 97,87 %
03.12.2016 07:52 -3,6 C 96 % 1023,9 hPa 0,0 l/m 4,5 km/h (1 Bft) O-NO 67 0 min 0,000 mm 0,0 UV-I 12 W/m -4,1 C -3,6 C 6,4 km/h (2 Bft) 100,00 %
03.12.2016 07:54 -3,6 C 96 % 1024,0 hPa 0,0 l/m 4,6 km/h (1 Bft) O-NO 62 0 min 0,000 mm 0,0 UV-I 12 W/m -4,1 C -3,6 C 6,4 km/h (2 Bft) 98,11 %
03.12.2016 07:56 -3,7 C 96 % 1024,0 hPa 0,0 l/m 5,1 km/h (1 Bft) O-NO 58 0 min 0,000 mm 0,0 UV-I 14 W/m -4,2 C -3,7 C 6,4 km/h (2 Bft) 100,00 %
03.12.2016 07:58 -3,7 C 96 % 1024,1 hPa 0,0 l/m 2,7 km/h (1 Bft) O-NO 63 0 min 0,000 mm 0,0 UV-I 14 W/m -4,2 C -3,7 C 3,2 km/h (1 Bft) 100,00 %
03.12.2016 08:00 -3,7 C 96 % 1024,1 hPa 0,0 l/m 2,1 km/h (1 Bft) O-NO 63 0 min 0,000 mm 0,0 UV-I 14 W/m -4,2 C -3,7 C 3,2 km/h (1 Bft) 97,92 %
03.12.2016 08:02 -3,7 C 96 % 1024,1 hPa 0,0 l/m 2,1 km/h (1 Bft) O-NO 63 0 min 0,000 mm 0,0 UV-I 14 W/m -4,2 C -3,7 C 4,8 km/h (1 Bft) 100,00 %
03.12.2016 08:04 -3,8 C 96 % 1024,1 hPa 0,0 l/m 3,8 km/h (1 Bft) O-NO 63 0 min 0,000 mm 0,0 UV-I 16 W/m -4,3 C -3,8 C 6,4 km/h (2 Bft) 100,00 %
03.12.2016 08:06 -3,8 C 96 % 1024,1 hPa 0,0 l/m 4,0 km/h (1 Bft) O-NO 62 0 min 0,000 mm 0,0 UV-I 19 W/m -4,3 C -3,8 C 6,4 km/h (2 Bft) 100,00 %
03.12.2016 08:08 -3,8 C 96 % 1024,1 hPa 0,0 l/m 2,4 km/h (1 Bft) O-NO 62 0 min 0,000 mm 0,0 UV-I 20 W/m -4,3 C -3,8 C 4,8 km/h (1 Bft) 98,00 %
03.12.2016 08:10 -3,8 C 96 % 1024,1 hPa 0,0 l/m 0,5 km/h (0 Bft) O-NO 62 0 min 0,000 mm 0,0 UV-I 20 W/m -4,3 C -3,8 C 3,2 km/h (1 Bft) 97,44 %
03.12.2016 08:12 -3,8 C 97 % 1024,1 hPa 0,0 l/m 0,4 km/h (0 Bft) O-NO 62 0 min 0,000 mm 0,0 UV-I 19 W/m -4,2 C -3,8 C 1,6 km/h (1 Bft) 100,00 %
03.12.2016 08:14 -3,7 C 96 % 1024,2 hPa 0,0 l/m 1,6 km/h (1 Bft) O-NO 62 0 min 0,000 mm 0,0 UV-I 21 W/m -4,2 C -3,7 C 3,2 km/h (1 Bft) 98,00 %
03.12.2016 08:16 -3,7 C 97 % 1024,2 hPa 0,0 l/m 3,0 km/h (1 Bft) O-NO 62 0 min 0,000 mm 0,0 UV-I 26 W/m -4,1 C -3,7 C 4,8 km/h (1 Bft) 100,00 %
03.12.2016 08:18 -3,7 C 97 % 1024,2 hPa 0,0 l/m 1,9 km/h (1 Bft) O-NO 62 0 min 0,000 mm 0,0 UV-I 29 W/m -4,1 C -3,7 C 4,8 km/h (1 Bft) 100,00 %
03.12.2016 08:20 -3,6 C 97 % 1024,2 hPa 0,0 l/m 1,8 km/h (1 Bft) O-NO 64 0 min 0,000 mm 0,0 UV-I 33 W/m -4,0 C -3,6 C 3,2 km/h (1 Bft) 100,00 %
03.12.2016 08:22 -3,6 C 97 % 1024,2 hPa 0,0 l/m 2,9 km/h (1 Bft) O 98 0 min 0,000 mm 0,0 UV-I 29 W/m -4,0 C -3,6 C 6,4 km/h (2 Bft) 100,00 %
03.12.2016 08:24 -3,6 C 97 % 1024,2 hPa 0,0 l/m 2,9 km/h (1 Bft) O 99 0 min 0,000 mm 0,0 UV-I 29 W/m -4,0 C -3,6 C 4,8 km/h (1 Bft) 100,00 %
03.12.2016 08:26 -3,6 C 96 % 1024,2 hPa 0,0 l/m 2,7 km/h (1 Bft) O 92 0 min 0,000 mm 0,0 UV-I 35 W/m -4,1 C -3,6 C 4,8 km/h (1 Bft) 100,00 %
03.12.2016 08:28 -3,6 C 96 % 1024,3 hPa 0,0 l/m 4,8 km/h (1 Bft) O-NO 74 0 min 0,000 mm 0,0 UV-I 36 W/m -4,1 C -3,6 C 6,4 km/h (2 Bft) 100,00 %
03.12.2016 08:30 -3,7 C 96 % 1024,3 hPa 0,0 l/m 6,4 km/h (2 Bft) O-NO 69 0 min 0,000 mm 0,0 UV-I 32 W/m -4,2 C -3,6 C 8,0 km/h (2 Bft) 98,00 %
03.12.2016 08:32 -3,7 C 96 % 1024,4 hPa 0,0 l/m 4,9 km/h (1 Bft) O-NO 71 0 min 0,000 mm 0,0 UV-I 34 W/m -4,2 C -3,7 C 8,0 km/h (2 Bft) 100,00 %
03.12.2016 08:34 -3,7 C 96 % 1024,4 hPa 0,0 l/m 3,4 km/h (1 Bft) O-NO 67 0 min 0,000 mm 0,0 UV-I 33 W/m -4,2 C -3,7 C 4,8 km/h (1 Bft) 95,74 %
03.12.2016 08:36 -3,6 C 96 % 1024,4 hPa 0,0 l/m 6,0 km/h (2 Bft) O-NO 59 0 min 0,000 mm 0,0 UV-I 30 W/m -4,1 C -3,6 C 8,0 km/h (2 Bft) 97,87 %
03.12.2016 08:38 -3,6 C 96 % 1024,3 hPa 0,0 l/m 6,6 km/h (2 Bft) NO 55 0 min 0,000 mm 0,0 UV-I 31 W/m -4,1 C -3,8 C 8,0 km/h (2 Bft) 98,11 %
03.12.2016 08:40 -3,6 C 96 % 1024,3 hPa 0,0 l/m 6,9 km/h (2 Bft) O-NO 66 0 min 0,000 mm 0,0 UV-I 33 W/m -4,1 C -4,2 C 8,0 km/h (2 Bft) 97,56 %
03.12.2016 08:42 -3,6 C 96 % 1024,3 hPa 0,0 l/m 6,1 km/h (2 Bft) O-NO 58 0 min 0,000 mm 0,0 UV-I 34 W/m -4,1 C -3,6 C 8,0 km/h (2 Bft) 98,00 %
03.12.2016 08:44 -3,7 C 96 % 1024,3 hPa 0,0 l/m 6,7 km/h (2 Bft) O-NO 58 0 min 0,000 mm 0,0 UV-I 30 W/m -4,2 C -4,0 C 9,7 km/h (2 Bft) 97,87 %
03.12.2016 08:46 -3,6 C 96 % 1024,3 hPa 0,0 l/m 5,7 km/h (1 Bft) NO 54 0 min 0,000 mm 0,0 UV-I 39 W/m -4,1 C -3,6 C 8,0 km/h (2 Bft) 97,44 %
03.12.2016 08:48 -3,6 C 96 % 1024,3 hPa 0,0 l/m 6,1 km/h (2 Bft) O-NO 58 0 min 0,000 mm 0,0 UV-I 43 W/m -4,1 C -3,6 C 8,0 km/h (2 Bft) 98,11 %
03.12.2016 08:50 -3,6 C 96 % 1024,4 hPa 0,0 l/m 5,6 km/h (1 Bft) O-NO 64 0 min 0,000 mm 0,0 UV-I 42 W/m -4,1 C -3,6 C 6,4 km/h (2 Bft) 96,00 %
03.12.2016 08:52 -3,6 C 96 % 1024,3 hPa 0,0 l/m 4,6 km/h (1 Bft) NO 55 0 min 0,000 mm 0,0 UV-I 39 W/m -4,1 C -3,6 C 6,4 km/h (2 Bft) 97,37 %
03.12.2016 08:54 -3,6 C 97 % 1024,3 hPa 0,0 l/m 4,7 km/h (1 Bft) O-NO 60 0 min 0,000 mm 0,0 UV-I 44 W/m -4,0 C -3,6 C 8,0 km/h (2 Bft) 98,31 %
03.12.2016 08:56 -3,5 C 97 % 1024,4 hPa 0,0 l/m 3,8 km/h (1 Bft) NO 54 0 min 0,000 mm 0,0 UV-I 58 W/m -3,9 C -3,5 C 4,8 km/h (1 Bft) 97,37 %
03.12.2016 08:58 -3,4 C 97 % 1024,4 hPa 0,0 l/m 3,6 km/h (1 Bft) O-NO 68 0 min 0,000 mm 0,0 UV-I 63 W/m -3,8 C -3,4 C 4,8 km/h (1 Bft) 98,00 %
03.12.2016 09:00 -3,4 C 97 % 1024,4 hPa 0,0 l/m 4,6 km/h (1 Bft) O 85 0 min 0,000 mm 0,0 UV-I 72 W/m -3,8 C -3,4 C 6,4 km/h (2 Bft) 95,74 %
03.12.2016 09:02 -3,3 C 97 % 1024,4 hPa 0,0 l/m 3,8 km/h (1 Bft) O-NO 74 0 min 0,000 mm 0,0 UV-I 78 W/m -3,7 C -3,3 C 6,4 km/h (2 Bft) 98,11 %
03.12.2016 09:04 -3,3 C 97 % 1024,4 hPa 0,0 l/m 5,5 km/h (1 Bft) O 80 0 min 0,000 mm 0,0 UV-I 93 W/m -3,7 C -3,3 C 8,0 km/h (2 Bft) 100,00 %
03.12.2016 09:06 -3,3 C 97 % 1024,4 hPa 0,0 l/m 5,7 km/h (1 Bft) O 80 2 min 0,000 mm 0,0 UV-I 104 W/m -3,7 C -3,3 C 8,0 km/h (2 Bft) 100,00 %
03.12.2016 09:08 -3,3 C 97 % 1024,4 hPa 0,0 l/m 7,0 km/h (2 Bft) O-NO 71 0 min 0,000 mm 0,0 UV-I 85 W/m -3,7 C -4,0 C 9,7 km/h (2 Bft) 97,73 %
03.12.2016 09:10 -3,4 C 97 % 1024,4 hPa 0,0 l/m 5,9 km/h (2 Bft) O 84 0 min 0,000 mm 0,0 UV-I 81 W/m -3,8 C -3,4 C 11,3 km/h (2 Bft) 100,00 %
03.12.2016 09:12 -3,4 C 97 % 1024,4 hPa 0,0 l/m 5,7 km/h (1 Bft) O-NO 74 0 min 0,000 mm 0,0 UV-I 89 W/m -3,8 C -3,4 C 8,0 km/h (2 Bft) 100,00 %
03.12.2016 09:14 -3,5 C 97 % 1024,6 hPa 0,0 l/m 5,8 km/h (2 Bft) NO 56 0 min 0,000 mm 0,0 UV-I 85 W/m -3,9 C -3,5 C 8,0 km/h (2 Bft) 95,74 %
03.12.2016 09:16 -3,5 C 96 % 1024,6 hPa 0,0 l/m 6,1 km/h (2 Bft) O-NO 58 0 min 0,000 mm 0,0 UV-I 67 W/m -4,0 C -3,5 C 8,0 km/h (2 Bft) 100,00 %
03.12.2016 09:18 -3,6 C 96 % 1024,6 hPa 0,0 l/m 5,7 km/h (1 Bft) NO 54 0 min 0,000 mm 0,0 UV-I 63 W/m -4,1 C -3,6 C 8,0 km/h (2 Bft) 100,00 %
03.12.2016 09:20 -3,6 C 96 % 1024,6 hPa 0,0 l/m 5,5 km/h (1 Bft) NO 46 0 min 0,000 mm 0,0 UV-I 83 W/m -4,1 C -3,6 C 8,0 km/h (2 Bft) 100,00 %
03.12.2016 09:22 -3,6 C 96 % 1024,7 hPa 0,0 l/m 7,1 km/h (2 Bft) O-NO 61 0 min 0,000 mm 0,0 UV-I 58 W/m -4,1 C -4,4 C 9,7 km/h (2 Bft) 98,11 %
03.12.2016 09:24 -3,6 C 96 % 1024,7 hPa 0,0 l/m 6,1 km/h (2 Bft) O-NO 59 0 min 0,000 mm 0,0 UV-I 55 W/m -4,1 C -3,6 C 9,7 km/h (2 Bft) 100,00 %
03.12.2016 09:26 -3,6 C 96 % 1024,7 hPa 0,0 l/m 7,0 km/h (2 Bft) O-NO 67 0 min 0,000 mm 0,0 UV-I 81 W/m -4,1 C -4,3 C 9,7 km/h (2 Bft) 100,00 %
03.12.2016 09:28 -3,7 C 96 % 1024,7 hPa 0,0 l/m 5,6 km/h (1 Bft) O-NO 69 0 min 0,000 mm 0,0 UV-I 115 W/m -4,2 C -3,7 C 8,0 km/h (2 Bft) 100,00 %
03.12.2016 09:30 -3,6 C 96 % 1024,8 hPa 0,0 l/m 4,2 km/h (1 Bft) O-NO 75 2 min 0,000 mm 0,0 UV-I 130 W/m -4,1 C -3,6 C 6,4 km/h (2 Bft) 100,00 %
03.12.2016 09:32 -3,6 C 96 % 1024,8 hPa 0,0 l/m 6,4 km/h (2 Bft) NO 56 0 min 0,000 mm 0,0 UV-I 80 W/m -4,1 C -3,5 C 8,0 km/h (2 Bft) 98,21 %
03.12.2016 09:34 -3,6 C 96 % 1024,8 hPa 0,0 l/m 6,4 km/h (2 Bft) NO 54 0 min 0,000 mm 0,0 UV-I 53 W/m -4,1 C -3,5 C 9,7 km/h (2 Bft) 97,37 %
03.12.2016 09:36 -3,7 C 96 % 1024,8 hPa 0,0 l/m 5,4 km/h (1 Bft) O-NO 61 0 min 0,000 mm 0,0 UV-I 80 W/m -4,2 C -3,7 C 8,0 km/h (2 Bft) 100,00 %
03.12.2016 09:38 -3,6 C 96 % 1024,8 hPa 0,0 l/m 5,0 km/h (1 Bft) O-NO 75 0 min 0,000 mm 0,0 UV-I 122 W/m -4,1 C -3,6 C 8,0 km/h (2 Bft) 100,00 %
03.12.2016 09:40 -3,6 C 96 % 1024,9 hPa 0,0 l/m 6,7 km/h (2 Bft) O-NO 64 2 min 0,000 mm 0,0 UV-I 142 W/m -4,1 C -3,9 C 9,7 km/h (2 Bft) 100,00 %
03.12.2016 09:42 -3,7 C 96 % 1024,9 hPa 0,0 l/m 6,1 km/h (2 Bft) O-NO 68 0 min 0,000 mm 0,0 UV-I 72 W/m -4,2 C -3,7 C 9,7 km/h (2 Bft) 100,00 %
03.12.2016 09:44 -3,7 C 96 % 1024,9 hPa 0,0 l/m 7,6 km/h (2 Bft) O-NO 70 0 min 0,000 mm 0,0 UV-I 86 W/m -4,2 C -5,1 C 9,7 km/h (2 Bft) 100,00 %
03.12.2016 09:46 -3,7 C 96 % 1025,1 hPa 0,0 l/m 7,0 km/h (2 Bft) O-NO 74 0 min 0,000 mm 0,0 UV-I 107 W/m -4,2 C -4,4 C 11,3 km/h (2 Bft) 100,00 %
03.12.2016 09:48 -3,7 C 96 % 1025,1 hPa 0,0 l/m 7,3 km/h (2 Bft) O-NO 71 0 min 0,000 mm 0,0 UV-I 110 W/m -4,2 C -4,7 C 11,3 km/h (2 Bft) 100,00 %
03.12.2016 09:50 -3,7 C 96 % 1025,1 hPa 0,0 l/m 6,8 km/h (2 Bft) O-NO 66 0 min 0,000 mm 0,0 UV-I 97 W/m -4,2 C -4,1 C 11,3 km/h (2 Bft) 100,00 %
03.12.2016 09:52 -3,6 C 97 % 1025,2 hPa 0,0 l/m 5,4 km/h (1 Bft) O-NO 67 0 min 0,000 mm 0,0 UV-I 101 W/m -4,0 C -3,6 C 8,0 km/h (2 Bft) 100,00 %
03.12.2016 09:54 -3,6 C 97 % 1025,2 hPa 0,0 l/m 4,4 km/h (1 Bft) O-NO 78 0 min 0,000 mm 0,0 UV-I 121 W/m -4,0 C -3,6 C 8,0 km/h (2 Bft) 100,00 %
03.12.2016 09:56 -3,5 C 97 % 1025,3 hPa 0,0 l/m 6,7 km/h (2 Bft) O-NO 63 0 min 0,000 mm 0,0 UV-I 113 W/m -3,9 C -3,8 C 8,0 km/h (2 Bft) 100,00 %
03.12.2016 09:58 -3,5 C 97 % 1025,2 hPa 0,0 l/m 6,5 km/h (2 Bft) O-NO 69 0 min 0,000 mm 0,0 UV-I 122 W/m -3,9 C -3,6 C 9,7 km/h (2 Bft) 100,00 %
03.12.2016 10:00 -3,5 C 96 % 1025,3 hPa 0,0 l/m 7,3 km/h (2 Bft) O-NO 58 2 min 0,025 mm 0,0 UV-I 164 W/m -4,0 C -4,5 C 12,9 km/h (3 Bft) 100,00 %
03.12.2016 10:02 -3,4 C 97 % 1025,3 hPa 0,0 l/m 6,0 km/h (2 Bft) O-NO 71 2 min 0,000 mm 0,0 UV-I 224 W/m -3,8 C -3,4 C 8,0 km/h (2 Bft) 100,00 %
03.12.2016 10:04 -3,3 C 97 % 1025,3 hPa 0,0 l/m 5,7 km/h (1 Bft) NO 50 2 min 0,000 mm 0,0 UV-I 218 W/m -3,7 C -3,3 C 8,0 km/h (2 Bft) 100,00 %
03.12.2016 10:06 -3,3 C 97 % 1025,3 hPa 0,0 l/m 3,5 km/h (1 Bft) O-NO 67 2 min 0,000 mm 0,0 UV-I 176 W/m -3,7 C -3,3 C 6,4 km/h (2 Bft) 97,96 %
03.12.2016 10:08 -3,3 C 97 % 1025,3 hPa 0,0 l/m 4,6 km/h (1 Bft) O-NO 61 0 min 0,000 mm 0,0 UV-I 128 W/m -3,7 C -3,3 C 8,0 km/h (2 Bft) 100,00 %
03.12.2016 10:10 -3,3 C 97 % 1025,3 hPa 0,0 l/m 6,0 km/h (2 Bft) O-NO 71 2 min 0,000 mm 0,0 UV-I 200 W/m -3,7 C -3,3 C 8,0 km/h (2 Bft) 100,00 %
03.12.2016 10:13 -3,4 C 97 % 1025,4 hPa 0,0 l/m 5,2 km/h (1 Bft) O-NO 60 0 min 0,000 mm 0,0 UV-I 138 W/m -3,8 C -3,4 C 8,0 km/h (2 Bft) 100,00 %
03.12.2016 10:14 -3,4 C 97 % 1025,4 hPa 0,0 l/m 8,0 km/h (2 Bft) NO 42 0 min 0,000 mm 0,0 UV-I 111 W/m -3,8 C -5,2 C 9,7 km/h (2 Bft) 100,00 %
03.12.2016 10:16 -3,3 C 97 % 1025,5 hPa 0,0 l/m 6,7 km/h (2 Bft) NO 44 0 min 0,000 mm 0,0 UV-I 96 W/m -3,7 C -3,6 C 8,0 km/h (2 Bft) 100,00 %
03.12.2016 10:18 -3,3 C 97 % 1025,5 hPa 0,0 l/m 5,0 km/h (1 Bft) O-NO 69 0 min 0,000 mm 0,0 UV-I 132 W/m -3,7 C -3,3 C 8,0 km/h (2 Bft) 100,00 %
03.12.2016 10:20 -3,3 C 97 % 1025,5 hPa 0,0 l/m 5,4 km/h (1 Bft) O-NO 65 0 min 0,000 mm 0,1 UV-I 141 W/m -3,7 C -3,3 C 8,0 km/h (2 Bft) 97,37 %
03.12.2016 10:22 -3,3 C 97 % 1025,5 hPa 0,0 l/m 6,3 km/h (2 Bft) NO 53 2 min 0,000 mm 0,5 UV-I 209 W/m -3,7 C -3,3 C 9,7 km/h (2 Bft) 100,00 %
03.12.2016 10:24 -3,3 C 97 % 1025,5 hPa 0,0 l/m 6,9 km/h (2 Bft) O-NO 62 2 min 0,000 mm 0,3 UV-I 259 W/m -3,7 C -3,9 C 12,9 km/h (3 Bft) 94,74 %
03.12.2016 10:26 -3,2 C 97 % 1025,5 hPa 0,0 l/m 7,2 km/h (2 Bft) O-NO 58 2 min 0,000 mm 0,5 UV-I 221 W/m -3,6 C -4,1 C 9,7 km/h (2 Bft) 100,00 %
03.12.2016 10:28 -3,2 C 97 % 1025,5 hPa 0,0 l/m 8,8 km/h (2 Bft) O-NO 67 2 min 0,000 mm 0,5 UV-I 174 W/m -3,6 C -5,8 C 12,9 km/h (3 Bft) 92,68 %
03.12.2016 10:30 -3,3 C 97 % 1025,5 hPa 0,0 l/m 9,8 km/h (2 Bft) O-NO 57 0 min 0,000 mm 0,5 UV-I 144 W/m -3,7 C -6,9 C 14,5 km/h (3 Bft) 97,37 %
03.12.2016 10:32 -3,2 C 97 % 1025,4 hPa 0,0 l/m 9,3 km/h (2 Bft) O-NO 71 2 min 0,000 mm 0,5 UV-I 214 W/m -3,6 C -6,3 C 12,9 km/h (3 Bft) 95,16 %
03.12.2016 10:34 -3,2 C 97 % 1025,4 hPa 0,0 l/m 7,6 km/h (2 Bft) O-NO 59 2 min 0,000 mm 0,5 UV-I 255 W/m -3,6 C -4,6 C 11,3 km/h (2 Bft) 92,68 %
03.12.2016 10:36 -3,2 C 97 % 1025,4 hPa 0,0 l/m 8,2 km/h (2 Bft) O-NO 67 2 min 0,000 mm 0,5 UV-I 218 W/m -3,6 C -5,2 C 11,3 km/h (2 Bft) 96,23 %
03.12.2016 10:38 -3,2 C 97 % 1025,4 hPa 0,0 l/m 6,6 km/h (2 Bft) O-NO 63 0 min 0,000 mm 0,5 UV-I 162 W/m -3,6 C -3,4 C 9,7 km/h (2 Bft) 97,73 %
03.12.2016 10:40 -3,2 C 97 % 1025,5 hPa 0,0 l/m 7,7 km/h (2 Bft) O-NO 61 0 min 0,000 mm 0,5 UV-I 134 W/m -3,6 C -4,7 C 14,5 km/h (3 Bft) 97,56 %
03.12.2016 10:42 -3,2 C 97 % 1025,4 hPa 0,0 l/m 9,3 km/h (2 Bft) O-NO 76 0 min 0,000 mm 0,3 UV-I 122 W/m -3,6 C -6,3 C 14,5 km/h (3 Bft) 96,00 %
03.12.2016 10:44 -3,2 C 97 % 1025,4 hPa 0,0 l/m 7,1 km/h (2 Bft) O-NO 68 0 min 0,000 mm 0,4 UV-I 117 W/m -3,6 C -4,0 C 11,3 km/h (2 Bft) 97,62 %
03.12.2016 10:46 -3,1 C 97 % 1025,4 hPa 0,0 l/m 9,7 km/h (2 Bft) O-NO 66 0 min 0,000 mm 0,0 UV-I 122 W/m -3,5 C -6,6 C 12,9 km/h (3 Bft) 96,00 %
03.12.2016 10:49 -3,1 C 97 % 1025,4 hPa 0,0 l/m 8,2 km/h (2 Bft) O-NO 59 0 min 0,000 mm 0,0 UV-I 127 W/m -3,5 C -5,1 C 12,9 km/h (3 Bft) 97,14 %
03.12.2016 10:50 -3,1 C 97 % 1025,4 hPa 0,0 l/m 6,9 km/h (2 Bft) O-NO 65 0 min 0,000 mm 0,0 UV-I 130 W/m -3,5 C -3,7 C 9,7 km/h (2 Bft) 96,30 %
03.12.2016 10:52 -3,1 C 97 % 1025,4 hPa 0,0 l/m 7,3 km/h (2 Bft) NO 53 0 min 0,000 mm 0,0 UV-I 124 W/m -3,5 C -4,1 C 9,7 km/h (2 Bft) 97,56 %
03.12.2016 10:54 -3,0 C 97 % 1025,4 hPa 0,0 l/m 7,0 km/h (2 Bft) O 83 0 min 0,000 mm 0,3 UV-I 145 W/m -3,4 C -3,7 C 9,7 km/h (2 Bft) 95,45 %
03.12.2016 10:56 -3,1 C 97 % 1025,4 hPa 0,0 l/m 6,1 km/h (2 Bft) O-NO 71 0 min 0,000 mm 0,5 UV-I 163 W/m -3,5 C -3,1 C 8,0 km/h (2 Bft) 94,34 %
03.12.2016 10:58 -3,1 C 97 % 1025,3 hPa 0,0 l/m 6,6 km/h (2 Bft) O-NO 74 0 min 0,000 mm 0,5 UV-I 124 W/m -3,5 C -3,3 C 11,3 km/h (2 Bft) 98,00 %
03.12.2016 11:00 -3,1 C 97 % 1025,3 hPa 0,0 l/m 4,6 km/h (1 Bft) O-NO 59 0 min 0,000 mm 0,5 UV-I 132 W/m -3,5 C -3,1 C 6,4 km/h (2 Bft) 98,00 %
03.12.2016 11:02 -3,0 C 97 % 1025,3 hPa 0,0 l/m 5,2 km/h (1 Bft) O-NO 70 0 min 0,051 mm 0,5 UV-I 156 W/m -3,4 C -3,0 C 8,0 km/h (2 Bft) 100,00 %
03.12.2016 11:04 -2,9 C 97 % 1025,3 hPa 0,0 l/m 5,2 km/h (1 Bft) O 80 2 min 0,000 mm 0,5 UV-I 183 W/m -3,3 C -2,9 C 6,4 km/h (2 Bft) 100,00 %
03.12.2016 11:06 -2,8 C 97 % 1025,4 hPa 0,0 l/m 4,8 km/h (1 Bft) O-NO 68 0 min 0,000 mm 0,6 UV-I 140 W/m -3,2 C -2,8 C 6,4 km/h (2 Bft) 100,00 %
03.12.2016 11:08 -2,8 C 97 % 1025,4 hPa 0,0 l/m 5,4 km/h (1 Bft) O-NO 77 0 min 0,000 mm 0,5 UV-I 119 W/m -3,2 C -2,8 C 8,0 km/h (2 Bft) 97,56 %
03.12.2016 11:10 -2,8 C 97 % 1025,4 hPa 0,0 l/m 6,3 km/h (2 Bft) O-NO 58 0 min 0,000 mm 0,6 UV-I 134 W/m -3,2 C -2,8 C 9,7 km/h (2 Bft) 98,11 %
03.12.2016 11:12 -2,8 C 97 % 1025,3 hPa 0,0 l/m 6,7 km/h (2 Bft) O-NO 57 2 min 0,000 mm 0,6 UV-I 275 W/m -3,2 C -3,1 C 8,0 km/h (2 Bft) 100,00 %
03.12.2016 11:14 -2,7 C 97 % 1025,3 hPa 0,0 l/m 5,3 km/h (1 Bft) NO 55 0 min 0,000 mm 0,6 UV-I 174 W/m -3,1 C -2,7 C 8,0 km/h (2 Bft) 98,00 %
03.12.2016 11:16 -2,7 C 97 % 1025,2 hPa 0,0 l/m 7,5 km/h (2 Bft) O-NO 66 2 min 0,000 mm 0,6 UV-I 213 W/m -3,1 C -3,9 C 9,7 km/h (2 Bft) 95,74 %
03.12.2016 11:18 -2,7 C 97 % 1025,2 hPa 0,0 l/m 7,1 km/h (2 Bft) O-NO 59 0 min 0,000 mm 0,6 UV-I 151 W/m -3,1 C -3,5 C 8,0 km/h (2 Bft) 100,00 %
03.12.2016 11:20 -2,6 C 97 % 1025,3 hPa 0,0 l/m 6,4 km/h (2 Bft) O-NO 57 2 min 0,000 mm 0,6 UV-I 196 W/m -3,0 C -2,6 C 8,0 km/h (2 Bft) 98,00 %
03.12.2016 11:22 -2,5 C 97 % 1025,3 hPa 0,0 l/m 5,3 km/h (1 Bft) O-NO 58 2 min 0,000 mm 0,7 UV-I 214 W/m -2,9 C -2,5 C 8,0 km/h (2 Bft) 100,00 %
03.12.2016 11:24 -2,4 C 97 % 1025,2 hPa 0,0 l/m 5,9 km/h (2 Bft) NO 56 2 min 0,000 mm 0,7 UV-I 304 W/m -2,8 C -2,4 C 8,0 km/h (2 Bft) 94,23 %
03.12.2016 11:26 -2,4 C 97 % 1025,2 hPa 0,0 l/m 5,3 km/h (1 Bft) NO 53 2 min 0,000 mm 0,7 UV-I 356 W/m -2,8 C -2,4 C 8,0 km/h (2 Bft) 96,00 %
03.12.2016 11:28 -2,4 C 97 % 1025,2 hPa 0,0 l/m 5,5 km/h (1 Bft) O-NO 65 2 min 0,000 mm 0,7 UV-I 344 W/m -2,8 C -2,4 C 8,0 km/h (2 Bft) 100,00 %
03.12.2016 11:30 -2,4 C 97 % 1025,2 hPa 0,0 l/m 4,5 km/h (1 Bft) NO 55 2 min 0,000 mm 0,7 UV-I 345 W/m -2,8 C -2,4 C 6,4 km/h (2 Bft) 100,00 %
03.12.2016 11:32 -2,2 C 97 % 1025,1 hPa 0,0 l/m 3,9 km/h (1 Bft) O-NO 66 2 min 0,000 mm 0,7 UV-I 339 W/m -2,6 C -2,2 C 6,4 km/h (2 Bft) 98,00 %
03.12.2016 11:34 -2,2 C 97 % 1025,1 hPa 0,0 l/m 5,2 km/h (1 Bft) NO 55 2 min 0,000 mm 0,7 UV-I 342 W/m -2,6 C -2,2 C 8,0 km/h (2 Bft) 97,37 %
03.12.2016 11:36 -2,1 C 97 % 1025,1 hPa 0,0 l/m 5,3 km/h (1 Bft) NO 46 2 min 0,000 mm 0,7 UV-I 345 W/m -2,5 C -2,1 C 8,0 km/h (2 Bft) 100,00 %
03.12.2016 11:38 -2,0 C 97 % 1025,1 hPa 0,0 l/m 5,8 km/h (2 Bft) O-NO 65 2 min 0,000 mm 0,7 UV-I 346 W/m -2,4 C -2,0 C 8,0 km/h (2 Bft) 100,00 %
03.12.2016 11:40 -2,0 C 97 % 1025,1 hPa 0,0 l/m 5,3 km/h (1 Bft) O-NO 69 2 min 0,000 mm 0,7 UV-I 346 W/m -2,4 C -2,0 C 8,0 km/h (2 Bft) 100,00 %
03.12.2016 11:42 -2,0 C 97 % 1025,0 hPa 0,0 l/m 5,4 km/h (1 Bft) O-NO 66 2 min 0,000 mm 0,7 UV-I 347 W/m -2,4 C -2,0 C 8,0 km/h (2 Bft) 100,00 %
03.12.2016 11:44 -1,9 C 97 % 1025,0 hPa 0,0 l/m 7,5 km/h (2 Bft) O 84 2 min 0,000 mm 0,7 UV-I 347 W/m -2,3 C -3,1 C 11,3 km/h (2 Bft) 100,00 %
03.12.2016 11:46 -1,8 C 97 % 1025,0 hPa 0,0 l/m 5,3 km/h (1 Bft) O-NO 73 2 min 0,000 mm 0,7 UV-I 349 W/m -2,2 C -1,8 C 8,0 km/h (2 Bft) 97,87 %
03.12.2016 11:48 -1,9 C 97 % 1025,0 hPa 0,0 l/m 7,3 km/h (2 Bft) O 82 2 min 0,000 mm 0,7 UV-I 349 W/m -2,3 C -2,9 C 11,3 km/h (2 Bft) 100,00 %
03.12.2016 11:50 -1,9 C 97 % 1024,9 hPa 0,0 l/m 8,4 km/h (2 Bft) O-NO 67 2 min 0,000 mm 0,7 UV-I 351 W/m -2,3 C -4,0 C 12,9 km/h (3 Bft) 100,00 %
03.12.2016 11:52 -1,8 C 97 % 1025,0 hPa 0,0 l/m 6,2 km/h (2 Bft) O-NO 58 2 min 0,000 mm 0,7 UV-I 352 W/m -2,2 C -1,8 C 9,7 km/h (2 Bft) 93,62 %
03.12.2016 11:54 -1,8 C 97 % 1025,0 hPa 0,0 l/m 8,6 km/h (2 Bft) O-NO 59 2 min 0,000 mm 0,7 UV-I 349 W/m -2,2 C -4,1 C 12,9 km/h (3 Bft) 100,00 %
03.12.2016 11:56 -1,8 C 97 % 1025,0 hPa 0,0 l/m 7,4 km/h (2 Bft) NO 49 2 min 0,000 mm 0,7 UV-I 350 W/m -2,2 C -2,9 C 11,3 km/h (2 Bft) 100,00 %
03.12.2016 11:58 -1,8 C 97 % 1024,9 hPa 0,0 l/m 7,6 km/h (2 Bft) NO 53 2 min 0,000 mm 0,7 UV-I 344 W/m -2,2 C -3,1 C 11,3 km/h (2 Bft) 97,87 %
03.12.2016 12:00 -1,7 C 97 % 1024,9 hPa 0,0 l/m 7,5 km/h (2 Bft) O-NO 71 2 min 0,076 mm 0,7 UV-I 349 W/m -2,1 C -2,9 C 14,5 km/h (3 Bft) 97,87 %
03.12.2016 12:02 -1,6 C 97 % 1024,9 hPa 0,0 l/m 7,5 km/h (2 Bft) O-NO 74 2 min 0,000 mm 0,7 UV-I 355 W/m -2,0 C -2,8 C 12,9 km/h (3 Bft) 100,00 %
03.12.2016 12:04 -1,7 C 97 % 1024,9 hPa 0,0 l/m 10,0 km/h (2 Bft) O-NO 65 2 min 0,000 mm 0,7 UV-I 349 W/m -2,1 C -5,3 C 12,9 km/h (3 Bft) 92,86 %
03.12.2016 12:06 -1,7 C 97 % 1024,9 hPa 0,0 l/m 5,8 km/h (2 Bft) NO 51 2 min 0,000 mm 0,7 UV-I 286 W/m -2,1 C -1,7 C 8,0 km/h (2 Bft) 97,87 %
03.12.2016 12:08 -1,6 C 97 % 1024,9 hPa 0,0 l/m 6,6 km/h (2 Bft) O-NO 68 2 min 0,000 mm 0,7 UV-I 369 W/m -2,0 C -1,8 C 8,0 km/h (2 Bft) 97,62 %
03.12.2016 12:10 -1,6 C 97 % 1025,0 hPa 0,0 l/m 7,4 km/h (2 Bft) O-NO 65 2 min 0,000 mm 0,7 UV-I 387 W/m -2,0 C -2,7 C 9,7 km/h (2 Bft) 98,11 %
03.12.2016 12:12 -1,7 C 97 % 1024,9 hPa 0,0 l/m 7,6 km/h (2 Bft) O-NO 57 2 min 0,000 mm 0,7 UV-I 387 W/m -2,1 C -3,0 C 12,9 km/h (3 Bft) 94,74 %
03.12.2016 12:14 -1,8 C 97 % 1024,9 hPa 0,0 l/m 8,7 km/h (2 Bft) O-NO 68 2 min 0,000 mm 0,6 UV-I 279 W/m -2,2 C -4,2 C 12,9 km/h (3 Bft) 97,87 %
03.12.2016 12:16 -1,9 C 97 % 1024,9 hPa 0,0 l/m 8,3 km/h (2 Bft) O-NO 69 0 min 0,000 mm 0,6 UV-I 132 W/m -2,3 C -3,9 C 12,9 km/h (3 Bft) 97,87 %
03.12.2016 12:18 -2,0 C 97 % 1024,9 hPa 0,0 l/m 6,4 km/h (2 Bft) O-SO 114 2 min 0,000 mm 0,6 UV-I 245 W/m -2,4 C -2,0 C 9,7 km/h (2 Bft) 97,87 %
03.12.2016 12:20 -2,1 C 97 % 1024,9 hPa 0,0 l/m 7,8 km/h (2 Bft) O-NO 76 2 min 0,000 mm 0,5 UV-I 218 W/m -2,5 C -3,6 C 12,9 km/h (3 Bft) 96,23 %
03.12.2016 12:22 -2,1 C 97 % 1024,9 hPa 0,0 l/m 6,4 km/h (2 Bft) O-NO 71 2 min 0,000 mm 0,5 UV-I 208 W/m -2,5 C -2,1 C 9,7 km/h (2 Bft) 100,00 %
03.12.2016 12:24 -2,1 C 97 % 1024,9 hPa 0,0 l/m 9,6 km/h (2 Bft) O-NO 67 0 min 0,000 mm 0,5 UV-I 152 W/m -2,5 C -5,4 C 14,5 km/h (3 Bft) 96,15 %
03.12.2016 12:26 -2,2 C 97 % 1024,9 hPa 0,0 l/m 7,8 km/h (2 Bft) O-NO 67 0 min 0,000 mm 0,5 UV-I 159 W/m -2,6 C -3,7 C 12,9 km/h (3 Bft) 100,00 %
03.12.2016 12:28 -2,2 C 97 % 1024,9 hPa 0,0 l/m 7,4 km/h (2 Bft) NO 45 0 min 0,000 mm 0,5 UV-I 149 W/m -2,6 C -3,3 C 12,9 km/h (3 Bft) 100,00 %
03.12.2016 12:30 -2,2 C 97 % 1025,0 hPa 0,0 l/m 9,1 km/h (2 Bft) O-NO 59 0 min 0,000 mm 0,1 UV-I 135 W/m -2,6 C -5,1 C 14,5 km/h (3 Bft) 97,37 %
03.12.2016 12:32 -2,2 C 97 % 1024,9 hPa 0,0 l/m 9,4 km/h (2 Bft) O-NO 77 0 min 0,000 mm 0,4 UV-I 106 W/m -2,6 C -5,3 C 14,5 km/h (3 Bft) 100,00 %
03.12.2016 12:34 -2,2 C 97 % 1024,9 hPa 0,0 l/m 9,2 km/h (2 Bft) O-NO 67 0 min 0,000 mm 0,5 UV-I 167 W/m -2,6 C -5,1 C 12,9 km/h (3 Bft) 100,00 %
03.12.2016 12:36 -2,2 C 97 % 1024,9 hPa 0,0 l/m 10,1 km/h (2 Bft) O-NO 60 2 min 0,000 mm 0,5 UV-I 224 W/m -2,6 C -6,0 C 12,9 km/h (3 Bft) 100,00 %
03.12.2016 12:38 -2,2 C 97 % 1024,9 hPa 0,0 l/m 7,4 km/h (2 Bft) NO 51 2 min 0,000 mm 0,5 UV-I 277 W/m -2,6 C -3,3 C 12,9 km/h (3 Bft) 100,00 %
03.12.2016 12:40 -2,0 C 97 % 1024,8 hPa 0,0 l/m 8,9 km/h (2 Bft) O 80 2 min 0,000 mm 0,5 UV-I 228 W/m -2,4 C -4,6 C 12,9 km/h (3 Bft) 100,00 %
03.12.2016 12:42 -2,0 C 97 % 1024,8 hPa 0,0 l/m 10,1 km/h (2 Bft) O-NO 73 0 min 0,000 mm 0,5 UV-I 157 W/m -2,4 C -5,7 C 14,5 km/h (3 Bft) 100,00 %
03.12.2016 12:44 -2,1 C 97 % 1024,9 hPa 0,0 l/m 10,4 km/h (2 Bft) O 80 0 min 0,000 mm 0,5 UV-I 157 W/m -2,5 C -6,1 C 16,1 km/h (3 Bft) 100,00 %
03.12.2016 12:46 -2,1 C 97 % 1024,8 hPa 0,0 l/m 10,7 km/h (2 Bft) O-NO 71 0 min 0,000 mm 0,4 UV-I 124 W/m -2,5 C -6,4 C 16,1 km/h (3 Bft) 100,00 %
03.12.2016 12:48 -2,2 C 97 % 1024,8 hPa 0,0 l/m 10,1 km/h (2 Bft) O-NO 70 0 min 0,000 mm 0,2 UV-I 170 W/m -2,6 C -6,0 C 12,9 km/h (3 Bft) 100,00 %
03.12.2016 12:50 -2,1 C 97 % 1024,8 hPa 0,0 l/m 10,5 km/h (2 Bft) O-NO 67 0 min 0,000 mm 0,2 UV-I 145 W/m -2,5 C -6,2 C 14,5 km/h (3 Bft) 100,00 %
03.12.2016 12:52 -2,1 C 97 % 1024,8 hPa 0,0 l/m 8,8 km/h (2 Bft) O 82 0 min 0,000 mm 0,3 UV-I 158 W/m -2,5 C -4,7 C 14,5 km/h (3 Bft) 100,00 %
03.12.2016 12:54 -2,0 C 97 % 1024,8 hPa 0,0 l/m 6,6 km/h (2 Bft) O-NO 74 2 min 0,000 mm 0,3 UV-I 240 W/m -2,4 C -2,2 C 9,7 km/h (2 Bft) 97,37 %
03.12.2016 12:56 -1,9 C 97 % 1024,8 hPa 0,0 l/m 6,4 km/h (2 Bft) O 89 2 min 0,000 mm 0,0 UV-I 232 W/m -2,3 C -1,9 C 11,3 km/h (2 Bft) 100,00 %
03.12.2016 12:58 -1,8 C 97 % 1024,8 hPa 0,0 l/m 7,0 km/h (2 Bft) O-NO 70 2 min 0,000 mm 0,4 UV-I 220 W/m -2,2 C -2,5 C 12,9 km/h (3 Bft) 100,00 %
03.12.2016 13:00 -1,8 C 97 % 1024,8 hPa 0,0 l/m 9,6 km/h (2 Bft) O 87 2 min 0,077 mm 0,4 UV-I 220 W/m -2,2 C -5,1 C 14,5 km/h (3 Bft) 100,00 %
03.12.2016 13:02 -1,8 C 97 % 1024,8 hPa 0,0 l/m 8,1 km/h (2 Bft) O 88 2 min 0,000 mm 0,5 UV-I 186 W/m -2,2 C -3,6 C 12,9 km/h (3 Bft) 98,00 %
03.12.2016 13:04 -1,9 C 97 % 1024,8 hPa 0,0 l/m 7,4 km/h (2 Bft) SO 128 2 min 0,000 mm 0,5 UV-I 207 W/m -2,3 C -3,0 C 14,5 km/h (3 Bft) 98,00 %
03.12.2016 13:06 -1,9 C 97 % 1024,8 hPa 0,0 l/m 6,7 km/h (2 Bft) O-NO 74 2 min 0,000 mm 0,5 UV-I 226 W/m -2,3 C -2,2 C 12,9 km/h (3 Bft) 100,00 %
03.12.2016 13:08 -1,8 C 97 % 1024,8 hPa 0,0 l/m 5,9 km/h (2 Bft) O-NO 66 2 min 0,000 mm 0,4 UV-I 220 W/m -2,2 C -1,8 C 8,0 km/h (2 Bft) 97,73 %
03.12.2016 13:10 -1,7 C 97 % 1024,8 hPa 0,0 l/m 7,1 km/h (2 Bft) O-NO 75 2 min 0,000 mm 0,4 UV-I 204 W/m -2,1 C -2,5 C 12,9 km/h (3 Bft) 100,00 %
03.12.2016 13:12 -1,7 C 97 % 1024,8 hPa 0,0 l/m 6,8 km/h (2 Bft) O-NO 71 2 min 0,000 mm 0,5 UV-I 207 W/m -2,1 C -2,1 C 9,7 km/h (2 Bft) 100,00 %
03.12.2016 13:14 -1,6 C 97 % 1024,7 hPa 0,0 l/m 6,8 km/h (2 Bft) O-NO 72 2 min 0,000 mm 0,5 UV-I 258 W/m -2,0 C -2,0 C 11,3 km/h (2 Bft) 100,00 %
03.12.2016 13:16 -1,5 C 97 % 1024,8 hPa 0,0 l/m 6,7 km/h (2 Bft) O-NO 69 2 min 0,000 mm 0,5 UV-I 246 W/m -1,9 C -1,8 C 11,3 km/h (2 Bft) 100,00 %
03.12.2016 13:18 -1,4 C 97 % 1024,8 hPa 0,0 l/m 6,4 km/h (2 Bft) O-NO 69 2 min 0,000 mm 0,5 UV-I 291 W/m -1,8 C -1,4 C 9,7 km/h (2 Bft) 100,00 %
03.12.2016 13:20 -1,4 C 97 % 1024,8 hPa 0,0 l/m 6,3 km/h (2 Bft) O-NO 63 2 min 0,000 mm 0,5 UV-I 338 W/m -1,8 C -1,4 C 11,3 km/h (2 Bft) 100,00 %
03.12.2016 13:22 -1,3 C 97 % 1024,8 hPa 0,0 l/m 8,4 km/h (2 Bft) O-NO 71 2 min 0,000 mm 0,5 UV-I 339 W/m -1,7 C -3,4 C 12,9 km/h (3 Bft) 100,00 %
03.12.2016 13:24 -1,4 C 97 % 1024,8 hPa 0,0 l/m 7,2 km/h (2 Bft) O-NO 68 2 min 0,000 mm 0,5 UV-I 310 W/m -1,8 C -2,3 C 11,3 km/h (2 Bft) 100,00 %
03.12.2016 13:26 -1,5 C 97 % 1024,8 hPa 0,0 l/m 9,0 km/h (2 Bft) O-NO 70 2 min 0,000 mm 0,5 UV-I 257 W/m -1,9 C -4,2 C 12,9 km/h (3 Bft) 100,00 %
03.12.2016 13:28 -1,5 C 97 % 1024,8 hPa 0,0 l/m 9,8 km/h (2 Bft) O-NO 71 2 min 0,000 mm 0,5 UV-I 178 W/m -1,9 C -4,9 C 12,9 km/h (3 Bft) 100,00 %
03.12.2016 13:30 -1,5 C 97 % 1024,8 hPa 0,0 l/m 11,5 km/h (2 Bft) O 82 2 min 0,000 mm 0,5 UV-I 282 W/m -1,9 C -6,3 C 14,5 km/h (3 Bft) 100,00 %
03.12.2016 13:32 -1,4 C 97 % 1024,7 hPa 0,0 l/m 10,5 km/h (2 Bft) O-NO 75 2 min 0,000 mm 0,1 UV-I 300 W/m -1,8 C -5,4 C 16,1 km/h (3 Bft) 93,22 %
03.12.2016 13:34 -1,4 C 97 % 1024,7 hPa 0,0 l/m 9,7 km/h (2 Bft) O 88 2 min 0,000 mm 0,1 UV-I 264 W/m -1,8 C -4,7 C 12,9 km/h (3 Bft) 100,00 %
03.12.2016 13:36 -1,4 C 97 % 1024,7 hPa 0,0 l/m 10,3 km/h (2 Bft) O-NO 71 2 min 0,000 mm 0,0 UV-I 257 W/m -1,8 C -5,3 C 14,5 km/h (3 Bft) 97,06 %
03.12.2016 13:38 -1,3 C 97 % 1024,7 hPa 0,0 l/m 9,6 km/h (2 Bft) O-NO 60 2 min 0,000 mm 0,0 UV-I 284 W/m -1,7 C -4,5 C 14,5 km/h (3 Bft) 95,45 %
03.12.2016 13:40 -1,2 C 97 % 1024,7 hPa 0,0 l/m 10,0 km/h (2 Bft) O 82 2 min 0,000 mm 0,0 UV-I 282 W/m -1,6 C -4,8 C 12,9 km/h (3 Bft) 97,56 %
03.12.2016 13:42 -1,2 C 97 % 1024,6 hPa 0,0 l/m 8,4 km/h (2 Bft) NO 55 2 min 0,000 mm 0,0 UV-I 274 W/m -1,6 C -3,3 C 14,5 km/h (3 Bft) 98,00 %
03.12.2016 13:44 -1,1 C 97 % 1024,6 hPa 0,0 l/m 7,2 km/h (2 Bft) O-NO 68 2 min 0,000 mm 0,0 UV-I 270 W/m -1,5 C -2,0 C 11,3 km/h (2 Bft) 96,00 %
03.12.2016 13:46 -1,1 C 97 % 1024,5 hPa 0,0 l/m 7,0 km/h (2 Bft) O-NO 60 2 min 0,000 mm 0,0 UV-I 268 W/m -1,5 C -1,7 C 12,9 km/h (3 Bft) 98,11 %
03.12.2016 13:48 -0,9 C 97 % 1024,5 hPa 0,0 l/m 7,3 km/h (2 Bft) O-NO 66 2 min 0,000 mm 0,0 UV-I 265 W/m -1,3 C -1,9 C 11,3 km/h (2 Bft) 97,37 %
03.12.2016 13:50 -0,9 C 97 % 1024,6 hPa 0,0 l/m 8,5 km/h (2 Bft) O-NO 71 2 min 0,000 mm 0,0 UV-I 262 W/m -1,3 C -3,1 C 14,5 km/h (3 Bft) 98,00 %
03.12.2016 13:52 -0,9 C 97 % 1024,5 hPa 0,0 l/m 10,1 km/h (2 Bft) O-NO 77 2 min 0,000 mm 0,0 UV-I 176 W/m -1,3 C -4,5 C 17,7 km/h (3 Bft) 97,37 %
03.12.2016 13:54 -0,9 C 96 % 1024,6 hPa 0,0 l/m 6,4 km/h (2 Bft) O-NO 74 2 min 0,000 mm 0,0 UV-I 256 W/m -1,5 C -0,9 C 9,7 km/h (2 Bft) 100,00 %
03.12.2016 13:56 -0,9 C 96 % 1024,5 hPa 0,0 l/m 8,7 km/h (2 Bft) O-NO 67 2 min 0,000 mm 0,0 UV-I 249 W/m -1,5 C -3,3 C 14,5 km/h (3 Bft) 100,00 %
03.12.2016 13:58 -0,9 C 96 % 1024,6 hPa 0,0 l/m 5,5 km/h (1 Bft) O 80 2 min 0,000 mm 0,0 UV-I 244 W/m -1,5 C -0,9 C 8,0 km/h (2 Bft) 98,21 %
03.12.2016 14:00 -0,8 C 96 % 1024,6 hPa 0,0 l/m 4,1 km/h (1 Bft) O-NO 73 2 min 0,076 mm 0,0 UV-I 243 W/m -1,4 C -0,8 C 6,4 km/h (2 Bft) 100,00 %
03.12.2016 14:02 -0,7 C 96 % 1024,6 hPa 0,0 l/m 4,0 km/h (1 Bft) O-NO 63 2 min 0,000 mm 0,0 UV-I 241 W/m -1,3 C -0,7 C 8,0 km/h (2 Bft) 100,00 %
03.12.2016 14:04 -0,6 C 96 % 1024,6 hPa 0,0 l/m 4,4 km/h (1 Bft) O-NO 62 2 min 0,000 mm 0,0 UV-I 240 W/m -1,2 C -0,6 C 8,0 km/h (2 Bft) 100,00 %
03.12.2016 14:06 -0,4 C 96 % 1024,6 hPa 0,0 l/m 5,4 km/h (1 Bft) O-NO 61 2 min 0,000 mm 0,0 UV-I 233 W/m -1,0 C -0,4 C 6,4 km/h (2 Bft) 100,00 %
03.12.2016 14:08 -0,3 C 96 % 1024,6 hPa 0,0 l/m 6,1 km/h (2 Bft) O-NO 61 2 min 0,000 mm 0,0 UV-I 231 W/m -0,9 C -0,3 C 9,7 km/h (2 Bft) 100,00 %
03.12.2016 14:10 -0,3 C 96 % 1024,6 hPa 0,0 l/m 6,0 km/h (2 Bft) NO 54 2 min 0,000 mm 0,0 UV-I 228 W/m -0,9 C -0,3 C 8,0 km/h (2 Bft) 100,00 %
03.12.2016 14:12 -0,3 C 95 % 1024,6 hPa 0,0 l/m 6,0 km/h (2 Bft) O-NO 57 2 min 0,000 mm 0,0 UV-I 221 W/m -1,0 C -0,3 C 9,7 km/h (2 Bft) 100,00 %
03.12.2016 14:14 -0,3 C 95 % 1024,6 hPa 0,0 l/m 6,4 km/h (2 Bft) NO 53 2 min 0,000 mm 0,0 UV-I 220 W/m -1,0 C -0,3 C 8,0 km/h (2 Bft) 100,00 %
03.12.2016 14:16 -0,3 C 95 % 1024,6 hPa 0,0 l/m 5,1 km/h (1 Bft) NO 53 2 min 0,000 mm 0,0 UV-I 218 W/m -1,0 C -0,3 C 8,0 km/h (2 Bft) 97,87 %
03.12.2016 14:18 -0,2 C 95 % 1024,6 hPa 0,0 l/m 6,9 km/h (2 Bft) O-NO 71 2 min 0,000 mm 0,0 UV-I 213 W/m -0,9 C -0,7 C 9,7 km/h (2 Bft) 100,00 %
03.12.2016 14:20 -0,1 C 95 % 1024,5 hPa 0,0 l/m 7,3 km/h (2 Bft) O-NO 67 2 min 0,000 mm 0,0 UV-I 209 W/m -0,8 C -1,0 C 11,3 km/h (2 Bft) 100,00 %
03.12.2016 14:22 0,1 C 94 % 1024,5 hPa 0,0 l/m 5,6 km/h (1 Bft) O-NO 57 2 min 0,000 mm 0,0 UV-I 208 W/m -0,7 C 0,1 C 11,3 km/h (2 Bft) 100,00 %
03.12.2016 14:24 0,1 C 94 % 1024,6 hPa 0,0 l/m 8,0 km/h (2 Bft) O-NO 72 2 min 0,000 mm 0,0 UV-I 205 W/m -0,7 C -1,5 C 12,9 km/h (3 Bft) 100,00 %
03.12.2016 14:26 0,2 C 93 % 1024,5 hPa 0,0 l/m 9,2 km/h (2 Bft) O-NO 61 2 min 0,000 mm 0,0 UV-I 202 W/m -0,8 C -2,5 C 14,5 km/h (3 Bft) 97,56 %
03.12.2016 14:28 0,3 C 92 % 1024,5 hPa 0,0 l/m 8,3 km/h (2 Bft) NO 56 2 min 0,000 mm 0,0 UV-I 199 W/m -0,8 C -1,6 C 14,5 km/h (3 Bft) 100,00 %
03.12.2016 14:30 0,3 C 92 % 1024,5 hPa 0,0 l/m 7,6 km/h (2 Bft) O-NO 74 2 min 0,000 mm 0,0 UV-I 195 W/m -0,8 C -0,9 C 11,3 km/h (2 Bft) 100,00 %
03.12.2016 14:32 0,4 C 92 % 1024,5 hPa 0,0 l/m 6,6 km/h (2 Bft) O-NO 68 2 min 0,000 mm 0,0 UV-I 192 W/m -0,7 C 0,2 C 11,3 km/h (2 Bft) 100,00 %
03.12.2016 14:34 0,4 C 91 % 1024,5 hPa 0,0 l/m 9,6 km/h (2 Bft) NO 55 2 min 0,000 mm 0,0 UV-I 189 W/m -0,9 C -2,7 C 17,7 km/h (3 Bft) 100,00 %
03.12.2016 14:36 0,4 C 91 % 1024,5 hPa 0,0 l/m 12,6 km/h (3 Bft) NO 47 2 min 0,000 mm 0,0 UV-I 185 W/m -0,9 C -5,0 C 16,1 km/h (3 Bft) 97,37 %
03.12.2016 14:38 0,4 C 91 % 1024,6 hPa 0,0 l/m 11,2 km/h (2 Bft) NO 48 2 min 0,000 mm 0,0 UV-I 183 W/m -0,9 C -4,0 C 16,1 km/h (3 Bft) 100,00 %
03.12.2016 14:40 0,5 C 90 % 1024,6 hPa 0,0 l/m 13,1 km/h (3 Bft) O-NO 68 2 min 0,000 mm 0,0 UV-I 179 W/m -0,9 C -5,2 C 20,9 km/h (4 Bft) 100,00 %
03.12.2016 14:42 0,6 C 90 % 1024,6 hPa 0,0 l/m 13,2 km/h (3 Bft) NO 53 2 min 0,000 mm 0,0 UV-I 176 W/m -0,8 C -5,1 C 17,7 km/h (3 Bft) 100,00 %
03.12.2016 14:44 0,6 C 89 % 1024,6 hPa 0,0 l/m 12,2 km/h (2 Bft) O-NO 71 2 min 0,000 mm 0,0 UV-I 173 W/m -1,0 C -4,5 C 17,7 km/h (3 Bft) 97,62 %
03.12.2016 14:46 0,6 C 89 % 1024,6 hPa 0,0 l/m 13,7 km/h (3 Bft) O-NO 72 2 min 0,000 mm 0,0 UV-I 170 W/m -1,0 C -5,5 C 20,9 km/h (4 Bft) 100,00 %
03.12.2016 14:48 0,6 C 89 % 1024,6 hPa 0,0 l/m 11,6 km/h (2 Bft) O-NO 69 2 min 0,000 mm 0,0 UV-I 165 W/m -1,0 C -4,0 C 16,1 km/h (3 Bft) 100,00 %
03.12.2016 14:50 0,6 C 89 % 1024,6 hPa 0,0 l/m 13,9 km/h (3 Bft) O-NO 64 2 min 0,000 mm 0,0 UV-I 162 W/m -1,0 C -5,6 C 20,9 km/h (4 Bft) 97,56 %
03.12.2016 14:52 0,6 C 89 % 1024,6 hPa 0,0 l/m 11,7 km/h (2 Bft) O-NO 67 2 min 0,000 mm 0,0 UV-I 159 W/m -1,0 C -4,1 C 16,1 km/h (3 Bft) 100,00 %
03.12.2016 14:54 0,6 C 88 % 1024,5 hPa 0,0 l/m 10,6 km/h (2 Bft) NO 38 2 min 0,000 mm 0,0 UV-I 156 W/m -1,2 C -3,3 C 16,1 km/h (3 Bft) 96,00 %
03.12.2016 14:56 0,6 C 88 % 1024,6 hPa 0,0 l/m 14,7 km/h (3 Bft) O-NO 77 2 min 0,000 mm 0,0 UV-I 151 W/m -1,2 C -6,1 C 19,3 km/h (3 Bft) 94,74 %
03.12.2016 14:58 0,6 C 88 % 1024,6 hPa 0,0 l/m 11,6 km/h (2 Bft) O 80 2 min 0,000 mm 0,0 UV-I 148 W/m -1,2 C -4,0 C 16,1 km/h (3 Bft) 95,45 %
03.12.2016 15:00 0,7 C 88 % 1024,6 hPa 0,0 l/m 9,0 km/h (2 Bft) O-NO 66 2 min 0,076 mm 0,0 UV-I 144 W/m -1,1 C -1,8 C 16,1 km/h (3 Bft) 97,56 %
03.12.2016 15:02 0,7 C 88 % 1024,6 hPa 0,0 l/m 11,4 km/h (2 Bft) O-NO 60 2 min 0,000 mm 0,0 UV-I 140 W/m -1,1 C -3,8 C 16,1 km/h (3 Bft) 95,38 %
03.12.2016 15:04 0,7 C 88 % 1024,6 hPa 0,0 l/m 11,3 km/h (2 Bft) O-NO 71 2 min 0,000 mm 0,0 UV-I 136 W/m -1,1 C -3,7 C 17,7 km/h (3 Bft) 97,14 %
03.12.2016 15:06 0,7 C 88 % 1024,6 hPa 0,0 l/m 9,1 km/h (2 Bft) O-NO 58 2 min 0,000 mm 0,0 UV-I 133 W/m -1,1 C -1,9 C 12,9 km/h (3 Bft) 98,31 %
03.12.2016 15:08 0,7 C 88 % 1024,6 hPa 0,0 l/m 10,9 km/h (2 Bft) O 83 2 min 0,000 mm 0,0 UV-I 128 W/m -1,1 C -3,4 C 14,5 km/h (3 Bft) 95,45 %
03.12.2016 15:10 0,7 C 88 % 1024,6 hPa 0,0 l/m 8,0 km/h (2 Bft) NO 47 2 min 0,000 mm 0,0 UV-I 126 W/m -1,1 C -0,9 C 12,9 km/h (3 Bft) 97,56 %
03.12.2016 15:12 0,7 C 88 % 1024,6 hPa 0,0 l/m 6,3 km/h (2 Bft) O-NO 71 2 min 0,000 mm 0,0 UV-I 122 W/m -1,1 C 0,7 C 11,3 km/h (2 Bft) 94,00 %
03.12.2016 15:14 0,7 C 88 % 1024,5 hPa 0,0 l/m 8,8 km/h (2 Bft) O-NO 74 2 min 0,000 mm 0,0 UV-I 117 W/m -1,1 C -1,7 C 14,5 km/h (3 Bft) 97,87 %
03.12.2016 15:16 0,7 C 88 % 1024,6 hPa 0,0 l/m 8,8 km/h (2 Bft) O-NO 57 2 min 0,000 mm 0,0 UV-I 113 W/m -1,1 C -1,7 C 14,5 km/h (3 Bft) 97,87 %
03.12.2016 15:18 0,6 C 88 % 1024,6 hPa 0,0 l/m 7,4 km/h (2 Bft) O-NO 77 2 min 0,000 mm 0,0 UV-I 109 W/m -1,2 C -0,4 C 11,3 km/h (2 Bft) 97,73 %
03.12.2016 15:20 0,6 C 88 % 1024,6 hPa 0,0 l/m 9,0 km/h (2 Bft) NO 52 2 min 0,000 mm 0,0 UV-I 105 W/m -1,2 C -1,9 C 14,5 km/h (3 Bft) 98,00 %
03.12.2016 15:22 0,7 C 88 % 1024,6 hPa 0,0 l/m 8,6 km/h (2 Bft) O-NO 62 2 min 0,000 mm 0,0 UV-I 101 W/m -1,1 C -1,5 C 14,5 km/h (3 Bft) 97,44 %
03.12.2016 15:24 0,7 C 87 % 1024,6 hPa 0,0 l/m 9,4 km/h (2 Bft) O-NO 65 2 min 0,000 mm 0,0 UV-I 96 W/m -1,2 C -2,2 C 12,9 km/h (3 Bft) 98,28 %
03.12.2016 15:26 0,7 C 87 % 1024,6 hPa 0,0 l/m 7,8 km/h (2 Bft) O-NO 61 2 min 0,000 mm 0,0 UV-I 92 W/m -1,2 C -0,7 C 11,3 km/h (2 Bft) 97,87 %
03.12.2016 15:28 0,7 C 87 % 1024,6 hPa 0,0 l/m 8,4 km/h (2 Bft) NO 52 2 min 0,000 mm 0,0 UV-I 87 W/m -1,2 C -1,3 C 11,3 km/h (2 Bft) 93,62 %
03.12.2016 15:30 0,7 C 88 % 1024,6 hPa 0,0 l/m 8,0 km/h (2 Bft) O-NO 63 2 min 0,000 mm 0,0 UV-I 84 W/m -1,1 C -0,9 C 14,5 km/h (3 Bft) 100,00 %
03.12.2016 15:32 0,7 C 88 % 1024,6 hPa 0,0 l/m 9,7 km/h (2 Bft) O 82 2 min 0,000 mm 0,0 UV-I 78 W/m -1,1 C -2,4 C 14,5 km/h (3 Bft) 96,61 %
03.12.2016 15:34 0,6 C 88 % 1024,6 hPa 0,0 l/m 9,1 km/h (2 Bft) O-NO 75 2 min 0,000 mm 0,0 UV-I 74 W/m -1,2 C -2,0 C 12,9 km/h (3 Bft) 97,67 %
03.12.2016 15:36 0,5 C 88 % 1024,6 hPa 0,0 l/m 9,9 km/h (2 Bft) O-NO 77 2 min 0,000 mm 0,0 UV-I 71 W/m -1,3 C -2,8 C 16,1 km/h (3 Bft) 97,37 %
03.12.2016 15:38 0,4 C 88 % 1024,7 hPa 0,0 l/m 8,8 km/h (2 Bft) O-NO 63 2 min 0,000 mm 0,0 UV-I 67 W/m -1,3 C -2,0 C 12,9 km/h (3 Bft) 98,21 %
03.12.2016 15:40 0,5 C 87 % 1024,7 hPa 0,0 l/m 11,1 km/h (2 Bft) NO 46 2 min 0,000 mm 0,0 UV-I 62 W/m -1,4 C -3,8 C 16,1 km/h (3 Bft) 100,00 %
03.12.2016 15:42 0,5 C 87 % 1024,7 hPa 0,0 l/m 9,4 km/h (2 Bft) O-NO 61 2 min 0,000 mm 0,0 UV-I 60 W/m -1,4 C -2,4 C 16,1 km/h (3 Bft) 100,00 %
03.12.2016 15:44 0,5 C 87 % 1024,7 hPa 0,0 l/m 8,6 km/h (2 Bft) O-NO 61 2 min 0,000 mm 0,0 UV-I 55 W/m -1,4 C -1,7 C 12,9 km/h (3 Bft) 100,00 %
03.12.2016 15:46 0,4 C 87 % 1024,6 hPa 0,0 l/m 7,6 km/h (2 Bft) NO 53 2 min 0,000 mm 0,0 UV-I 51 W/m -1,5 C -0,8 C 11,3 km/h (2 Bft) 100,00 %
03.12.2016 15:48 0,4 C 87 % 1024,7 hPa 0,0 l/m 7,8 km/h (2 Bft) NO 51 2 min 0,000 mm 0,0 UV-I 47 W/m -1,5 C -1,0 C 12,9 km/h (3 Bft) 100,00 %
03.12.2016 15:50 0,4 C 87 % 1024,7 hPa 0,0 l/m 8,5 km/h (2 Bft) O-NO 61 2 min 0,000 mm 0,0 UV-I 44 W/m -1,5 C -1,7 C 12,9 km/h (3 Bft) 98,00 %
03.12.2016 15:52 0,4 C 87 % 1024,7 hPa 0,0 l/m 6,4 km/h (2 Bft) NO 49 2 min 0,000 mm 0,0 UV-I 40 W/m -1,5 C 0,4 C 8,0 km/h (2 Bft) 94,74 %
03.12.2016 15:54 0,4 C 87 % 1024,7 hPa 0,0 l/m 6,6 km/h (2 Bft) NO 55 2 min 0,000 mm 0,0 UV-I 37 W/m -1,5 C 0,2 C 8,0 km/h (2 Bft) 98,11 %
03.12.2016 15:56 0,4 C 87 % 1024,7 hPa 0,0 l/m 6,6 km/h (2 Bft) O-NO 71 2 min 0,000 mm 0,0 UV-I 33 W/m -1,5 C 0,2 C 9,7 km/h (2 Bft) 100,00 %
03.12.2016 15:58 0,4 C 87 % 1024,7 hPa 0,0 l/m 7,6 km/h (2 Bft) NO 50 2 min 0,000 mm 0,0 UV-I 30 W/m -1,5 C -0,8 C 9,7 km/h (2 Bft) 100,00 %
03.12.2016 16:00 0,4 C 87 % 1024,6 hPa 0,0 l/m 7,6 km/h (2 Bft) NO 47 0 min 0,000 mm 0,0 UV-I 26 W/m -1,5 C -0,8 C 14,5 km/h (3 Bft) 100,00 %
03.12.2016 16:02 0,3 C 87 % 1024,6 hPa 0,0 l/m 9,5 km/h (2 Bft) O-NO 57 0 min 0,025 mm 0,0 UV-I 22 W/m -1,6 C -2,7 C 14,5 km/h (3 Bft) 100,00 %
03.12.2016 16:04 0,3 C 87 % 1024,6 hPa 0,0 l/m 8,2 km/h (2 Bft) NO 53 0 min 0,000 mm 0,0 UV-I 16 W/m -1,6 C -1,5 C 11,3 km/h (2 Bft) 100,00 %
03.12.2016 16:06 0,3 C 87 % 1024,6 hPa 0,0 l/m 8,6 km/h (2 Bft) NO 51 0 min 0,000 mm 0,0 UV-I 12 W/m -1,6 C -1,9 C 14,5 km/h (3 Bft) 100,00 %
03.12.2016 16:08 0,3 C 87 % 1024,6 hPa 0,0 l/m 6,5 km/h (2 Bft) NO 52 0 min 0,000 mm 0,0 UV-I 11 W/m -1,6 C 0,2 C 11,3 km/h (2 Bft) 100,00 %
03.12.2016 16:10 0,3 C 87 % 1024,6 hPa 0,0 l/m 9,2 km/h (2 Bft) NO 53 0 min 0,000 mm 0,0 UV-I 10 W/m -1,6 C -2,4 C 14,5 km/h (3 Bft) 100,00 %
03.12.2016 16:12 0,2 C 87 % 1024,6 hPa 0,0 l/m 7,3 km/h (2 Bft) NO 42 0 min 0,000 mm 0,0 UV-I 9 W/m -1,7 C -0,7 C 12,9 km/h (3 Bft) 97,87 %
03.12.2016 16:14 0,2 C 87 % 1024,7 hPa 0,0 l/m 5,9 km/h (2 Bft) N-NO 28 0 min 0,000 mm 0,0 UV-I 9 W/m -1,7 C 0,2 C 8,0 km/h (2 Bft) 95,74 %
03.12.2016 16:16 0,2 C 87 % 1024,7 hPa 0,0 l/m 6,3 km/h (2 Bft) O-NO 57 0 min 0,000 mm 0,0 UV-I 7 W/m -1,7 C 0,2 C 9,7 km/h (2 Bft) 100,00 %
03.12.2016 16:18 0,1 C 88 % 1024,7 hPa 0,0 l/m 6,4 km/h (2 Bft) O-NO 63 0 min 0,000 mm 0,0 UV-I 7 W/m -1,6 C 0,1 C 11,3 km/h (2 Bft) 97,37 %
03.12.2016 16:20 0,1 C 88 % 1024,7 hPa 0,0 l/m 7,1 km/h (2 Bft) O-NO 61 0 min 0,000 mm 0,0 UV-I 6 W/m -1,6 C -0,6 C 11,3 km/h (2 Bft) 100,00 %
03.12.2016 16:22 0,1 C 88 % 1024,7 hPa 0,0 l/m 6,3 km/h (2 Bft) O-NO 65 0 min 0,000 mm 0,0 UV-I 5 W/m -1,6 C 0,1 C 11,3 km/h (2 Bft) 100,00 %
03.12.2016 16:24 0,0 C 88 % 1024,8 hPa 0,0 l/m 7,8 km/h (2 Bft) NO 49 0 min 0,000 mm 0,0 UV-I 5 W/m -1,7 C -1,4 C 12,9 km/h (3 Bft) 100,00 %
03.12.2016 16:26 -0,1 C 88 % 1024,8 hPa 0,0 l/m 7,8 km/h (2 Bft) NO 45 0 min 0,000 mm 0,0 UV-I 5 W/m -1,8 C -1,6 C 12,9 km/h (3 Bft) 100,00 %
03.12.2016 16:28 -0,1 C 88 % 1024,7 hPa 0,0 l/m 9,3 km/h (2 Bft) NO 55 0 min 0,000 mm 0,0 UV-I 2 W/m -1,8 C -3,0 C 16,1 km/h (3 Bft) 100,00 %
03.12.2016 16:30 -0,1 C 88 % 1024,7 hPa 0,0 l/m 9,5 km/h (2 Bft) O-NO 66 0 min 0,000 mm 0,0 UV-I 0 W/m -1,8 C -3,1 C 14,5 km/h (3 Bft) 97,56 %
03.12.2016 16:32 -0,1 C 88 % 1024,8 hPa 0,0 l/m 9,0 km/h (2 Bft) NO 44 0 min 0,000 mm 0,0 UV-I 0 W/m -1,8 C -2,7 C 14,5 km/h (3 Bft) 98,21 %
03.12.2016 16:34 -0,2 C 89 % 1024,8 hPa 0,0 l/m 8,1 km/h (2 Bft) O-NO 65 0 min 0,000 mm 0,0 UV-I 0 W/m -1,8 C -2,0 C 12,9 km/h (3 Bft) 97,73 %
03.12.2016 16:36 -0,2 C 89 % 1024,8 hPa 0,0 l/m 8,6 km/h (2 Bft) O-NO 60 0 min 0,000 mm 0,0 UV-I 0 W/m -1,8 C -2,4 C 12,9 km/h (3 Bft) 100,00 %
03.12.2016 16:38 -0,3 C 89 % 1024,8 hPa 0,0 l/m 8,2 km/h (2 Bft) O-NO 66 0 min 0,000 mm 0,0 UV-I 0 W/m -1,9 C -2,2 C 12,9 km/h (3 Bft) 100,00 %
03.12.2016 16:40 -0,3 C 89 % 1024,9 hPa 0,0 l/m 7,0 km/h (2 Bft) NO 46 0 min 0,000 mm 0,0 UV-I 0 W/m -1,9 C -0,9 C 9,7 km/h (2 Bft) 98,00 %
03.12.2016 16:42 -0,3 C 89 % 1024,8 hPa 0,0 l/m 5,8 km/h (2 Bft) O-NO 65 0 min 0,000 mm 0,0 UV-I 0 W/m -1,9 C -0,3 C 8,0 km/h (2 Bft) 100,00 %
03.12.2016 16:44 -0,3 C 89 % 1024,9 hPa 0,0 l/m 6,4 km/h (2 Bft) NO 53 0 min 0,000 mm 0,0 UV-I 0 W/m -1,9 C -0,3 C 9,7 km/h (2 Bft) 100,00 %
03.12.2016 16:46 -0,4 C 89 % 1024,9 hPa 0,0 l/m 5,2 km/h (1 Bft) NO 34 0 min 0,000 mm 0,0 UV-I 0 W/m -2,0 C -0,4 C 8,0 km/h (2 Bft) 97,44 %
03.12.2016 16:48 -0,4 C 89 % 1024,9 hPa 0,0 l/m 6,8 km/h (2 Bft) O-NO 60 0 min 0,000 mm 0,0 UV-I 0 W/m -2,0 C -0,8 C 9,7 km/h (2 Bft) 100,00 %
03.12.2016 16:50 -0,4 C 89 % 1024,9 hPa 0,0 l/m 7,8 km/h (2 Bft) O-NO 64 0 min 0,000 mm 0,0 UV-I 0 W/m -2,0 C -1,9 C 12,9 km/h (3 Bft) 97,56 %
03.12.2016 16:52 -0,4 C 90 % 1024,9 hPa 0,0 l/m 6,6 km/h (2 Bft) O-NO 62 0 min 0,000 mm 0,0 UV-I 0 W/m -1,8 C -0,6 C 11,3 km/h (2 Bft) 97,87 %
03.12.2016 16:54 -0,4 C 90 % 1025,0 hPa 0,0 l/m 6,7 km/h (2 Bft) NO 55 0 min 0,000 mm 0,0 UV-I 0 W/m -1,8 C -0,7 C 9,7 km/h (2 Bft) 97,87 %
03.12.2016 16:56 -0,4 C 90 % 1025,0 hPa 0,0 l/m 6,2 km/h (2 Bft) O-NO 63 0 min 0,000 mm 0,0 UV-I 0 W/m -1,8 C -0,4 C 11,3 km/h (2 Bft) 100,00 %
03.12.2016 16:58 -0,4 C 90 % 1025,0 hPa 0,0 l/m 7,1 km/h (2 Bft) O-NO 62 0 min 0,000 mm 0,0 UV-I 0 W/m -1,8 C -1,1 C 9,7 km/h (2 Bft) 100,00 %
03.12.2016 17:00 -0,4 C 90 % 1025,0 hPa 0,0 l/m 8,2 km/h (2 Bft) O-NO 71 0 min 0,000 mm 0,0 UV-I 0 W/m -1,8 C -2,3 C 12,9 km/h (3 Bft) 100,00 %
03.12.2016 17:02 -0,4 C 90 % 1025,0 hPa 0,0 l/m 7,0 km/h (2 Bft) NO 36 0 min 0,000 mm 0,0 UV-I 0 W/m -1,8 C -1,0 C 9,7 km/h (2 Bft) 97,37 %
03.12.2016 17:04 -0,4 C 89 % 1025,1 hPa 0,0 l/m 6,8 km/h (2 Bft) O-NO 65 0 min 0,000 mm 0,0 UV-I 0 W/m -2,0 C -0,8 C 9,7 km/h (2 Bft) 100,00 %
03.12.2016 17:06 -0,5 C 90 % 1025,1 hPa 0,0 l/m 6,7 km/h (2 Bft) O-NO 67 0 min 0,000 mm 0,0 UV-I 0 W/m -1,9 C -0,8 C 9,7 km/h (2 Bft) 100,00 %
03.12.2016 17:08 -0,6 C 90 % 1025,1 hPa 0,0 l/m 7,5 km/h (2 Bft) O-NO 69 0 min 0,000 mm 0,0 UV-I 0 W/m -2,0 C -1,8 C 9,7 km/h (2 Bft) 100,00 %
03.12.2016 17:10 -0,6 C 90 % 1025,1 hPa 0,0 l/m 6,3 km/h (2 Bft) NO 55 0 min 0,000 mm 0,0 UV-I 0 W/m -2,0 C -0,6 C 9,7 km/h (2 Bft) 100,00 %
03.12.2016 17:12 -0,6 C 90 % 1025,2 hPa 0,0 l/m 6,3 km/h (2 Bft) O-NO 59 0 min 0,000 mm 0,0 UV-I 0 W/m -2,0 C -0,6 C 9,7 km/h (2 Bft) 100,00 %
03.12.2016 17:14 -0,6 C 90 % 1025,1 hPa 0,0 l/m 6,2 km/h (2 Bft) NO 46 0 min 0,000 mm 0,0 UV-I 0 W/m -2,0 C -0,6 C 11,3 km/h (2 Bft) 97,56 %
03.12.2016 17:16 -0,7 C 90 % 1025,1 hPa 0,0 l/m 8,9 km/h (2 Bft) O-NO 68 0 min 0,000 mm 0,0 UV-I 0 W/m -2,1 C -3,2 C 14,5 km/h (3 Bft) 100,00 %
03.12.2016 17:18 -0,7 C 90 % 1025,2 hPa 0,0 l/m 9,0 km/h (2 Bft) NO 49 0 min 0,000 mm 0,0 UV-I 0 W/m -2,1 C -3,3 C 12,9 km/h (3 Bft) 98,00 %
03.12.2016 17:20 -0,7 C 91 % 1025,2 hPa 0,0 l/m 7,4 km/h (2 Bft) O-NO 59 0 min 0,000 mm 0,0 UV-I 0 W/m -2,0 C -1,8 C 11,3 km/h (2 Bft) 95,12 %
03.12.2016 17:22 -0,7 C 91 % 1025,2 hPa 0,0 l/m 8,4 km/h (2 Bft) NO 53 0 min 0,000 mm 0,0 UV-I 0 W/m -2,0 C -2,8 C 14,5 km/h (3 Bft) 97,44 %
03.12.2016 17:24 -0,7 C 91 % 1025,2 hPa 0,0 l/m 8,8 km/h (2 Bft) O-NO 63 0 min 0,000 mm 0,0 UV-I 0 W/m -2,0 C -3,2 C 12,9 km/h (3 Bft) 98,00 %
03.12.2016 17:26 -0,7 C 91 % 1025,2 hPa 0,0 l/m 9,3 km/h (2 Bft) NO 49 0 min 0,000 mm 0,0 UV-I 0 W/m -2,0 C -3,6 C 14,5 km/h (3 Bft) 98,11 %
03.12.2016 17:28 -0,8 C 91 % 1025,3 hPa 0,0 l/m 7,9 km/h (2 Bft) NO 49 0 min 0,000 mm 0,0 UV-I 0 W/m -2,1 C -2,4 C 12,9 km/h (3 Bft) 97,73 %
03.12.2016 17:30 -0,8 C 91 % 1025,3 hPa 0,0 l/m 6,9 km/h (2 Bft) O-NO 63 0 min 0,000 mm 0,0 UV-I 0 W/m -2,1 C -1,3 C 11,3 km/h (2 Bft) 94,34 %
03.12.2016 17:32 -0,8 C 91 % 1025,2 hPa 0,0 l/m 7,5 km/h (2 Bft) O 81 0 min 0,000 mm 0,0 UV-I 0 W/m -2,1 C -2,0 C 9,7 km/h (2 Bft) 97,56 %
03.12.2016 17:34 -0,9 C 91 % 1025,3 hPa 0,0 l/m 8,6 km/h (2 Bft) NO 55 0 min 0,000 mm 0,0 UV-I 0 W/m -2,2 C -3,2 C 14,5 km/h (3 Bft) 98,11 %
03.12.2016 17:36 -0,9 C 91 % 1025,2 hPa 0,0 l/m 9,9 km/h (2 Bft) O-NO 57 0 min 0,000 mm 0,0 UV-I 0 W/m -2,2 C -4,4 C 14,5 km/h (3 Bft) 97,14 %
03.12.2016 17:38 -0,9 C 91 % 1025,2 hPa 0,0 l/m 8,6 km/h (2 Bft) O-NO 67 0 min 0,000 mm 0,0 UV-I 0 W/m -2,2 C -3,2 C 12,9 km/h (3 Bft) 98,00 %
03.12.2016 17:40 -0,9 C 92 % 1025,3 hPa 0,0 l/m 7,9 km/h (2 Bft) O-NO 61 0 min 0,000 mm 0,0 UV-I 0 W/m -2,0 C -2,5 C 9,7 km/h (2 Bft) 98,00 %
03.12.2016 17:42 -1,0 C 92 % 1025,2 hPa 0,0 l/m 7,0 km/h (2 Bft) NO 52 0 min 0,000 mm 0,0 UV-I 0 W/m -2,1 C -1,6 C 9,7 km/h (2 Bft) 98,11 %
03.12.2016 17:44 -1,1 C 92 % 1025,3 hPa 0,0 l/m 8,0 km/h (2 Bft) O-NO 64 0 min 0,000 mm 0,0 UV-I 0 W/m -2,2 C -2,8 C 12,9 km/h (3 Bft) 92,68 %
03.12.2016 17:46 -1,1 C 92 % 1025,3 hPa 0,0 l/m 7,4 km/h (2 Bft) O-NO 64 0 min 0,000 mm 0,0 UV-I 0 W/m -2,2 C -2,2 C 11,3 km/h (2 Bft) 96,23 %
03.12.2016 17:48 -1,1 C 92 % 1025,3 hPa 0,0 l/m 7,5 km/h (2 Bft) O-NO 60 0 min 0,000 mm 0,0 UV-I 0 W/m -2,2 C -2,3 C 11,3 km/h (2 Bft) 97,73 %
03.12.2016 17:50 -1,1 C 92 % 1025,4 hPa 0,0 l/m 8,5 km/h (2 Bft) NO 53 0 min 0,000 mm 0,0 UV-I 0 W/m -2,2 C -3,3 C 9,7 km/h (2 Bft) 97,37 %
03.12.2016 17:52 -1,2 C 92 % 1025,3 hPa 0,0 l/m 8,0 km/h (2 Bft) O-NO 64 0 min 0,000 mm 0,0 UV-I 0 W/m -2,3 C -2,9 C 12,9 km/h (3 Bft) 96,23 %
03.12.2016 17:54 -1,2 C 92 % 1025,3 hPa 0,0 l/m 6,9 km/h (2 Bft) O-NO 67 0 min 0,000 mm 0,0 UV-I 0 W/m -2,3 C -1,7 C 11,3 km/h (2 Bft) 100,00 %
03.12.2016 17:56 -1,2 C 93 % 1025,3 hPa 0,0 l/m 7,3 km/h (2 Bft) NO 54 0 min 0,000 mm 0,0 UV-I 0 W/m -2,2 C -2,2 C 12,9 km/h (3 Bft) 97,14 %
03.12.2016 17:58 -1,2 C 92 % 1025,3 hPa 0,0 l/m 7,6 km/h (2 Bft) O-NO 60 0 min 0,000 mm 0,0 UV-I 0 W/m -2,3 C -2,5 C 11,3 km/h (2 Bft) 100,00 %
03.12.2016 18:00 -1,2 C 93 % 1025,3 hPa 0,0 l/m 7,1 km/h (2 Bft) NO 56 0 min 0,000 mm 0,0 UV-I 0 W/m -2,2 C -2,0 C 9,7 km/h (2 Bft) 97,44 %
03.12.2016 18:02 -1,2 C 93 % 1025,3 hPa 0,0 l/m 6,9 km/h (2 Bft) NO 50 0 min 0,000 mm 0,0 UV-I 0 W/m -2,2 C -1,7 C 11,3 km/h (2 Bft) 97,73 %
03.12.2016 18:04 -1,2 C 93 % 1025,3 hPa 0,0 l/m 7,3 km/h (2 Bft) O-NO 60 0 min 0,000 mm 0,0 UV-I 0 W/m -2,2 C -2,2 C 9,7 km/h (2 Bft) 100,00 %
03.12.2016 18:06 -1,3 C 93 % 1025,3 hPa 0,0 l/m 7,0 km/h (2 Bft) NO 40 0 min 0,000 mm 0,0 UV-I 0 W/m -2,3 C -1,9 C 9,7 km/h (2 Bft) 96,00 %
03.12.2016 18:08 -1,3 C 93 % 1025,3 hPa 0,0 l/m 7,8 km/h (2 Bft) O-NO 74 0 min 0,000 mm 0,0 UV-I 0 W/m -2,3 C -2,8 C 9,7 km/h (2 Bft) 100,00 %
03.12.2016 18:10 -1,3 C 93 % 1025,3 hPa 0,0 l/m 7,6 km/h (2 Bft) O-NO 68 0 min 0,000 mm 0,0 UV-I 0 W/m -2,3 C -2,6 C 11,3 km/h (2 Bft) 100,00 %
03.12.2016 18:12 -1,3 C 93 % 1025,3 hPa 0,0 l/m 7,2 km/h (2 Bft) O-NO 59 0 min 0,000 mm 0,0 UV-I 0 W/m -2,3 C -2,2 C 9,7 km/h (2 Bft) 100,00 %
03.12.2016 18:14 -1,3 C 93 % 1025,3 hPa 0,0 l/m 5,8 km/h (2 Bft) NO 51 0 min 0,000 mm 0,0 UV-I 0 W/m -2,3 C -1,3 C 8,0 km/h (2 Bft) 100,00 %
03.12.2016 18:16 -1,3 C 93 % 1025,3 hPa 0,0 l/m 8,0 km/h (2 Bft) O 89 0 min 0,000 mm 0,0 UV-I 0 W/m -2,3 C -3,0 C 12,9 km/h (3 Bft) 100,00 %
03.12.2016 18:18 -1,4 C 93 % 1025,3 hPa 0,0 l/m 6,9 km/h (2 Bft) O-NO 57 0 min 0,000 mm 0,0 UV-I 0 W/m -2,4 C -1,9 C 14,5 km/h (3 Bft) 100,00 %
03.12.2016 18:20 -1,4 C 93 % 1025,2 hPa 0,0 l/m 8,1 km/h (2 Bft) NO 55 0 min 0,000 mm 0,0 UV-I 0 W/m -2,4 C -3,2 C 12,9 km/h (3 Bft) 100,00 %
03.12.2016 18:22 -1,4 C 94 % 1025,2 hPa 0,0 l/m 7,0 km/h (2 Bft) O-NO 57 0 min 0,000 mm 0,0 UV-I 0 W/m -2,2 C -2,0 C 9,7 km/h (2 Bft) 100,00 %
03.12.2016 18:24 -1,4 C 94 % 1025,2 hPa 0,0 l/m 8,2 km/h (2 Bft) O-NO 58 0 min 0,000 mm 0,0 UV-I 0 W/m -2,2 C -3,3 C 12,9 km/h (3 Bft) 100,00 %
03.12.2016 18:26 -1,4 C 94 % 1025,2 hPa 0,0 l/m 7,5 km/h (2 Bft) O-NO 60 0 min 0,000 mm 0,0 UV-I 0 W/m -2,2 C -2,6 C 16,1 km/h (3 Bft) 100,00 %
03.12.2016 18:28 -1,4 C 94 % 1025,2 hPa 0,0 l/m 7,5 km/h (2 Bft) NO 51 0 min 0,000 mm 0,0 UV-I 0 W/m -2,2 C -2,6 C 11,3 km/h (2 Bft) 100,00 %
03.12.2016 18:30 -1,4 C 94 % 1025,3 hPa 0,0 l/m 8,2 km/h (2 Bft) O-NO 61 0 min 0,000 mm 0,0 UV-I 0 W/m -2,2 C -3,3 C 14,5 km/h (3 Bft) 97,56 %
03.12.2016 18:32 -1,4 C 94 % 1025,3 hPa 0,0 l/m 8,2 km/h (2 Bft) NO 50 0 min 0,000 mm 0,0 UV-I 0 W/m -2,2 C -3,3 C 12,9 km/h (3 Bft) 100,00 %
03.12.2016 18:34 -1,4 C 94 % 1025,2 hPa 0,0 l/m 7,9 km/h (2 Bft) O-NO 68 0 min 0,000 mm 0,0 UV-I 0 W/m -2,2 C -3,0 C 12,9 km/h (3 Bft) 100,00 %
03.12.2016 18:36 -1,4 C 94 % 1025,3 hPa 0,0 l/m 9,5 km/h (2 Bft) O-NO 64 0 min 0,000 mm 0,0 UV-I 0 W/m -2,2 C -4,6 C 14,5 km/h (3 Bft) 98,21 %
03.12.2016 18:38 -1,4 C 94 % 1025,3 hPa 0,0 l/m 7,4 km/h (2 Bft) O-NO 67 0 min 0,000 mm 0,0 UV-I 0 W/m -2,2 C -2,5 C 14,5 km/h (3 Bft) 97,56 %
03.12.2016 18:40 -1,4 C 94 % 1025,3 hPa 0,0 l/m 6,0 km/h (2 Bft) NO 36 0 min 0,000 mm 0,0 UV-I 0 W/m -2,2 C -1,4 C 9,7 km/h (2 Bft) 98,21 %
03.12.2016 18:42 -1,4 C 94 % 1025,4 hPa 0,0 l/m 6,8 km/h (2 Bft) NO 54 0 min 0,000 mm 0,0 UV-I 0 W/m -2,2 C -1,8 C 9,7 km/h (2 Bft) 100,00 %
03.12.2016 18:44 -1,5 C 94 % 1025,3 hPa 0,0 l/m 8,0 km/h (2 Bft) NO 45 0 min 0,000 mm 0,0 UV-I 0 W/m -2,3 C -3,2 C 11,3 km/h (2 Bft) 98,57 %
03.12.2016 18:46 -1,5 C 93 % 1025,4 hPa 0,0 l/m 8,2 km/h (2 Bft) N-NO 33 0 min 0,000 mm 0,0 UV-I 0 W/m -2,5 C -3,4 C 12,9 km/h (3 Bft) 100,00 %
03.12.2016 18:48 -1,6 C 93 % 1025,3 hPa 0,0 l/m 6,6 km/h (2 Bft) NO 52 0 min 0,000 mm 0,0 UV-I 0 W/m -2,6 C -1,8 C 9,7 km/h (2 Bft) 96,15 %
03.12.2016 18:50 -1,6 C 94 % 1025,4 hPa 0,0 l/m 7,3 km/h (2 Bft) NO 51 0 min 0,000 mm 0,0 UV-I 0 W/m -2,4 C -2,6 C 11,3 km/h (2 Bft) 100,00 %
03.12.2016 18:52 -1,6 C 94 % 1025,4 hPa 0,0 l/m 6,6 km/h (2 Bft) NO 37 0 min 0,000 mm 0,0 UV-I 0 W/m -2,4 C -1,8 C 12,9 km/h (3 Bft) 98,11 %
03.12.2016 18:54 -1,6 C 94 % 1025,4 hPa 0,0 l/m 8,6 km/h (2 Bft) N-NO 33 0 min 0,000 mm 0,0 UV-I 0 W/m -2,4 C -3,9 C 14,5 km/h (3 Bft) 98,00 %
03.12.2016 18:56 -1,6 C 94 % 1025,4 hPa 0,0 l/m 10,0 km/h (2 Bft) NO 51 0 min 0,000 mm 0,0 UV-I 0 W/m -2,4 C -5,2 C 16,1 km/h (3 Bft) 94,74 %
03.12.2016 18:58 -1,6 C 94 % 1025,5 hPa 0,0 l/m 8,5 km/h (2 Bft) NO 37 0 min 0,000 mm 0,0 UV-I 0 W/m -2,4 C -3,8 C 14,5 km/h (3 Bft) 100,00 %
03.12.2016 19:00 -1,5 C 94 % 1025,4 hPa 0,0 l/m 9,1 km/h (2 Bft) NO 55 0 min 0,000 mm 0,0 UV-I 0 W/m -2,3 C -4,3 C 16,1 km/h (3 Bft) 100,00 %
03.12.2016 19:02 -1,5 C 94 % 1025,4 hPa 0,0 l/m 7,0 km/h (2 Bft) N-NO 30 0 min 0,000 mm 0,0 UV-I 0 W/m -2,3 C -2,1 C 12,9 km/h (3 Bft) 100,00 %
03.12.2016 19:04 -1,6 C 94 % 1025,5 hPa 0,0 l/m 8,0 km/h (2 Bft) NO 47 0 min 0,000 mm 0,0 UV-I 0 W/m -2,4 C -3,3 C 14,5 km/h (3 Bft) 100,00 %
03.12.2016 19:06 -1,6 C 94 % 1025,5 hPa 0,0 l/m 9,7 km/h (2 Bft) NO 48 0 min 0,000 mm 0,0 UV-I 0 W/m -2,4 C -5,0 C 14,5 km/h (3 Bft) 97,37 %
03.12.2016 19:08 -1,6 C 94 % 1025,5 hPa 0,0 l/m 7,1 km/h (2 Bft) NO 53 0 min 0,000 mm 0,0 UV-I 0 W/m -2,4 C -2,4 C 12,9 km/h (3 Bft) 100,00 %
03.12.2016 19:10 -1,6 C 94 % 1025,5 hPa 0,0 l/m 7,4 km/h (2 Bft) NO 43 0 min 0,000 mm 0,0 UV-I 0 W/m -2,4 C -2,7 C 14,5 km/h (3 Bft) 100,00 %
03.12.2016 19:12 -1,6 C 94 % 1025,5 hPa 0,0 l/m 8,3 km/h (2 Bft) NO 39 0 min 0,000 mm 0,0 UV-I 0 W/m -2,4 C -3,6 C 14,5 km/h (3 Bft) 100,00 %
03.12.2016 19:14 -1,6 C 94 % 1025,6 hPa 0,0 l/m 6,8 km/h (2 Bft) NO 55 0 min 0,000 mm 0,0 UV-I 0 W/m -2,4 C -2,0 C 9,7 km/h (2 Bft) 100,00 %
03.12.2016 19:16 -1,6 C 94 % 1025,6 hPa 0,0 l/m 6,1 km/h (2 Bft) NO 44 0 min 0,000 mm 0,0 UV-I 0 W/m -2,4 C -1,6 C 8,0 km/h (2 Bft) 100,00 %
03.12.2016 19:18 -1,6 C 94 % 1025,6 hPa 0,0 l/m 8,6 km/h (2 Bft) NO 38 0 min 0,000 mm 0,0 UV-I 0 W/m -2,4 C -3,9 C 12,9 km/h (3 Bft) 100,00 %
03.12.2016 19:20 -1,7 C 94 % 1025,5 hPa 0,0 l/m 8,7 km/h (2 Bft) O-NO 58 0 min 0,000 mm 0,0 UV-I 0 W/m -2,5 C -4,1 C 12,9 km/h (3 Bft) 94,74 %
03.12.2016 19:22 -1,7 C 94 % 1025,5 hPa 0,0 l/m 9,3 km/h (2 Bft) N-NO 33 0 min 0,000 mm 0,0 UV-I 0 W/m -2,5 C -4,7 C 12,9 km/h (3 Bft) 96,23 %
03.12.2016 19:24 -1,7 C 94 % 1025,6 hPa 0,0 l/m 8,6 km/h (2 Bft) NO 34 0 min 0,000 mm 0,0 UV-I 0 W/m -2,5 C -4,0 C 14,5 km/h (3 Bft) 97,44 %
03.12.2016 19:26 -1,7 C 94 % 1025,6 hPa 0,0 l/m 7,5 km/h (2 Bft) O-NO 67 0 min 0,000 mm 0,0 UV-I 0 W/m -2,5 C -2,9 C 9,7 km/h (2 Bft) 98,18 %
03.12.2016 19:28 -1,7 C 94 % 1025,5 hPa 0,0 l/m 7,5 km/h (2 Bft) NO 38 0 min 0,000 mm 0,0 UV-I 0 W/m -2,5 C -2,9 C 11,3 km/h (2 Bft) 97,56 %
03.12.2016 19:30 -1,7 C 94 % 1025,5 hPa 0,0 l/m 6,7 km/h (2 Bft) O-NO 65 0 min 0,000 mm 0,0 UV-I 0 W/m -2,5 C -2,0 C 11,3 km/h (2 Bft) 96,00 %
03.12.2016 19:32 -1,7 C 94 % 1025,6 hPa 0,0 l/m 7,7 km/h (2 Bft) NO 50 0 min 0,000 mm 0,0 UV-I 0 W/m -2,5 C -3,1 C 11,3 km/h (2 Bft) 94,34 %
03.12.2016 19:34 -1,6 C 94 % 1025,6 hPa 0,0 l/m 8,3 km/h (2 Bft) O-NO 67 0 min 0,000 mm 0,0 UV-I 0 W/m -2,4 C -3,6 C 14,5 km/h (3 Bft) 97,56 %
03.12.2016 19:36 -1,6 C 94 % 1025,6 hPa 0,0 l/m 8,2 km/h (2 Bft) O-NO 65 0 min 0,000 mm 0,0 UV-I 0 W/m -2,4 C -3,5 C 12,9 km/h (3 Bft) 97,87 %
03.12.2016 19:38 -1,6 C 94 % 1025,6 hPa 0,0 l/m 8,1 km/h (2 Bft) O-NO 65 0 min 0,000 mm 0,0 UV-I 0 W/m -2,4 C -3,4 C 12,9 km/h (3 Bft) 98,00 %
03.12.2016 19:40 -1,6 C 94 % 1025,6 hPa 0,0 l/m 8,9 km/h (2 Bft) O-NO 61 0 min 0,000 mm 0,0 UV-I 0 W/m -2,4 C -4,2 C 12,9 km/h (3 Bft) 98,00 %
03.12.2016 19:42 -1,6 C 94 % 1025,6 hPa 0,0 l/m 8,2 km/h (2 Bft) O-NO 60 0 min 0,000 mm 0,0 UV-I 0 W/m -2,4 C -3,5 C 14,5 km/h (3 Bft) 95,65 %
03.12.2016 19:44 -1,6 C 94 % 1025,6 hPa 0,0 l/m 8,1 km/h (2 Bft) O-NO 59 0 min 0,000 mm 0,0 UV-I 0 W/m -2,4 C -3,4 C 9,7 km/h (2 Bft) 94,12 %
03.12.2016 19:46 -1,6 C 93 % 1025,6 hPa 0,0 l/m 8,8 km/h (2 Bft) O-NO 69 0 min 0,000 mm 0,0 UV-I 0 W/m -2,6 C -4,1 C 12,9 km/h (3 Bft) 97,56 %
03.12.2016 19:48 -1,6 C 93 % 1025,6 hPa 0,0 l/m 7,5 km/h (2 Bft) NO 40 0 min 0,000 mm 0,0 UV-I 0 W/m -2,6 C -2,8 C 11,3 km/h (2 Bft) 97,73 %
03.12.2016 19:50 -1,6 C 93 % 1025,6 hPa 0,0 l/m 10,3 km/h (2 Bft) NO 50 0 min 0,000 mm 0,0 UV-I 0 W/m -2,6 C -5,5 C 16,1 km/h (3 Bft) 96,00 %
03.12.2016 19:52 -1,6 C 93 % 1025,6 hPa 0,0 l/m 8,6 km/h (2 Bft) O-NO 64 0 min 0,000 mm 0,0 UV-I 0 W/m -2,6 C -3,9 C 16,1 km/h (3 Bft) 91,49 %
03.12.2016 19:54 -1,6 C 93 % 1025,6 hPa 0,0 l/m 9,9 km/h (2 Bft) O 88 0 min 0,000 mm 0,0 UV-I 0 W/m -2,6 C -5,1 C 16,1 km/h (3 Bft) 97,87 %
03.12.2016 19:56 -1,6 C 93 % 1025,6 hPa 0,0 l/m 8,5 km/h (2 Bft) NO 43 0 min 0,000 mm 0,0 UV-I 0 W/m -2,6 C -3,8 C 12,9 km/h (3 Bft) 98,00 %
03.12.2016 19:58 -1,5 C 93 % 1025,6 hPa 0,0 l/m 9,3 km/h (2 Bft) O-NO 63 0 min 0,000 mm 0,0 UV-I 0 W/m -2,5 C -4,5 C 14,5 km/h (3 Bft) 100,00 %
03.12.2016 20:00 -1,5 C 93 % 1025,7 hPa 0,0 l/m 7,3 km/h (2 Bft) O-NO 65 0 min 0,000 mm 0,0 UV-I 0 W/m -2,5 C -2,5 C 9,7 km/h (2 Bft) 98,11 %
03.12.2016 20:02 -1,5 C 92 % 1025,7 hPa 0,0 l/m 9,6 km/h (2 Bft) NO 42 0 min 0,000 mm 0,0 UV-I 0 W/m -2,6 C -4,8 C 12,9 km/h (3 Bft) 100,00 %
03.12.2016 20:04 -1,5 C 92 % 1025,7 hPa 0,0 l/m 10,8 km/h (2 Bft) NO 51 0 min 0,000 mm 0,0 UV-I 0 W/m -2,6 C -5,8 C 16,1 km/h (3 Bft) 100,00 %
03.12.2016 20:06 -1,5 C 92 % 1025,7 hPa 0,0 l/m 10,1 km/h (2 Bft) O-NO 57 0 min 0,000 mm 0,0 UV-I 0 W/m -2,6 C -5,2 C 16,1 km/h (3 Bft) 100,00 %
03.12.2016 20:08 -1,4 C 92 % 1025,7 hPa 0,0 l/m 9,8 km/h (2 Bft) O-NO 67 0 min 0,000 mm 0,0 UV-I 0 W/m -2,5 C -4,8 C 17,7 km/h (3 Bft) 97,87 %
03.12.2016 20:10 -1,4 C 92 % 1025,6 hPa 0,0 l/m 10,8 km/h (2 Bft) NO 44 0 min 0,000 mm 0,0 UV-I 0 W/m -2,5 C -5,7 C 17,7 km/h (3 Bft) 100,00 %
03.12.2016 20:12 -1,5 C 92 % 1025,6 hPa 0,0 l/m 9,1 km/h (2 Bft) O-NO 71 0 min 0,000 mm 0,0 UV-I 0 W/m -2,6 C -4,3 C 14,5 km/h (3 Bft) 100,00 %
03.12.2016 20:14 -1,4 C 92 % 1025,7 hPa 0,0 l/m 8,8 km/h (2 Bft) O-NO 62 0 min 0,000 mm 0,0 UV-I 0 W/m -2,5 C -3,9 C 16,1 km/h (3 Bft) 100,00 %
03.12.2016 20:16 -1,4 C 92 % 1025,7 hPa 0,0 l/m 10,6 km/h (2 Bft) O-NO 59 0 min 0,000 mm 0,0 UV-I 0 W/m -2,5 C -5,5 C 16,1 km/h (3 Bft) 100,00 %
03.12.2016 20:18 -1,4 C 92 % 1025,7 hPa 0,0 l/m 11,7 km/h (2 Bft) O-NO 70 0 min 0,000 mm 0,0 UV-I 0 W/m -2,5 C -6,4 C 16,1 km/h (3 Bft) 100,00 %
03.12.2016 20:20 -1,4 C 92 % 1025,7 hPa 0,0 l/m 11,0 km/h (2 Bft) O-NO 65 0 min 0,000 mm 0,0 UV-I 0 W/m -2,5 C -5,8 C 16,1 km/h (3 Bft) 98,46 %
03.12.2016 20:22 -1,4 C 92 % 1025,7 hPa 0,0 l/m 8,7 km/h (2 Bft) O-NO 58 0 min 0,000 mm 0,0 UV-I 0 W/m -2,5 C -3,8 C 16,1 km/h (3 Bft) 100,00 %
03.12.2016 20:24 -1,5 C 92 % 1025,7 hPa 0,0 l/m 10,5 km/h (2 Bft) O-NO 69 0 min 0,000 mm 0,0 UV-I 0 W/m -2,6 C -5,5 C 16,1 km/h (3 Bft) 98,00 %
03.12.2016 20:26 -1,5 C 92 % 1025,7 hPa 0,0 l/m 12,9 km/h (3 Bft) NO 50 0 min 0,000 mm 0,0 UV-I 0 W/m -2,6 C -7,4 C 19,3 km/h (3 Bft) 100,00 %
03.12.2016 20:28 -1,5 C 92 % 1025,7 hPa 0,0 l/m 12,4 km/h (3 Bft) O-NO 59 0 min 0,000 mm 0,0 UV-I 0 W/m -2,6 C -7,0 C 16,1 km/h (3 Bft) 100,00 %
03.12.2016 20:30 -1,5 C 92 % 1025,7 hPa 0,0 l/m 11,9 km/h (2 Bft) O-NO 59 0 min 0,000 mm 0,0 UV-I 0 W/m -2,6 C -6,7 C 16,1 km/h (3 Bft) 97,37 %
03.12.2016 20:32 -1,4 C 92 % 1025,7 hPa 0,0 l/m 10,3 km/h (2 Bft) NO 51 0 min 0,000 mm 0,0 UV-I 0 W/m -2,5 C -5,3 C 14,5 km/h (3 Bft) 100,00 %
03.12.2016 20:34 -1,4 C 92 % 1025,7 hPa 0,0 l/m 11,1 km/h (2 Bft) O-NO 61 0 min 0,000 mm 0,0 UV-I 0 W/m -2,5 C -5,9 C 16,1 km/h (3 Bft) 98,00 %
03.12.2016 20:36 -1,5 C 92 % 1025,8 hPa 0,0 l/m 11,4 km/h (2 Bft) NO 54 0 min 0,000 mm 0,0 UV-I 0 W/m -2,6 C -6,3 C 16,1 km/h (3 Bft) 100,00 %
03.12.2016 20:38 -1,5 C 92 % 1025,8 hPa 0,0 l/m 10,6 km/h (2 Bft) NO 55 0 min 0,000 mm 0,0 UV-I 0 W/m -2,6 C -5,6 C 16,1 km/h (3 Bft) 100,00 %
03.12.2016 20:40 -1,5 C 92 % 1025,8 hPa 0,0 l/m 10,3 km/h (2 Bft) O-NO 70 0 min 0,000 mm 0,0 UV-I 0 W/m -2,6 C -5,4 C 14,5 km/h (3 Bft) 100,00 %
03.12.2016 20:42 -1,5 C 92 % 1025,8 hPa 0,0 l/m 9,9 km/h (2 Bft) O-NO 72 0 min 0,000 mm 0,0 UV-I 0 W/m -2,6 C -5,0 C 16,1 km/h (3 Bft) 100,00 %
03.12.2016 20:44 -1,5 C 92 % 1025,8 hPa 0,0 l/m 10,0 km/h (2 Bft) O-NO 65 0 min 0,000 mm 0,0 UV-I 0 W/m -2,6 C -5,1 C 14,5 km/h (3 Bft) 100,00 %
03.12.2016 20:46 -1,6 C 92 % 1025,8 hPa 0,0 l/m 11,8 km/h (2 Bft) O-NO 75 0 min 0,000 mm 0,0 UV-I 0 W/m -2,7 C -6,7 C 17,7 km/h (3 Bft) 98,31 %
03.12.2016 20:48 -1,5 C 92 % 1025,9 hPa 0,0 l/m 9,4 km/h (2 Bft) O-NO 69 0 min 0,000 mm 0,0 UV-I 0 W/m -2,6 C -4,6 C 14,5 km/h (3 Bft) 100,00 %
03.12.2016 20:50 -1,6 C 92 % 1025,9 hPa 0,0 l/m 9,5 km/h (2 Bft) O-NO 69 0 min 0,000 mm 0,0 UV-I 0 W/m -2,7 C -4,8 C 17,7 km/h (3 Bft) 98,00 %
03.12.2016 20:52 -1,6 C 92 % 1025,9 hPa 0,0 l/m 11,4 km/h (2 Bft) O 82 0 min 0,000 mm 0,0 UV-I 0 W/m -2,7 C -6,4 C 17,7 km/h (3 Bft) 100,00 %
03.12.2016 20:54 -1,6 C 92 % 1025,9 hPa 0,0 l/m 12,1 km/h (2 Bft) O-NO 59 0 min 0,000 mm 0,0 UV-I 0 W/m -2,7 C -6,9 C 17,7 km/h (3 Bft) 100,00 %
03.12.2016 20:56 -1,6 C 92 % 1026,0 hPa 0,0 l/m 9,5 km/h (2 Bft) NO 50 0 min 0,000 mm 0,0 UV-I 0 W/m -2,7 C -4,8 C 14,5 km/h (3 Bft) 98,00 %
03.12.2016 20:58 -1,6 C 92 % 1026,0 hPa 0,0 l/m 11,9 km/h (2 Bft) NO 55 0 min 0,000 mm 0,0 UV-I 0 W/m -2,7 C -6,8 C 19,3 km/h (3 Bft) 97,56 %
03.12.2016 21:00 -1,6 C 92 % 1026,0 hPa 0,0 l/m 12,4 km/h (3 Bft) O-NO 74 0 min 0,000 mm 0,0 UV-I 0 W/m -2,7 C -7,1 C 16,1 km/h (3 Bft) 97,56 %
03.12.2016 21:02 -1,6 C 92 % 1026,0 hPa 0,0 l/m 10,3 km/h (2 Bft) NO 53 0 min 0,000 mm 0,0 UV-I 0 W/m -2,7 C -5,5 C 14,5 km/h (3 Bft) 98,31 %
03.12.2016 21:04 -1,6 C 91 % 1026,1 hPa 0,0 l/m 10,6 km/h (2 Bft) NO 44 0 min 0,000 mm 0,0 UV-I 0 W/m -2,9 C -5,7 C 19,3 km/h (3 Bft) 100,00 %
03.12.2016 21:06 -1,6 C 91 % 1026,1 hPa 0,0 l/m 13,3 km/h (3 Bft) NO 38 0 min 0,000 mm 0,0 UV-I 0 W/m -2,9 C -7,8 C 20,9 km/h (4 Bft) 100,00 %
03.12.2016 21:08 -1,6 C 91 % 1026,0 hPa 0,0 l/m 13,0 km/h (3 Bft) NO 51 0 min 0,000 mm 0,0 UV-I 0 W/m -2,9 C -7,6 C 19,3 km/h (3 Bft) 98,00 %
03.12.2016 21:10 -1,6 C 91 % 1026,1 hPa 0,0 l/m 11,3 km/h (2 Bft) NO 53 0 min 0,000 mm 0,0 UV-I 0 W/m -2,9 C -6,3 C 17,7 km/h (3 Bft) 97,37 %
03.12.2016 21:12 -1,6 C 91 % 1026,1 hPa 0,0 l/m 11,9 km/h (2 Bft) N-NO 28 0 min 0,000 mm 0,0 UV-I 0 W/m -2,9 C -6,8 C 17,7 km/h (3 Bft) 100,00 %
03.12.2016 21:14 -1,6 C 91 % 1026,1 hPa 0,0 l/m 16,3 km/h (3 Bft) NO 40 0 min 0,000 mm 0,0 UV-I 0 W/m -2,9 C -9,7 C 24,1 km/h (4 Bft) 97,56 %
03.12.2016 21:16 -1,6 C 91 % 1026,1 hPa 0,0 l/m 12,3 km/h (3 Bft) N 11 0 min 0,000 mm 0,0 UV-I 0 W/m -2,9 C -7,1 C 19,3 km/h (3 Bft) 100,00 %
03.12.2016 21:18 -1,6 C 91 % 1026,1 hPa 0,0 l/m 11,5 km/h (2 Bft) NO 44 0 min 0,000 mm 0,0 UV-I 0 W/m -2,9 C -6,5 C 17,7 km/h (3 Bft) 97,56 %
03.12.2016 21:20 -1,6 C 91 % 1026,2 hPa 0,0 l/m 12,3 km/h (3 Bft) NO 38 0 min 0,000 mm 0,0 UV-I 0 W/m -2,9 C -7,1 C 19,3 km/h (3 Bft) 97,87 %
03.12.2016 21:22 -1,6 C 91 % 1026,2 hPa 0,0 l/m 13,3 km/h (3 Bft) NO 54 0 min 0,000 mm 0,0 UV-I 0 W/m -2,9 C -7,8 C 20,9 km/h (4 Bft) 100,00 %
03.12.2016 21:24 -1,6 C 91 % 1026,2 hPa 0,0 l/m 11,7 km/h (2 Bft) NO 55 0 min 0,000 mm 0,0 UV-I 0 W/m -2,9 C -6,6 C 17,7 km/h (3 Bft) 100,00 %
03.12.2016 21:26 -1,6 C 91 % 1026,3 hPa 0,0 l/m 13,8 km/h (3 Bft) O-NO 72 0 min 0,000 mm 0,0 UV-I 0 W/m -2,9 C -8,1 C 20,9 km/h (4 Bft) 97,62 %
03.12.2016 21:28 -1,6 C 91 % 1026,3 hPa 0,0 l/m 10,2 km/h (2 Bft) NO 53 0 min 0,000 mm 0,0 UV-I 0 W/m -2,9 C -5,4 C 17,7 km/h (3 Bft) 100,00 %
03.12.2016 21:30 -1,6 C 91 % 1026,2 hPa 0,0 l/m 12,3 km/h (3 Bft) NO 44 0 min 0,000 mm 0,0 UV-I 0 W/m -2,9 C -7,1 C 17,7 km/h (3 Bft) 95,12 %
03.12.2016 21:32 -1,6 C 91 % 1026,3 hPa 0,0 l/m 10,8 km/h (2 Bft) O-NO 59 0 min 0,000 mm 0,0 UV-I 0 W/m -2,9 C -5,9 C 16,1 km/h (3 Bft) 94,34 %
03.12.2016 21:34 -1,6 C 91 % 1026,4 hPa 0,0 l/m 11,6 km/h (2 Bft) O-NO 57 0 min 0,000 mm 0,0 UV-I 0 W/m -2,9 C -6,5 C 16,1 km/h (3 Bft) 97,87 %
03.12.2016 21:36 -1,6 C 91 % 1026,5 hPa 0,0 l/m 9,7 km/h (2 Bft) NO 34 0 min 0,000 mm 0,0 UV-I 0 W/m -2,9 C -5,0 C 14,5 km/h (3 Bft) 97,37 %
03.12.2016 21:38 -1,7 C 91 % 1026,5 hPa 0,0 l/m 12,7 km/h (3 Bft) NO 51 0 min 0,000 mm 0,0 UV-I 0 W/m -3,0 C -7,5 C 16,1 km/h (3 Bft) 93,62 %
03.12.2016 21:40 -1,7 C 91 % 1026,5 hPa 0,0 l/m 12,8 km/h (3 Bft) NO 43 0 min 0,000 mm 0,0 UV-I 0 W/m -3,0 C -7,6 C 19,3 km/h (3 Bft) 94,64 %
03.12.2016 21:42 -1,8 C 91 % 1026,4 hPa 0,0 l/m 14,6 km/h (3 Bft) NO 45 0 min 0,000 mm 0,0 UV-I 0 W/m -3,1 C -8,9 C 20,9 km/h (4 Bft) 97,14 %
03.12.2016 21:44 -1,8 C 91 % 1026,4 hPa 0,0 l/m 13,7 km/h (3 Bft) NO 36 0 min 0,000 mm 0,0 UV-I 0 W/m -3,1 C -8,3 C 17,7 km/h (3 Bft) 98,21 %
03.12.2016 21:46 -1,8 C 91 % 1026,5 hPa 0,0 l/m 11,6 km/h (2 Bft) NO 43 0 min 0,000 mm 0,0 UV-I 0 W/m -3,1 C -6,8 C 14,5 km/h (3 Bft) 91,67 %
03.12.2016 21:50 -1,9 C 91 % 1026,5 hPa 0,0 l/m 13,3 km/h (3 Bft) NO 44 0 min 0,000 mm 0,0 UV-I 0 W/m -3,2 C -8,1 C 17,7 km/h (3 Bft) 98,39 %
03.12.2016 21:52 -1,9 C 91 % 1026,5 hPa 0,0 l/m 11,8 km/h (2 Bft) NO 42 0 min 0,000 mm 0,0 UV-I 0 W/m -3,2 C -7,0 C 16,1 km/h (3 Bft) 94,00 %
03.12.2016 21:54 -1,9 C 91 % 1026,4 hPa 0,0 l/m 10,5 km/h (2 Bft) NO 39 0 min 0,000 mm 0,0 UV-I 0 W/m -3,2 C -6,0 C 16,1 km/h (3 Bft) 98,00 %
03.12.2016 21:56 -1,9 C 91 % 1026,5 hPa 0,0 l/m 9,8 km/h (2 Bft) NO 34 0 min 0,000 mm 0,0 UV-I 0 W/m -3,2 C -5,4 C 17,7 km/h (3 Bft) 97,37 %
03.12.2016 21:58 -1,9 C 91 % 1026,5 hPa 0,0 l/m 13,1 km/h (3 Bft) N-NO 27 0 min 0,000 mm 0,0 UV-I 0 W/m -3,2 C -8,0 C 16,1 km/h (3 Bft) 96,00 %
03.12.2016 22:00 -1,9 C 91 % 1026,5 hPa 0,0 l/m 12,7 km/h (3 Bft) NO 34 0 min 0,000 mm 0,0 UV-I 0 W/m -3,2 C -7,7 C 19,3 km/h (3 Bft) 97,44 %
03.12.2016 22:02 -1,9 C 91 % 1026,5 hPa 0,0 l/m 11,8 km/h (2 Bft) NO 40 0 min 0,000 mm 0,0 UV-I 0 W/m -3,2 C -7,0 C 16,1 km/h (3 Bft) 98,18 %
03.12.2016 22:04 -2,0 C 91 % 1026,5 hPa 0,0 l/m 12,1 km/h (2 Bft) NO 41 0 min 0,000 mm 0,0 UV-I 0 W/m -3,3 C -7,4 C 17,7 km/h (3 Bft) 100,00 %
03.12.2016 22:06 -2,0 C 91 % 1026,5 hPa 0,0 l/m 12,2 km/h (2 Bft) O-NO 66 0 min 0,000 mm 0,0 UV-I 0 W/m -3,3 C -7,5 C 16,1 km/h (3 Bft) 97,87 %
03.12.2016 22:08 -2,0 C 90 % 1026,4 hPa 0,0 l/m 8,0 km/h (2 Bft) O-NO 67 0 min 0,000 mm 0,0 UV-I 0 W/m -3,4 C -3,7 C 14,5 km/h (3 Bft) 100,00 %
03.12.2016 22:10 -2,0 C 90 % 1026,4 hPa 0,0 l/m 8,3 km/h (2 Bft) NO 34 0 min 0,000 mm 0,0 UV-I 0 W/m -3,4 C -4,1 C 11,3 km/h (2 Bft) 97,56 %
03.12.2016 22:12 -2,0 C 90 % 1026,4 hPa 0,0 l/m 7,6 km/h (2 Bft) NO 54 0 min 0,000 mm 0,0 UV-I 0 W/m -3,4 C -3,3 C 12,9 km/h (3 Bft) 100,00 %
03.12.2016 22:14 -2,1 C 90 % 1026,4 hPa 0,0 l/m 6,6 km/h (2 Bft) O-NO 67 0 min 0,000 mm 0,0 UV-I 0 W/m -3,5 C -2,3 C 9,7 km/h (2 Bft) 100,00 %
03.12.2016 22:16 -2,0 C 90 % 1026,4 hPa 0,0 l/m 7,7 km/h (2 Bft) O-NO 67 0 min 0,000 mm 0,0 UV-I 0 W/m -3,4 C -3,4 C 14,5 km/h (3 Bft) 97,37 %
03.12.2016 22:18 -2,1 C 90 % 1026,4 hPa 0,0 l/m 7,9 km/h (2 Bft) O-NO 63 0 min 0,000 mm 0,0 UV-I 0 W/m -3,5 C -3,7 C 12,9 km/h (3 Bft) 100,00 %
03.12.2016 22:20 -2,1 C 90 % 1026,4 hPa 0,0 l/m 7,2 km/h (2 Bft) O-NO 57 0 min 0,000 mm 0,0 UV-I 0 W/m -3,5 C -3,0 C 9,7 km/h (2 Bft) 100,00 %
03.12.2016 22:22 -2,2 C 90 % 1026,4 hPa 0,0 l/m 6,5 km/h (2 Bft) O-NO 57 0 min 0,000 mm 0,0 UV-I 0 W/m -3,6 C -2,3 C 9,7 km/h (2 Bft) 100,00 %
03.12.2016 22:24 -2,2 C 90 % 1026,4 hPa 0,0 l/m 6,7 km/h (2 Bft) NO 52 0 min 0,000 mm 0,0 UV-I 0 W/m -3,6 C -2,5 C 9,7 km/h (2 Bft) 98,00 %
03.12.2016 22:26 -2,2 C 89 % 1026,5 hPa 0,0 l/m 10,3 km/h (2 Bft) O-NO 61 0 min 0,000 mm 0,0 UV-I 0 W/m -3,8 C -6,1 C 16,1 km/h (3 Bft) 97,56 %
03.12.2016 22:28 -2,2 C 89 % 1026,4 hPa 0,0 l/m 10,2 km/h (2 Bft) NO 45 0 min 0,000 mm 0,0 UV-I 0 W/m -3,8 C -6,1 C 14,5 km/h (3 Bft) 100,00 %
03.12.2016 22:30 -2,2 C 89 % 1026,4 hPa 0,0 l/m 11,6 km/h (2 Bft) O-NO 62 0 min 0,000 mm 0,0 UV-I 0 W/m -3,8 C -7,2 C 17,7 km/h (3 Bft) 100,00 %
03.12.2016 22:32 -2,2 C 89 % 1026,5 hPa 0,0 l/m 9,4 km/h (2 Bft) O-NO 73 0 min 0,000 mm 0,0 UV-I 0 W/m -3,8 C -5,3 C 12,9 km/h (3 Bft) 100,00 %
03.12.2016 22:34 -2,2 C 89 % 1026,5 hPa 0,0 l/m 10,2 km/h (2 Bft) O-NO 67 0 min 0,000 mm 0,0 UV-I 0 W/m -3,8 C -6,1 C 14,5 km/h (3 Bft) 100,00 %
03.12.2016 22:36 -2,2 C 89 % 1026,5 hPa 0,0 l/m 9,4 km/h (2 Bft) O-NO 59 0 min 0,000 mm 0,0 UV-I 0 W/m -3,8 C -5,3 C 14,5 km/h (3 Bft) 100,00 %
03.12.2016 22:38 -2,2 C 89 % 1026,4 hPa 0,0 l/m 8,7 km/h (2 Bft) O-NO 59 0 min 0,000 mm 0,0 UV-I 0 W/m -3,8 C -4,7 C 11,3 km/h (2 Bft) 100,00 %
03.12.2016 22:40 -2,3 C 89 % 1026,5 hPa 0,0 l/m 6,8 km/h (2 Bft) O-NO 57 0 min 0,000 mm 0,0 UV-I 0 W/m -3,9 C -2,7 C 9,7 km/h (2 Bft) 100,00 %
03.12.2016 22:42 -2,3 C 89 % 1026,5 hPa 0,0 l/m 8,0 km/h (2 Bft) O-NO 57 0 min 0,000 mm 0,0 UV-I 0 W/m -3,9 C -4,1 C 12,9 km/h (3 Bft) 96,43 %
03.12.2016 22:44 -2,3 C 89 % 1026,4 hPa 0,0 l/m 8,1 km/h (2 Bft) O-NO 71 0 min 0,000 mm 0,0 UV-I 0 W/m -3,9 C -4,2 C 11,3 km/h (2 Bft) 100,00 %
03.12.2016 22:46 -2,4 C 89 % 1026,5 hPa 0,0 l/m 7,5 km/h (2 Bft) NO 47 0 min 0,000 mm 0,0 UV-I 0 W/m -4,0 C -3,6 C 12,9 km/h (3 Bft) 98,51 %
03.12.2016 22:48 -2,4 C 89 % 1026,5 hPa 0,0 l/m 7,7 km/h (2 Bft) O-NO 65 0 min 0,000 mm 0,0 UV-I 0 W/m -4,0 C -3,8 C 12,9 km/h (3 Bft) 100,00 %
03.12.2016 22:50 -2,4 C 89 % 1026,5 hPa 0,0 l/m 7,3 km/h (2 Bft) O-NO 64 0 min 0,000 mm 0,0 UV-I 0 W/m -4,0 C -3,4 C 12,9 km/h (3 Bft) 100,00 %
03.12.2016 22:52 -2,4 C 89 % 1026,5 hPa 0,0 l/m 7,6 km/h (2 Bft) O-NO 61 0 min 0,000 mm 0,0 UV-I 0 W/m -4,0 C -3,7 C 12,9 km/h (3 Bft) 100,00 %
03.12.2016 22:54 -2,5 C 89 % 1026,6 hPa 0,0 l/m 7,7 km/h (2 Bft) O-NO 58 0 min 0,000 mm 0,0 UV-I 0 W/m -4,1 C -4,0 C 12,9 km/h (3 Bft) 100,00 %
03.12.2016 22:56 -2,5 C 89 % 1026,7 hPa 0,0 l/m 7,3 km/h (2 Bft) O-NO 67 0 min 0,000 mm 0,0 UV-I 0 W/m -4,1 C -3,5 C 9,7 km/h (2 Bft) 100,00 %
03.12.2016 22:58 -2,6 C 89 % 1026,7 hPa 0,0 l/m 8,0 km/h (2 Bft) O-NO 59 0 min 0,000 mm 0,0 UV-I 0 W/m -4,2 C -4,4 C 11,3 km/h (2 Bft) 100,00 %
03.12.2016 23:00 -2,6 C 89 % 1026,7 hPa 0,0 l/m 8,1 km/h (2 Bft) NO 50 0 min 0,000 mm 0,0 UV-I 0 W/m -4,2 C -4,5 C 11,3 km/h (2 Bft) 100,00 %
03.12.2016 23:02 -2,6 C 89 % 1026,7 hPa 0,0 l/m 8,4 km/h (2 Bft) NO 51 0 min 0,000 mm 0,0 UV-I 0 W/m -4,2 C -4,8 C 11,3 km/h (2 Bft) 100,00 %
03.12.2016 23:04 -2,6 C 89 % 1026,7 hPa 0,0 l/m 8,6 km/h (2 Bft) O-NO 58 0 min 0,000 mm 0,0 UV-I 0 W/m -4,2 C -5,0 C 11,3 km/h (2 Bft) 97,37 %
03.12.2016 23:06 -2,6 C 89 % 1026,7 hPa 0,0 l/m 8,5 km/h (2 Bft) NO 51 0 min 0,000 mm 0,0 UV-I 0 W/m -4,2 C -4,9 C 14,5 km/h (3 Bft) 98,00 %
03.12.2016 23:08 -2,6 C 89 % 1026,6 hPa 0,0 l/m 8,9 km/h (2 Bft) O-NO 72 0 min 0,000 mm 0,0 UV-I 0 W/m -4,2 C -5,3 C 12,9 km/h (3 Bft) 100,00 %
03.12.2016 23:10 -2,7 C 89 % 1026,6 hPa 0,0 l/m 8,6 km/h (2 Bft) NO 51 0 min 0,000 mm 0,0 UV-I 0 W/m -4,3 C -5,1 C 12,9 km/h (3 Bft) 97,37 %
03.12.2016 23:12 -2,7 C 89 % 1026,6 hPa 0,0 l/m 8,5 km/h (2 Bft) O-NO 61 0 min 0,000 mm 0,0 UV-I 0 W/m -4,3 C -5,0 C 12,9 km/h (3 Bft) 100,00 %
03.12.2016 23:14 -2,7 C 89 % 1026,7 hPa 0,0 l/m 9,1 km/h (2 Bft) O-NO 67 0 min 0,000 mm 0,0 UV-I 0 W/m -4,3 C -5,6 C 12,9 km/h (3 Bft) 98,21 %
03.12.2016 23:16 -2,7 C 89 % 1026,7 hPa 0,0 l/m 9,2 km/h (2 Bft) NO 52 0 min 0,000 mm 0,0 UV-I 0 W/m -4,3 C -5,7 C 14,5 km/h (3 Bft) 100,00 %
03.12.2016 23:18 -2,7 C 89 % 1026,7 hPa 0,0 l/m 10,5 km/h (2 Bft) O-NO 70 0 min 0,000 mm 0,0 UV-I 0 W/m -4,3 C -6,9 C 14,5 km/h (3 Bft) 100,00 %
03.12.2016 23:20 -2,7 C 89 % 1026,7 hPa 0,0 l/m 10,1 km/h (2 Bft) NO 55 0 min 0,000 mm 0,0 UV-I 0 W/m -4,3 C -6,5 C 16,1 km/h (3 Bft) 95,74 %
03.12.2016 23:22 -2,7 C 89 % 1026,6 hPa 0,0 l/m 8,7 km/h (2 Bft) O-NO 62 0 min 0,000 mm 0,0 UV-I 0 W/m -4,3 C -5,2 C 16,1 km/h (3 Bft) 100,00 %
03.12.2016 23:24 -2,6 C 89 % 1026,7 hPa 0,0 l/m 9,3 km/h (2 Bft) O-NO 74 0 min 0,000 mm 0,0 UV-I 0 W/m -4,2 C -5,7 C 14,5 km/h (3 Bft) 100,00 %
03.12.2016 23:26 -2,6 C 89 % 1026,7 hPa 0,0 l/m 8,6 km/h (2 Bft) NO 53 0 min 0,000 mm 0,0 UV-I 0 W/m -4,2 C -5,0 C 14,5 km/h (3 Bft) 97,62 %
03.12.2016 23:28 -2,6 C 89 % 1026,7 hPa 0,0 l/m 8,7 km/h (2 Bft) O-NO 59 0 min 0,000 mm 0,0 UV-I 0 W/m -4,2 C -5,1 C 12,9 km/h (3 Bft) 100,00 %
03.12.2016 23:30 -2,6 C 89 % 1026,7 hPa 0,0 l/m 7,1 km/h (2 Bft) O-NO 59 0 min 0,000 mm 0,0 UV-I 0 W/m -4,2 C -3,4 C 11,3 km/h (2 Bft) 97,56 %
03.12.2016 23:32 -2,6 C 89 % 1026,7 hPa 0,0 l/m 9,8 km/h (2 Bft) O-NO 59 0 min 0,000 mm 0,0 UV-I 0 W/m -4,2 C -6,1 C 14,5 km/h (3 Bft) 100,00 %
03.12.2016 23:34 -2,6 C 89 % 1026,8 hPa 0,0 l/m 9,7 km/h (2 Bft) O-NO 63 0 min 0,000 mm 0,0 UV-I 0 W/m -4,2 C -6,0 C 16,1 km/h (3 Bft) 95,74 %
03.12.2016 23:36 -2,6 C 89 % 1026,8 hPa 0,0 l/m 7,6 km/h (2 Bft) NO 56 0 min 0,000 mm 0,0 UV-I 0 W/m -4,2 C -3,9 C 11,3 km/h (2 Bft) 97,56 %
03.12.2016 23:38 -2,6 C 89 % 1026,8 hPa 0,0 l/m 9,4 km/h (2 Bft) NO 51 0 min 0,000 mm 0,0 UV-I 0 W/m -4,2 C -5,8 C 12,9 km/h (3 Bft) 97,73 %
03.12.2016 23:40 -2,6 C 89 % 1026,8 hPa 0,0 l/m 6,6 km/h (2 Bft) O-NO 63 0 min 0,000 mm 0,0 UV-I 0 W/m -4,2 C -2,8 C 9,7 km/h (2 Bft) 97,73 %
03.12.2016 23:42 -2,6 C 89 % 1026,7 hPa 0,0 l/m 6,2 km/h (2 Bft) NO 46 0 min 0,000 mm 0,0 UV-I 0 W/m -4,2 C -2,6 C 9,7 km/h (2 Bft) 98,00 %
03.12.2016 23:44 -2,7 C 89 % 1026,7 hPa 0,0 l/m 5,9 km/h (2 Bft) O-NO 68 0 min 0,000 mm 0,0 UV-I 0 W/m -4,3 C -2,7 C 9,7 km/h (2 Bft) 97,87 %
03.12.2016 23:46 -2,7 C 89 % 1026,7 hPa 0,0 l/m 5,6 km/h (1 Bft) O-NO 59 0 min 0,000 mm 0,0 UV-I 0 W/m -4,3 C -2,7 C 8,0 km/h (2 Bft) 98,11 %
03.12.2016 23:48 -2,7 C 89 % 1026,7 hPa 0,0 l/m 6,6 km/h (2 Bft) O-NO 69 0 min 0,000 mm 0,0 UV-I 0 W/m -4,3 C -2,9 C 8,0 km/h (2 Bft) 98,00 %
03.12.2016 23:50 -2,8 C 89 % 1026,7 hPa 0,0 l/m 6,5 km/h (2 Bft) O-NO 62 0 min 0,000 mm 0,0 UV-I 0 W/m -4,4 C -2,9 C 11,3 km/h (2 Bft) 97,37 %
03.12.2016 23:52 -2,8 C 90 % 1026,7 hPa 0,0 l/m 7,2 km/h (2 Bft) O-NO 57 0 min 0,000 mm 0,0 UV-I 0 W/m -4,2 C -3,7 C 11,3 km/h (2 Bft) 94,00 %
03.12.2016 23:54 -2,8 C 90 % 1026,7 hPa 0,0 l/m 8,0 km/h (2 Bft) O-NO 67 0 min 0,000 mm 0,0 UV-I 0 W/m -4,2 C -4,6 C 12,9 km/h (3 Bft) 97,87 %
03.12.2016 23:56 -2,9 C 90 % 1026,7 hPa 0,0 l/m 8,8 km/h (2 Bft) NO 48 0 min 0,000 mm 0,0 UV-I 0 W/m -4,3 C -5,5 C 14,5 km/h (3 Bft) 97,87 %
03.12.2016 23:58 -2,9 C 90 % 1026,7 hPa 0,0 l/m 9,1 km/h (2 Bft) NO 52 0 min 0,000 mm 0,0 UV-I 0 W/m -4,3 C -5,8 C 12,9 km/h (3 Bft) 98,11 %
_ Min-Zeit 08:00 15:24 00:00 - 00:10 - - - - - - 23:50 21:14 00:10 00:02
Minimum _ -3,8 C 87 % 1022,1 hPa - 0,0 km/h (0 Bft) - - - - - - -4,4 C -9,7 C 0,0 km/h (0 Bft) 13,33 %
_ Max-Zeit 14:58 00:46 23:34 00:00 21:14 - - 07:48 13:00 11:22 12:10 14:32 15:12 21:14 00:00
Maximum _ 0,7 C 97 % 1026,8 hPa 0,0 l/m 16,3 km/h
NO (3 Bft)
- - 2 min 0,077 mm 0,7 UV-I 387 W/m -0,7 C 0,7 C 24,1 km/h
NO (4 Bft)
100,00 %
Durchschnitt _ -1,9 C 94 % 1024,5 hPa #0,0 l/m 5,9 km/h (2 Bft) O-NO - #4:52 h #0,406 mm 0,5 UV-I 147 W/m -2,7 C -3,1 C 9,1 km/h (2 Bft) 98,40 %